Date StartTime U_cm/s V_cm/s W_cm/s Ustd_cm/s Vstd_cm/s Wstd_cm/s Uvar_(cm/s)^2 Vvar_(cm/s)^2 Wvar_(cm/s)^2 KE_(m/s)^2 TurbulentKE_(m/s)^2 HorizWindSpeed_cm/s FrictionSpeec_cm/s DragCoef SpeedOfSound_m/s SonicTemperature_C Pressure_mb 
12/20/2013  00:00:00       14.599       73.281      -10.871       16.737       24.446       10.475      280.123      597.619      109.720        0.334        0.049       74.721        7.792        0.011      329.607       -3.551      859.847
12/20/2013  00:01:00       17.207       75.033      -11.253       19.736       25.906       17.267      389.499      671.124      298.133        0.371        0.068       76.981       17.909        0.054      329.589       -3.580      859.845
12/20/2013  00:02:00        7.976       78.756       -7.702       20.528       17.883       12.931      421.393      319.794      167.217        0.362        0.045       79.159       10.092        0.016      329.563       -3.623      859.848
12/20/2013  00:03:00       13.410      101.186      -17.133       15.893       23.312        9.825      252.573      543.435       96.535        0.580        0.045      102.070       10.815        0.011      329.593       -3.572      859.857
12/20/2013  00:04:00        9.178      103.089      -14.248       16.550       25.499       16.639      273.889      650.217      276.850        0.606        0.060      103.497       12.487        0.015      329.591       -3.575      859.885
12/20/2013  00:05:00       29.597       92.057      -10.564       23.777       40.112       22.399      565.332     1608.985      501.731        0.607        0.134       96.697       24.294        0.063      329.587       -3.583      859.920
12/20/2013  00:06:00       14.478      100.941      -14.273       17.124       20.315       13.811      293.231      412.682      190.731        0.575        0.045      101.974        9.368        0.008      329.609       -3.549      859.965
12/20/2013  00:07:00        5.631      102.070       -9.709       22.848       41.891       20.234      522.014     1754.864      409.417        0.661        0.134      102.225       22.111        0.047      329.594       -3.572      859.992
12/20/2013  00:08:00       11.569      136.915      -16.875       30.632       22.921       16.084      938.310      525.362      258.695        1.044        0.086      137.403       11.922        0.008      329.659       -3.465      859.996
12/20/2013  00:09:00        6.927       47.721       11.280       28.285       48.767       33.044      800.053     2378.261     1091.918        0.336        0.214       48.221       26.992        0.313      329.576       -3.601      859.978
12/20/2013  00:10:00       14.878      101.875       -7.008       29.744       32.027       21.745      884.683     1025.711      472.853        0.652        0.119      102.956       21.318        0.043      329.612       -3.543      859.943
12/20/2013  00:11:00       38.131       95.543      -13.918       35.353       37.669       21.615     1249.849     1418.945      467.193        0.696        0.157      102.871       20.388        0.039      329.626       -3.520      859.887
12/20/2013  00:12:00       -3.541       92.566      -11.178       18.845       17.827       13.562      355.116      317.799      183.930        0.478        0.043       92.634       10.664        0.013      329.597       -3.566      859.848
12/20/2013  00:13:00       -4.448      106.892      -16.301       25.367       30.625       14.814      643.472      937.906      219.450        0.676        0.090      106.984       10.175        0.009      329.751       -3.315      859.842
12/20/2013  00:14:00      -16.604      132.987      -18.948       28.811       25.680       14.295      830.074      659.474      204.336        1.001        0.085      134.019       10.653        0.006      329.771       -3.284      859.852
12/20/2013  00:15:00      -18.746      145.289      -23.653       26.727       31.060       12.371      714.330      964.741      153.034        1.193        0.092      146.493        7.794        0.003      329.804       -3.228      859.866
12/20/2013  00:16:00      -29.946      108.718       -9.889       33.558       46.571       22.168     1126.112     2168.831      491.398        0.830        0.189      112.767       19.772        0.031      329.955       -2.981      859.873
12/20/2013  00:17:00      -33.387       18.526       -0.716       16.699       16.053       11.450      278.865      257.686      131.093        0.106        0.033       38.182        8.531        0.050      329.626       -3.519      859.872
12/20/2013  00:18:00      -26.564       20.117       -4.656       28.668       23.366       12.839      821.830      545.993      164.850        0.133        0.077       33.322       12.216        0.134      329.712       -3.377      859.876
12/20/2013  00:19:00      -50.475       36.506       -7.339       21.151       27.042       16.387      447.364      731.284      268.525        0.269        0.072       62.293        4.153        0.004      329.733       -3.345      859.884
12/20/2013  00:20:00      -43.389       23.099       -7.476       16.934       31.008       19.149      286.768      961.515      366.676        0.204        0.081       49.155       15.621        0.101      329.673       -3.442      859.880
12/20/2013  00:21:00       -7.509       63.013       -3.676       57.228       41.826       26.023     3275.073     1749.374      677.195        0.487        0.285       63.459       21.625        0.116      329.756       -3.307      859.859
12/20/2013  00:22:00      -18.749       76.121       -8.524       27.702       31.890       17.409      767.395     1016.975      303.084        0.415        0.104       78.396       18.909        0.058      329.823       -3.196      859.840
12/20/2013  00:23:00      -41.926       38.048       -8.104       29.173       31.306       16.767      851.072      980.070      281.135        0.269        0.106       56.617       17.698        0.098      329.722       -3.363      859.832
12/20/2013  00:24:00        7.495       91.278       -9.528       27.399       34.940       16.751      750.682     1220.781      280.611        0.536        0.113       91.585       14.812        0.026      329.787       -3.256      859.839
12/20/2013  00:25:00      -16.434       79.822       -8.025       24.521       61.245       15.938      601.261     3751.000      254.026        0.566        0.230       81.496       24.409        0.090      329.689       -3.416      859.836
12/20/2013  00:26:00      -56.595       54.200       -9.935       29.323       43.764       17.697      859.856     1915.314      313.187        0.466        0.154       78.362       10.476        0.018      329.631       -3.512      859.810
12/20/2013  00:27:00      -43.837       46.378      -13.783       16.840       37.549       16.141      283.600     1409.894      260.531        0.311        0.098       63.817       17.901        0.079      329.673       -3.441      859.807
12/20/2013  00:28:00      -43.373       20.117        2.569       26.437       29.200       19.880      698.923      852.637      395.210        0.212        0.097       47.811       16.872        0.125      329.650       -3.480      859.814
12/20/2013  00:29:00       -6.448       41.289        2.075       27.007       37.771       19.376      729.396     1426.675      375.444        0.214        0.127       41.790       21.324        0.260      329.733       -3.344      859.831
12/20/2013  00:30:00      -28.083       28.171       -3.152       16.279       16.928        9.530      265.010      286.547       90.821        0.112        0.032       39.777        7.146        0.032      329.694       -3.408      859.822
12/20/2013  00:31:00      -36.620        3.529        2.457       19.302       14.648        9.632      372.564      214.567       92.779        0.102        0.034       36.789        7.538        0.042      329.653       -3.475      859.813
12/20/2013  00:32:00      -29.705       -4.196        0.675       15.884       11.291        6.581      252.305      127.483       43.303        0.066        0.021       29.999        6.909        0.053      329.656       -3.470      859.800
12/20/2013  00:33:00       -1.310        9.151       -1.409       16.767       15.941        8.298      281.137      254.111       68.860        0.035        0.030        9.245        9.415        1.037      329.669       -3.450      859.803
12/20/2013  00:34:00       -0.839        0.253        4.624       12.581        7.166       10.373      158.292       51.355      107.589        0.017        0.016        0.876        8.315       90.142      329.651       -3.479      859.823
12/20/2013  00:35:00      -18.276       -3.399       -6.470       23.165       11.634       11.593      536.640      135.344      134.391        0.060        0.040       18.589        6.811        0.134      329.626       -3.519      859.838
12/20/2013  00:36:00      -17.692      -15.733        3.511       15.304       11.978        8.162      234.202      143.479       66.620        0.051        0.022       23.676        8.324        0.124      329.644       -3.490      859.838
12/20/2013  00:37:00      -49.050        6.905        0.893       37.916       23.801       22.167     1437.621      566.468      491.361        0.247        0.125       49.533       20.096        0.165      329.654       -3.475      859.833
12/20/2013  00:38:00       16.289       31.686       -2.247       27.871       29.695       14.144      776.813      881.783      200.043        0.157        0.093       35.628       15.297        0.184      329.688       -3.417      859.824
12/20/2013  00:39:00       24.203       20.478        1.692       11.811       13.822       12.684      139.511      191.043      160.887        0.075        0.025       31.704        8.265        0.068      329.707       -3.385      859.812
12/20/2013  00:40:00       28.155       60.686       -4.365       19.047       41.861       20.371      362.798     1752.355      414.973        0.351        0.127       66.899       23.475        0.123      329.708       -3.384      859.804
12/20/2013  00:41:00        5.166       57.571       -6.058       13.111       32.537       18.604      171.899     1058.652      346.117        0.248        0.079       57.802       20.220        0.122      329.759       -3.302      859.801
12/20/2013  00:42:00       26.716       78.238       -7.229       27.930       29.272       14.283      780.085      856.848      204.010        0.436        0.092       82.674       13.767        0.028      329.636       -3.504      859.800
12/20/2013  00:43:00       71.193       60.854       -2.420       29.457       28.835       19.212      867.725      831.456      369.115        0.542        0.103       93.657       16.585        0.031      329.614       -3.540      859.792
12/20/2013  00:44:00      101.732       66.811        4.079       19.626       19.438       18.893      385.167      377.832      356.953        0.797        0.056      121.709        6.631        0.003      329.581       -3.593      859.767
12/20/2013  00:45:00       91.969       54.767        5.986       29.543       22.905       23.231      872.766      524.647      539.664        0.671        0.097      107.041       14.973        0.020      329.507       -3.713      859.725
12/20/2013  00:46:00      100.915       56.379       -1.128       26.199       25.376       21.055      686.376      643.966      443.309        0.757        0.089      115.596       18.235        0.025      329.469       -3.775      859.707
12/20/2013  00:47:00       72.613       39.611        0.837       32.204       27.494       19.561     1037.097      755.934      382.621        0.451        0.109       82.714       16.886        0.042      329.455       -3.799      859.689
12/20/2013  00:48:00       60.714       46.388        3.959       35.407       31.617       29.926     1253.682      999.616      895.565        0.450        0.157       76.407       19.454        0.065      329.472       -3.771      859.685
12/20/2013  00:49:00       46.786       46.959       -0.143       31.219       28.828       23.196      974.627      831.030      538.038        0.337        0.117       66.288       15.165        0.052      329.462       -3.788      859.695
12/20/2013  00:50:00       53.784       54.792        4.449       32.480       28.826       25.252     1054.945      830.939      637.643        0.422        0.126       76.778       16.611        0.047      329.473       -3.769      859.709
12/20/2013  00:51:00       72.158       52.157        4.725       34.566       22.814       18.275     1194.786      520.475      333.966        0.500        0.102       89.035       10.539        0.014      329.467       -3.779      859.711
12/20/2013  00:52:00       77.427       40.406        8.083       28.902       22.235       20.076      835.349      494.410      403.040        0.471        0.087       87.336       17.257        0.039      329.473       -3.769      859.702
12/20/2013  00:53:00       37.796       32.738        7.129       21.150       14.737       13.970      447.333      217.174      195.160        0.171        0.043       50.003       11.860        0.056      329.457       -3.796      859.668
12/20/2013  00:54:00       24.928       31.800        3.675       17.703       22.031       18.781      313.382      485.360      352.735        0.140        0.058       40.407       15.464        0.146      329.447       -3.813      859.640
12/20/2013  00:55:00       85.732       54.850        6.221       30.611       24.094       19.702      937.006      580.544      388.172        0.615        0.095      101.777       14.629        0.021      329.522       -3.688      859.618
12/20/2013  00:56:00       61.102       43.510        6.394       19.324       17.875       13.841      373.402      319.533      191.576        0.328        0.044       75.010        7.167        0.009      329.492       -3.738      859.596
12/20/2013  00:57:00       49.480       32.554        4.997       16.171       12.139       11.940      261.506      147.347      142.568        0.204        0.028       59.229        8.135        0.019      329.461       -3.787      859.596
12/20/2013  00:58:00       22.285       59.275       -9.201       15.003       32.296       15.840      225.086     1043.059      250.921        0.281        0.076       63.326       15.734        0.062      329.472       -3.771      859.609
12/20/2013  00:59:00       27.869       96.144      -11.854       23.766       37.305       21.408      564.846     1391.666      458.285        0.629        0.121      100.101       20.429        0.042      329.545       -3.652      859.623
12/20/2013  01:00:00       29.270       94.000      -13.607       22.291       34.816       19.835      496.902     1212.184      393.437        0.599        0.105       98.451       20.717        0.044      329.539       -3.661      859.665
12/20/2013  01:01:00       14.679       66.166       -9.211       23.990       20.077       17.539      575.528      403.079      307.620        0.298        0.064       67.775       15.576        0.053      329.453       -3.801      859.705
12/20/2013  01:02:00       24.213       91.531       -4.429       31.420       35.655       24.760      987.195     1271.288      613.053        0.593        0.144       94.679       23.078        0.059      329.426       -3.847      859.733
12/20/2013  01:03:00       31.709      106.622       -9.924       38.866       54.173       35.648     1510.601     2934.745     1270.810        0.909        0.286      111.238       32.162        0.084      329.420       -3.857      859.743
12/20/2013  01:04:00        4.234      150.559      -21.803       18.436       40.413       16.376      339.888     1633.176      268.165        1.270        0.112      150.619       10.761        0.005      329.404       -3.883      859.730
12/20/2013  01:05:00        6.256      111.606      -17.833       21.163       32.763       17.536      447.872     1073.396      307.514        0.732        0.091      111.781       18.975        0.029      329.437       -3.827      859.710
12/20/2013  01:06:00        6.899       97.178      -10.749       13.526       17.733       11.386      182.966      314.452      129.645        0.512        0.031       97.422        4.526        0.002      329.437       -3.829      859.685
12/20/2013  01:07:00       -9.618      101.231      -13.301       39.163       26.664       16.626     1533.752      710.955      276.427        0.652        0.126      101.687       10.151        0.010      329.507       -3.714      859.670
12/20/2013  01:08:00       -2.797      115.118      -12.011       33.256       32.401       18.808     1105.968     1049.798      353.750        0.796        0.125      115.152       13.212        0.013      329.560       -3.628      859.647
12/20/2013  01:09:00        5.330      113.304       -9.431       30.995       49.272       18.623      960.668     2427.757      346.812        0.834        0.187      113.430       23.840        0.044      329.536       -3.667      859.638
12/20/2013  01:10:00       15.533       89.208       -6.834       21.565       29.278       19.347      465.060      857.213      374.298        0.497        0.085       90.550       17.243        0.036      329.459       -3.791      859.631
12/20/2013  01:11:00       34.757       33.531       10.814       33.982       35.813       28.005     1154.789     1282.538      784.279        0.283        0.161       48.295       24.142        0.250      329.426       -3.846      859.640
12/20/2013  01:12:00       12.343       48.138       -4.551       19.412       20.215       12.179      376.816      408.642      148.331        0.171        0.047       49.696        7.911        0.025      329.404       -3.883      859.653
12/20/2013  01:13:00       19.442       23.420        9.771       19.190       27.007       17.991      368.267      729.393      323.683        0.122        0.071       30.438       10.352        0.116      329.363       -3.951      859.673
12/20/2013  01:14:00       24.095       78.245       -2.612       29.849       43.899       21.157      890.961     1927.134      447.637        0.499        0.163       81.871       22.727        0.077      329.387       -3.912      859.690
12/20/2013  01:15:00       35.124       67.442       -2.049       27.356       39.453       20.917      748.357     1556.557      437.531        0.426        0.137       76.040       24.131        0.101      329.354       -3.964      859.717
12/20/2013  01:16:00       17.130       37.731       -3.802       14.242       22.884       11.523      202.834      523.695      132.788        0.130        0.043       41.438       12.434        0.090      329.327       -4.009      859.728
12/20/2013  01:17:00       12.089       31.223        3.978       14.900       21.263       18.508      221.999      452.096      342.547        0.108        0.051       33.482       11.095        0.110      329.360       -3.955      859.743
12/20/2013  01:18:00       12.360       24.918        1.917       20.245       22.847       11.313      409.856      521.983      127.981        0.092        0.053       27.815       12.414        0.199      329.334       -3.996      859.742
12/20/2013  01:19:00        2.914       86.545       -8.390       26.535       44.674       24.085      704.095     1995.789      580.078        0.542        0.164       86.594       27.818        0.103      329.409       -3.876      859.726
12/20/2013  01:20:00       11.625      120.051      -19.341       16.826       30.888       17.797      283.128      954.078      316.717        0.824        0.078      120.612       15.052        0.016      329.378       -3.926      859.712
12/20/2013  01:21:00       27.596      125.936      -18.039       38.224       34.253       19.946     1461.062     1173.270      397.832        0.999        0.152      128.924       21.476        0.028      329.341       -3.985      859.711
12/20/2013  01:22:00       18.507       66.923       -2.654       36.828       52.096       34.273     1356.306     2713.961     1174.626        0.504        0.262       69.435       32.505        0.219      329.300       -4.053      859.711
12/20/2013  01:23:00        9.168      115.398      -13.059       33.908       53.536       26.102     1149.732     2866.132      681.314        0.913        0.235      115.761       27.017        0.054      329.284       -4.078      859.710
12/20/2013  01:24:00       29.595       87.395       -3.682       31.887       51.766       23.772     1016.788     2679.682      565.094        0.639        0.213       92.270       24.581        0.071      329.276       -4.092      859.688
12/20/2013  01:25:00       32.970       94.322       -2.168       40.541       40.350       31.411     1643.541     1628.143      986.633        0.712        0.213       99.918       27.303        0.075      329.276       -4.091      859.662
12/20/2013  01:26:00       22.808       67.015        2.424       33.036       41.350       34.349     1091.403     1709.817     1179.886        0.450        0.199       70.790       29.933        0.179      329.263       -4.112      859.634
12/20/2013  01:27:00       27.805       56.822        1.240       28.532       43.805       24.087      814.091     1918.845      580.191        0.366        0.166       63.260       25.852        0.167      329.250       -4.135      859.593
12/20/2013  01:28:00       20.726      102.596       -6.621       50.788       48.920       24.015     2579.384     2393.139      576.724        0.827        0.277      104.669       21.786        0.043      329.238       -4.154      859.540
12/20/2013  01:29:00       12.976      108.029      -17.459       33.405       31.483       25.122     1115.894      991.167      631.110        0.744        0.137      108.806       21.565        0.039      329.233       -4.161      859.520
12/20/2013  01:30:00       -4.293      132.368      -17.892       46.966       37.373       26.423     2205.850     1396.722      698.164        1.108        0.215      132.438       25.052        0.036      329.392       -3.902      859.529
12/20/2013  01:31:00       18.427      112.106       -9.553       49.990       64.192       32.615     2498.966     4120.570     1063.711        1.034        0.384      113.610       32.250        0.081      329.379       -3.924      859.550
12/20/2013  01:32:00       -4.107      138.916      -16.061       31.934       36.983       20.132     1019.806     1367.772      405.298        1.118        0.140      138.977       18.263        0.017      329.397       -3.893      859.569
12/20/2013  01:33:00      -14.373      109.001       -8.359       28.330       43.942       23.152      802.616     1930.904      536.015        0.771        0.163      109.945       20.091        0.033      329.466       -3.781      859.594
12/20/2013  01:34:00       -2.633      102.586      -10.691       32.280       31.372       21.854     1042.003      984.188      477.581        0.657        0.125      102.620       20.105        0.038      329.437       -3.829      859.619
12/20/2013  01:35:00      -11.829      152.632      -22.014       23.913       31.677       15.489      571.815     1003.415      239.897        1.287        0.091      153.090       11.403        0.006      329.410       -3.873      859.625
12/20/2013  01:36:00      -11.101      150.596      -20.338       28.225       27.941       15.934      796.628      780.696      253.887        1.252        0.092      151.005       11.056        0.005      329.403       -3.885      859.615
12/20/2013  01:37:00       -2.208      138.464      -17.787       27.380       26.819       22.897      749.681      719.249      524.289        1.074        0.100      138.482       19.148        0.019      329.366       -3.946      859.591
12/20/2013  01:38:00       -5.132      105.718       -4.010       36.236       32.436       27.989     1313.032     1052.118      783.410        0.718        0.157      105.842       23.052        0.047      329.350       -3.972      859.573
12/20/2013  01:39:00      -13.661      123.815      -12.989       22.605       42.527       21.376      511.005     1808.545      456.938        0.923        0.139      124.566       22.553        0.033      329.424       -3.851      859.542
12/20/2013  01:40:00       19.007      133.825      -20.523       24.019       27.107       13.329      576.897      734.814      177.663        1.009        0.074      135.168        9.658        0.005      329.368       -3.941      859.503
12/20/2013  01:41:00        3.717      116.942      -20.716       24.268       33.270       12.983      588.926     1106.875      168.546        0.799        0.093      117.001       10.754        0.008      329.353       -3.967      859.468
12/20/2013  01:42:00       16.947       89.333      -12.847       28.303       28.378       16.657      801.052      805.296      277.447        0.516        0.094       90.926       14.477        0.025      329.333       -3.998      859.439
12/20/2013  01:43:00       14.396       85.142      -10.820       28.186       38.085       15.647      794.473     1450.497      244.840        0.503        0.124       86.350       16.797        0.038      329.306       -4.043      859.418
12/20/2013  01:44:00       13.281       70.412        0.051       32.800       52.180       24.906     1075.857     2722.780      620.308        0.478        0.221       71.653       29.502        0.170      329.272       -4.098      859.416
12/20/2013  01:45:00       -7.593      104.993       -9.901       23.190       22.002       13.567      537.764      484.092      184.066        0.619        0.060      105.267       10.338        0.010      329.342       -3.985      859.435
12/20/2013  01:46:00       13.661       93.817       -4.359       24.114       39.904       23.272      581.487     1592.327      541.583        0.586        0.136       94.806       24.972        0.069      329.376       -3.929      859.453
12/20/2013  01:47:00        3.455       44.058       -1.471       18.834       34.347       14.697      354.701     1179.711      216.009        0.185        0.088       44.193       15.058        0.116      329.327       -4.007      859.439
12/20/2013  01:48:00        8.077       67.576       -8.027       14.188       28.750       12.891      201.286      826.585      166.176        0.294        0.060       68.057       16.055        0.056      329.302       -4.046      859.401
12/20/2013  01:49:00       21.651       71.800      -12.276       17.703       37.886       14.390      313.380     1435.358      207.081        0.386        0.098       74.994       18.244        0.059      329.308       -4.039      859.374
12/20/2013  01:50:00       30.326       56.991       -9.093       19.651       16.508       12.429      386.146      272.501      154.475        0.253        0.041       64.557       11.606        0.032      329.301       -4.052      859.339
12/20/2013  01:51:00       27.239       61.007       -6.977       15.202       14.234       10.111      231.094      202.616      102.237        0.252        0.027       66.812        5.597        0.007      329.279       -4.085      859.298
12/20/2013  01:52:00       42.063       60.905       -4.286       29.541       31.389       25.332      872.655      985.259      641.717        0.400        0.125       74.019       23.284        0.099      329.232       -4.164      859.255
12/20/2013  01:53:00       15.933       51.532        6.032       29.765       41.319       30.997      885.955     1707.239      960.825        0.325        0.178       53.939       29.004        0.289      329.199       -4.218      859.246
12/20/2013  01:54:00       27.889       72.886       -8.708       29.742       40.600       26.564      884.608     1648.366      705.655        0.470        0.162       78.039       22.614        0.084      329.168       -4.268      859.319
12/20/2013  01:55:00       18.588       54.978        9.742       37.904       34.364       31.433     1436.696     1180.909      988.003        0.353        0.180       58.035       25.533        0.194      329.143       -4.310      859.433
12/20/2013  01:56:00       50.973       67.420        0.493       40.906       37.537       35.360     1673.296     1409.056     1250.344        0.574        0.217       84.520       27.367        0.105      329.114       -4.358      859.516
12/20/2013  01:57:00       50.411       59.457        6.789       41.683       33.712       30.774     1737.469     1136.468      947.054        0.497        0.191       77.951       23.069        0.088      329.131       -4.329      859.524
12/20/2013  01:58:00       53.740       72.830       10.809       34.024       34.214       33.144     1157.620     1170.611     1098.523        0.587        0.171       90.510       23.138        0.065      329.112       -4.359      859.489
12/20/2013  01:59:00       37.462      104.864       -6.779       31.009       51.575       31.034      961.552     2659.972      963.119        0.851        0.229      111.355       29.871        0.072      329.076       -4.418      859.451
12/20/2013  02:00:00       30.583       93.108       -9.940       30.193       36.902       27.370      911.644     1361.791      749.108        0.636        0.151       98.002       22.312        0.052      329.087       -4.400      859.408
12/20/2013  02:01:00       29.724       65.400       -0.212       34.095       44.963       30.294     1162.462     2021.645      917.710        0.463        0.205       71.837       26.315        0.134      329.086       -4.401      859.394
12/20/2013  02:02:00       34.621       79.976       -9.334       38.590       46.005       31.651     1489.221     2116.488     1001.814        0.614        0.230       87.147       28.134        0.104      329.066       -4.435      859.409
12/20/2013  02:03:00       27.564       78.014       -7.386       38.592       54.747       31.731     1489.358     2997.221     1006.838        0.620        0.275       82.741       31.155        0.142      329.065       -4.435      859.434
12/20/2013  02:04:00       26.997       87.277       -0.287       32.996       44.590       34.308     1088.715     1988.250     1177.030        0.630        0.213       91.357       25.764        0.080      329.050       -4.461      859.432
12/20/2013  02:05:00       30.312       86.584      -17.151       39.818       39.165       29.660     1585.450     1533.865      879.698        0.635        0.200       91.737       22.185        0.058      329.038       -4.480      859.410
12/20/2013  02:06:00       49.468       68.876        5.394       32.617       35.104       30.827     1063.892     1232.319      950.317        0.523        0.162       84.799       26.106        0.095      329.084       -4.406      859.371
12/20/2013  02:07:00       33.520       55.599       -2.777       26.003       27.386       19.735      676.147      750.015      389.466        0.302        0.091       64.922       15.599        0.058      329.075       -4.419      859.345
12/20/2013  02:08:00       25.073       79.257      -10.804       25.421       34.094       17.960      646.207     1162.411      322.555        0.458        0.107       83.128       19.840        0.057      329.095       -4.387      859.344
12/20/2013  02:09:00       40.442       57.210       -7.776       23.772       41.999       21.544      565.101     1763.948      464.139        0.388        0.140       70.060       26.760        0.146      329.106       -4.370      859.361
12/20/2013  02:10:00       36.697       32.753        2.307       22.996       24.747       17.524      528.817      612.434      307.085        0.194        0.072       49.188       13.902        0.080      329.100       -4.378      859.371
12/20/2013  02:11:00       31.028       59.387       -1.827       26.008       29.961       19.345      676.402      897.648      374.214        0.322        0.097       67.004       18.910        0.080      329.109       -4.364      859.368
12/20/2013  02:12:00       36.780       52.988       -7.644       15.379       21.668       15.600      236.523      469.507      243.347        0.258        0.047       64.502       15.206        0.056      329.131       -4.327      859.360
12/20/2013  02:13:00       27.157       36.780       -0.791       19.898       23.850       17.087      395.913      568.823      291.951        0.167        0.063       45.719       17.656        0.149      329.145       -4.306      859.346
12/20/2013  02:14:00       22.006       68.341       -9.902       14.739       17.913       10.874      217.228      320.886      118.235        0.295        0.033       71.796        9.567        0.018      329.151       -4.295      859.346
12/20/2013  02:15:00       19.167       81.832      -16.329       13.424       18.220        9.367      180.196      331.969       87.741        0.397        0.030       84.046        4.675        0.003      329.198       -4.219      859.360
12/20/2013  02:16:00       -3.962      119.872      -17.632       14.124       21.930        9.182      199.486      480.928       84.314        0.773        0.038      119.937        7.489        0.004      329.200       -4.217      859.402
12/20/2013  02:17:00       22.637      149.563      -27.451       20.321       19.772       12.104      412.943      390.927      146.496        1.229        0.048      151.266        9.897        0.004      329.187       -4.236      859.455
12/20/2013  02:18:00       23.938       91.283       -3.416       35.228       41.586       28.992     1241.038     1729.436      840.542        0.636        0.191       94.370       26.490        0.079      329.097       -4.385      859.484
12/20/2013  02:19:00       -4.308      116.635       -9.409       27.851       41.299       22.262      775.676     1705.571      495.593        0.834        0.149      116.715       19.558        0.028      329.077       -4.416      859.461
12/20/2013  02:20:00       29.407      121.831      -14.322       27.065       32.091       19.428      732.506     1029.836      377.462        0.903        0.107      125.329       18.311        0.021      329.080       -4.411      859.414
12/20/2013  02:21:00       25.672       69.473        0.802       32.268       29.876       25.765     1041.206      892.572      663.852        0.404        0.130       74.065       21.274        0.083      329.044       -4.470      859.401
12/20/2013  02:22:00       27.922       59.129        2.437       32.245       34.349       30.383     1039.721     1179.867      923.138        0.371        0.157       65.390       26.069        0.159      329.018       -4.514      859.423
12/20/2013  02:23:00        9.526       74.881       -7.652       33.666       52.655       24.854     1133.374     2772.574      617.706        0.514        0.226       75.484       30.143        0.159      329.039       -4.477      859.459
12/20/2013  02:24:00       23.171       94.653      -11.548       27.435       36.862       26.943      752.688     1358.804      725.909        0.623        0.142       97.448       22.529        0.053      329.028       -4.498      859.509
12/20/2013  02:25:00       10.273      111.470      -16.423       11.733       16.312       13.297      137.666      266.092      176.811        0.669        0.029      111.942        7.884        0.005      329.090       -4.395      859.562
12/20/2013  02:26:00       11.230       90.988      -10.353       11.533       14.078       14.859      133.020      198.196      220.793        0.453        0.028       91.678        9.626        0.011      329.116       -4.353      859.603
12/20/2013  02:27:00        3.924       87.176      -11.751        9.666       16.201        6.774       93.422      262.482       45.894        0.408        0.020       87.264        3.753        0.002      329.141       -4.311      859.626
12/20/2013  02:28:00       13.403       88.309      -16.794       13.405       15.620        8.751      179.702      243.998       76.573        0.438        0.025       89.320        8.066        0.008      329.098       -4.382      859.643
12/20/2013  02:29:00        9.860       88.826       -9.478       13.529       17.482       14.838      183.021      305.625      220.158        0.439        0.035       89.372       11.505        0.017      329.052       -4.458      859.669
12/20/2013  02:30:00       -4.709      119.340      -16.625       13.814       27.334       14.558      190.817      747.158      211.938        0.785        0.057      119.433        8.291        0.005      329.136       -4.320      859.710
12/20/2013  02:31:00      -13.270      115.763      -17.412       17.407       28.743       12.790      302.986      826.180      163.582        0.759        0.065      116.521        9.140        0.006      329.137       -4.319      859.718
12/20/2013  02:32:00      -14.935      139.712      -21.281       17.060       25.963       14.999      291.041      674.095      224.979        1.069        0.060      140.508        8.083        0.003      329.178       -4.253      859.702
12/20/2013  02:33:00      -25.100       99.481       -5.921       30.684       24.713       19.500      941.480      610.750      380.244        0.625        0.097      102.599       11.213        0.012      329.188       -4.234      859.670
12/20/2013  02:34:00       -8.332       62.118       -4.847       16.270       31.475       15.031      264.697      990.658      225.937        0.272        0.074       62.674       16.031        0.065      329.178       -4.252      859.636
12/20/2013  02:35:00       -2.105       88.656       -8.770       21.507       35.438       21.140      462.554     1255.835      446.892        0.505        0.108       88.681       16.813        0.036      329.180       -4.248      859.609
12/20/2013  02:36:00      -16.835      111.673      -16.627       23.596       27.311       12.299      556.783      745.902      151.263        0.724        0.073      112.935       10.202        0.008      329.125       -4.339      859.583
12/20/2013  02:37:00       -4.162       52.953       -2.199       33.478       43.659       18.791     1120.760     1906.100      353.099        0.310        0.169       53.116       19.858        0.140      329.127       -4.334      859.555
12/20/2013  02:38:00       -4.441       83.996      -16.059       23.539       25.633       13.114      554.064      657.032      171.980        0.436        0.069       84.113       11.108        0.017      329.142       -4.309      859.533
12/20/2013  02:39:00      -21.385       68.579       -9.144       21.122       31.994        9.610      446.159     1023.586       92.347        0.340        0.078       71.835        6.210        0.007      329.123       -4.341      859.503
12/20/2013  02:40:00      -39.367       36.010       -4.542       22.072       22.942       16.665      487.156      526.338      277.709        0.208        0.065       53.352       13.343        0.063      329.158       -4.284      859.494
12/20/2013  02:41:00      -21.879       36.040        4.728       28.812       30.286       19.487      830.158      917.264      379.758        0.196        0.106       42.162       16.062        0.145      329.158       -4.283      859.486
12/20/2013  02:42:00      -10.615       54.189       -2.729       29.455       23.080       21.948      867.590      532.668      481.694        0.247        0.094       55.219       12.283        0.049      329.201       -4.213      859.469
12/20/2013  02:43:00        8.059       54.566        0.942       18.803       24.559       13.472      353.539      603.128      181.485        0.209        0.057       55.158       11.587        0.044      329.057       -4.449      859.438
12/20/2013  02:44:00        8.589       49.078        2.675       19.732       30.836       16.028      389.345      950.861      256.903        0.204        0.080       49.823       11.998        0.058      329.149       -4.300      859.409
12/20/2013  02:45:00       10.817       21.371        2.498        9.506        9.826        9.625       90.369       96.545       92.650        0.043        0.014       23.952        6.331        0.070      329.061       -4.444      859.397
12/20/2013  02:46:00      -33.005       -2.525        3.090       18.134       15.138       11.259      328.840      229.164      126.761        0.089        0.034       33.101        6.754        0.042      329.083       -4.407      859.406
12/20/2013  02:47:00        4.735        2.784       -2.235       11.582       15.133        6.065      134.139      229.006       36.787        0.022        0.020        5.493        3.242        0.348      329.123       -4.342      859.418
12/20/2013  02:48:00      -35.985       -3.370       -5.623       18.864       11.009        8.317      355.850      121.192       69.176        0.094        0.027       36.143        3.885        0.012      329.106       -4.369      859.435
12/20/2013  02:49:00      -46.522        3.533       -9.596       11.752       11.502        7.905      138.118      132.305       62.485        0.130        0.017       46.656        6.557        0.020      329.114       -4.357      859.451
12/20/2013  02:50:00      -50.454       22.113       -9.683       20.703       29.633       16.110      428.625      878.136      259.542        0.235        0.078       55.087        9.248        0.028      329.175       -4.255      859.462
12/20/2013  02:51:00      -49.615       46.233      -12.703       22.713       26.248       11.800      515.885      688.946      139.230        0.305        0.067       67.817       13.201        0.038      329.216       -4.190      859.486
12/20/2013  02:52:00      -42.183       41.014      -12.616       23.198       22.899       15.036      538.133      524.364      226.091        0.245        0.064       58.835       11.324        0.037      329.209       -4.202      859.515
12/20/2013  02:53:00      -60.666       97.223      -24.183       26.914       24.088       14.538      724.384      580.228      211.364        0.762        0.076      114.598       12.575        0.012      329.271       -4.099      859.526
12/20/2013  02:54:00      -38.683       56.587       -8.796       20.062       23.937       14.022      402.464      572.999      196.607        0.297        0.059       68.546       13.703        0.040      329.242       -4.146      859.531
12/20/2013  02:55:00       -8.657       63.702      -11.398       19.893       31.283       14.945      395.721      978.603      223.360        0.293        0.080       64.288       17.043        0.070      329.333       -3.999      859.558
12/20/2013  02:56:00        0.471      119.658      -19.009       19.740       25.571       14.706      389.680      653.868      216.254        0.797        0.063      119.659        8.341        0.005      329.248       -4.138      859.604
12/20/2013  02:57:00       -8.464      143.970      -19.307       13.907       25.816       13.164      193.392      666.475      173.286        1.110        0.052      144.218       11.428        0.006      329.097       -4.383      859.644
12/20/2013  02:58:00      -49.409      118.830      -19.731       35.857       36.648       13.617     1285.756     1343.065      185.414        0.988        0.141      128.693       11.133        0.007      329.227       -4.173      859.650
12/20/2013  02:59:00      -38.933      107.679       -9.467       31.334       48.725       20.012      981.831     2374.142      400.489        0.848        0.188      114.501       16.221        0.020      329.217       -4.188      859.639
12/20/2013  03:00:00      -46.506       83.132       -7.917       37.572       34.830       29.318     1411.656     1213.118      859.549        0.631        0.174       95.256       27.827        0.085      329.158       -4.283      859.631
12/20/2013  03:01:00      -39.137      104.444      -12.472       33.859       46.166       21.171     1146.465     2131.309      448.226        0.816        0.186      111.536       17.629        0.025      329.345       -3.980      859.634
12/20/2013  03:02:00      -49.266      107.681      -13.791       30.997       44.674       20.612      960.816     1995.748      424.871        0.880        0.169      118.416       15.367        0.017      329.197       -4.221      859.637
12/20/2013  03:03:00      -55.710      106.706      -19.837       26.885       44.018       22.122      722.818     1937.555      489.377        0.902        0.157      120.373       16.715        0.019      329.232       -4.163      859.646
12/20/2013  03:04:00      -34.338       77.057      -10.429       35.062       33.644       22.296     1229.343     1131.921      497.108        0.504        0.143       84.362       19.535        0.054      329.215       -4.191      859.659
12/20/2013  03:05:00      -38.209       68.213       -9.770       19.893       40.945       18.949      395.740     1676.524      359.080        0.432        0.122       78.185       19.140        0.060      329.229       -4.169      859.670
12/20/2013  03:06:00      -61.880      131.999      -16.934       48.020       30.619       28.677     2305.947      937.540      822.394        1.280        0.203      145.784       16.760        0.013      329.181       -4.248      859.680
12/20/2013  03:07:00      -67.312       85.416      -22.573       31.328       53.523       25.891      981.455     2864.729      670.347        0.843        0.226      108.751       22.996        0.045      329.178       -4.252      859.703
12/20/2013  03:08:00      -79.286       99.011      -23.355       36.476       45.802       23.753     1330.499     2097.789      564.221        1.031        0.200      126.844       20.804        0.027      329.190       -4.232      859.736
12/20/2013  03:09:00      -90.109       80.311      -25.816       32.981       45.221       23.412     1087.769     2044.980      548.141        0.946        0.184      120.704       21.544        0.032      329.171       -4.263      859.778
12/20/2013  03:10:00      -87.678       83.544      -20.554       27.357       45.714       22.150      748.378     2089.726      490.612        0.921        0.166      121.107       24.907        0.042      329.188       -4.235      859.825
12/20/2013  03:11:00      -77.203       52.272      -15.153       29.805       42.033       17.708      888.320     1766.811      313.590        0.594        0.148       93.234       16.652        0.032      329.260       -4.116      859.888
12/20/2013  03:12:00      -79.706       75.961      -12.514       42.872       37.444       26.261     1837.966     1402.044      689.648        0.810        0.196      110.105       25.117        0.052      329.164       -4.276      859.938
12/20/2013  03:13:00      -95.851        7.604      -18.474       23.882       44.170       14.848      570.343     1951.026      220.450        0.616        0.137       96.152       11.054        0.013      329.141       -4.311      859.974
12/20/2013  03:14:00      -89.691        6.773      -18.609       24.512       36.534       27.220      600.841     1334.748      740.924        0.556        0.134       89.947       14.991        0.028      329.054       -4.454      860.009
12/20/2013  03:15:00      -71.338       16.210      -13.557       30.808       40.949       24.112      949.139     1676.787      581.402        0.437        0.160       73.157       19.146        0.068      329.070       -4.429      860.042
12/20/2013  03:16:00      -82.592       21.114      -12.009       29.131       22.286       15.414      848.591      496.667      237.598        0.450        0.079       85.248        5.936        0.005      329.119       -4.347      860.085
12/20/2013  03:17:00      -90.455       27.405      -11.517       37.618       24.055       25.386     1415.132      578.658      644.457        0.585        0.132       94.515       16.072        0.029      328.986       -4.567      860.130
12/20/2013  03:18:00     -111.277       31.272      -15.433       32.532       23.382       15.563     1058.335      546.709      242.195        0.772        0.092      115.588       13.844        0.014      328.990       -4.559      860.174
12/20/2013  03:19:00     -106.999       76.514      -25.220       32.908       42.805       22.248     1082.921     1832.283      494.972        1.067        0.171      131.541       19.871        0.023      329.023       -4.505      860.201
12/20/2013  03:20:00      -86.857       56.657      -10.721       38.443       35.144       20.283     1477.863     1235.100      411.418        0.700        0.156      103.702       12.207        0.014      329.034       -4.487      860.205
12/20/2013  03:21:00      -87.207       49.794      -12.644       40.392       36.409       24.111     1631.474     1325.585      581.335        0.689        0.177      100.422       21.749        0.047      329.037       -4.482      860.207
12/20/2013  03:22:00      -87.941       85.141      -21.847       44.988       43.668       30.497     2023.925     1906.855      930.051        1.016        0.243      122.404       22.518        0.034      329.004       -4.537      860.217
12/20/2013  03:23:00      -92.885      108.175      -25.060       43.692       54.252       33.285     1908.982     2943.230     1107.904        1.346        0.298      142.581       35.864        0.063      329.041       -4.475      860.216
12/20/2013  03:24:00      -72.284      129.750      -17.048       43.133       46.220       30.589     1860.469     2136.276      935.705        1.364        0.247      148.526       26.858        0.033      329.100       -4.379      860.213
12/20/2013  03:25:00      -67.205       80.120      -12.389       40.101       27.990       18.429     1608.105      783.463      339.628        0.691        0.137      104.573       13.389        0.016      329.131       -4.328      860.226
12/20/2013  03:26:00      -60.955       83.866      -16.669       34.256       36.610       21.040     1173.454     1340.319      442.667        0.699        0.148      103.678       13.637        0.017      329.090       -4.395      860.244
12/20/2013  03:27:00      -58.065       68.672      -15.595       42.280       34.576       25.896     1787.600     1195.486      670.625        0.599        0.183       89.930       19.323        0.046      329.101       -4.378      860.256
12/20/2013  03:28:00      -51.388       74.539      -12.805       30.122       33.507       15.288      907.324     1122.729      233.708        0.531        0.113       90.536       18.080        0.040      329.074       -4.423      860.263
12/20/2013  03:29:00      -52.946       58.401       -7.803       22.391       31.567       18.483      501.360      996.448      341.618        0.406        0.092       78.828       11.978        0.023      329.065       -4.436      860.255
12/20/2013  03:30:00      -49.945       13.133        1.627       38.438       17.798       18.137     1477.496      316.785      328.955        0.240        0.106       51.643       15.744        0.093      329.063       -4.439      860.239
12/20/2013  03:31:00      -43.290       48.878      -10.702       28.627       26.845       19.394      819.509      720.665      376.123        0.315        0.096       65.292       17.367        0.071      329.119       -4.348      860.241
12/20/2013  03:32:00      -32.806       53.335       -1.337       17.920       23.608       16.777      321.140      557.318      281.464        0.254        0.058       62.617       14.506        0.054      329.143       -4.309      860.268
12/20/2013  03:33:00      -63.227       13.685       -7.388       17.182       29.622       13.335      295.219      877.448      177.822        0.279        0.068       64.691        8.363        0.017      329.199       -4.218      860.325
12/20/2013  03:34:00      -67.564       83.573      -22.462       32.772       41.566       20.726     1073.990     1727.753      429.548        0.764        0.162      107.468       16.755        0.024      329.170       -4.265      860.376
12/20/2013  03:35:00      -72.517       27.878      -19.773       25.431       26.360       13.684      646.745      694.835      187.258        0.398        0.076       77.691       12.449        0.026      329.149       -4.299      860.392
12/20/2013  03:36:00      -61.383       28.317      -12.301       38.366       19.616       17.178     1471.953      384.781      295.082        0.344        0.108       67.600       10.046        0.022      329.057       -4.450      860.395
12/20/2013  03:37:00      -43.321       21.093       -8.995       30.941       34.087       16.389      957.375     1161.904      268.595        0.239        0.119       48.184       19.125        0.158      329.115       -4.356      860.377
12/20/2013  03:38:00      -76.352       21.726      -14.330       21.261       23.729       17.640      452.034      563.048      311.185        0.392        0.066       79.383       14.011        0.031      329.156       -4.288      860.358
12/20/2013  03:39:00      -60.013       41.885      -20.757       30.392       32.491       20.713      923.693     1055.675      429.030        0.410        0.120       73.184       15.826        0.047      329.186       -4.240      860.359
12/20/2013  03:40:00      -60.279       46.189      -12.047       25.939       34.806       14.548      672.828     1211.489      211.648        0.400        0.105       75.941       14.954        0.039      329.220       -4.184      860.379
12/20/2013  03:41:00      -57.992       15.786       -8.740       23.331       20.177       16.499      544.331      407.097      272.232        0.246        0.061       60.102       11.051        0.034      329.169       -4.267      860.390
12/20/2013  03:42:00      -55.316       28.082       -7.426       26.865       20.925       13.135      721.752      437.875      172.516        0.262        0.067       62.036        9.973        0.026      329.208       -4.203      860.395
12/20/2013  03:43:00      -57.326       21.600       -9.567       18.218       21.432       13.321      331.908      459.324      177.453        0.241        0.048       61.261       10.336        0.028      329.142       -4.310      860.412
12/20/2013  03:44:00      -56.477       21.602      -17.299       30.132       38.893       17.654      907.944     1512.681      311.663        0.334        0.137       60.467       17.879        0.087      329.141       -4.312      860.429
12/20/2013  03:45:00      -67.617       -2.465      -15.142       20.420       30.639       17.205      416.988      938.760      296.020        0.323        0.083       67.662       12.754        0.036      329.114       -4.357      860.439
12/20/2013  03:46:00      -26.251       17.609       -5.239       23.790       19.088        8.069      565.947      364.369       65.111        0.101        0.050       31.610        9.368        0.088      329.186       -4.237      860.468
12/20/2013  03:47:00      -37.203       15.388       -8.882       12.520       15.628       15.782      156.741      244.220      249.058        0.117        0.033       40.260        9.059        0.051      329.141       -4.312      860.503
12/20/2013  03:48:00      -70.457       54.574      -18.663       29.721       46.629       21.682      883.363     2174.299      470.105        0.591        0.176       89.121       20.724        0.054      329.130       -4.329      860.538
12/20/2013  03:49:00      -62.045       82.421      -14.094       34.091       44.665       20.922     1162.218     1994.989      437.743        0.722        0.180      103.164       21.493        0.043      329.059       -4.447      860.559
12/20/2013  03:50:00      -68.350       42.074      -10.290       35.134       31.423       20.138     1234.400      987.387      405.548        0.459        0.131       80.261       17.746        0.049      329.111       -4.362      860.563
12/20/2013  03:51:00      -65.421       16.516      -13.697       21.980       22.968       18.131      483.110      527.530      328.738        0.304        0.067       67.473       15.243        0.051      329.098       -4.382      860.553
12/20/2013  03:52:00      -93.473       36.411      -15.663       31.353       27.456       17.068      983.037      753.813      291.307        0.617        0.101      100.314        9.944        0.010      329.144       -4.308      860.532
12/20/2013  03:53:00      -45.690       20.349      -10.005       21.697       24.543       19.752      470.770      602.365      390.161        0.203        0.073       50.016       14.619        0.085      329.216       -4.189      860.510
12/20/2013  03:54:00      -54.404      -16.250      -10.666       19.772       18.317       10.428      390.915      335.503      108.736        0.209        0.042       56.779       10.676        0.035      329.064       -4.437      860.505
12/20/2013  03:55:00      -81.232      -27.257       -9.089       12.983       14.569        8.134      168.571      212.244       66.165        0.394        0.022       85.683        4.720        0.003      328.964       -4.602      860.509
12/20/2013  03:56:00      -74.890      -22.741       -9.074        8.304       11.021        6.824       68.956      121.473       46.566        0.322        0.012       78.267        3.053        0.002      328.936       -4.648      860.507
12/20/2013  03:57:00      -60.686      -24.908       -3.367       17.186       16.066       11.510      295.344      258.124      132.471        0.250        0.034       65.599        7.439        0.013      328.947       -4.628      860.499
12/20/2013  03:58:00      -78.736      -22.402       -9.539       12.676       10.493        8.361      160.691      110.111       69.902        0.357        0.017       81.861        6.800        0.007      328.903       -4.701      860.468
12/20/2013  03:59:00      -65.375      -36.930       -7.204       19.905       11.444       10.669      396.228      130.959      113.837        0.317        0.032       75.085       10.347        0.019      328.897       -4.711      860.447
12/20/2013  04:00:00      -68.036      -20.330       -4.220       15.322       15.507       12.418      234.764      240.478      154.213        0.284        0.031       71.008        8.305        0.014      328.812       -4.849      860.454
12/20/2013  04:01:00      -87.250      -50.913       -4.228       17.045       15.294       13.265      290.539      233.894      175.954        0.546        0.035      101.019       10.122        0.010      328.790       -4.885      860.480
12/20/2013  04:02:00      -86.173      -46.629       -5.831       27.403       19.512       15.794      750.948      380.733      249.455        0.551        0.069       97.980       15.651        0.026      328.783       -4.896      860.502
12/20/2013  04:03:00      -57.180      -43.510       -1.431       51.075       25.305       19.740     2608.623      640.321      389.657        0.440        0.182       71.851       18.252        0.065      328.749       -4.951      860.535
12/20/2013  04:04:00     -135.569      -67.537      -14.256       21.287       22.360       16.070      453.131      499.963      258.255        1.218        0.061      151.460       10.407        0.005      328.661       -5.095      860.552
12/20/2013  04:05:00     -103.577      -51.023      -15.338       23.747       18.348       14.482      563.910      336.657      209.726        0.734        0.056      115.463       11.982        0.011      328.602       -5.189      860.544
12/20/2013  04:06:00      -93.181      -48.346      -15.850       17.536       18.257       15.757      307.504      333.336      248.286        0.608        0.044      104.976       10.663        0.010      328.637       -5.135      860.519
12/20/2013  04:07:00      -95.272      -29.192       -0.641       22.294       26.390       13.263      497.028      696.417      175.917        0.565        0.068       99.644       10.607        0.011      328.696       -5.038      860.493
12/20/2013  04:08:00      -97.992      -36.310       -5.920       39.961       18.525       14.147     1596.846      343.193      200.125        0.655        0.107      104.503       11.132        0.011      328.656       -5.104      860.483
12/20/2013  04:09:00      -28.627      -28.108       15.654       37.457       31.845       19.336     1403.060     1014.083      373.876        0.232        0.140       40.119       19.163        0.228      328.627       -5.151      860.482
12/20/2013  04:10:00      -67.262      -44.234        2.245       48.175       35.873       20.162     2320.833     1286.860      406.498        0.525        0.201       80.503       18.742        0.054      328.586       -5.217      860.469
12/20/2013  04:11:00      -89.614      -46.715        0.121       28.330       25.207       17.146      802.598      635.391      293.970        0.597        0.087      101.059       14.550        0.021      328.597       -5.199      860.449
12/20/2013  04:12:00      -86.723      -57.110       -1.948       54.345       32.763       29.876     2953.370     1073.391      892.590        0.785        0.246      103.839       27.980        0.073      328.586       -5.218      860.433
12/20/2013  04:13:00      -95.030      -46.781        4.753       40.400       23.696       19.358     1632.138      561.485      374.736        0.690        0.128      105.921       16.341        0.024      328.469       -5.408      860.416
12/20/2013  04:14:00      -87.364      -51.827       -0.314       58.660       28.722       27.060     3441.013      824.955      732.257        0.766        0.250      101.580       22.402        0.049      328.514       -5.334      860.386
12/20/2013  04:15:00      -60.565      -41.425        7.033       45.146       30.999       24.580     2038.194      960.910      604.172        0.452        0.180       73.377       25.154        0.118      328.512       -5.339      860.356
12/20/2013  04:16:00     -107.831      -58.106        0.742       54.279       42.910       26.983     2946.240     1841.254      728.085        1.026        0.276      122.490       32.131        0.069      328.484       -5.384      860.335
12/20/2013  04:17:00     -104.916      -72.531       -4.759       35.407       38.643       26.186     1253.689     1493.245      685.726        0.986        0.172      127.547       21.773        0.029      328.534       -5.301      860.329
12/20/2013  04:18:00      -95.194      -89.779      -11.097       54.229       36.959       30.133     2940.744     1365.949      908.014        1.123        0.261      130.851       32.096        0.060      328.558       -5.264      860.327
12/20/2013  04:19:00      -94.292      -52.441       -5.876       49.865       31.318       22.546     2486.477      980.810      508.342        0.782        0.199      107.894       23.969        0.049      328.510       -5.340      860.317
12/20/2013  04:20:00      -97.670      -19.809       -4.906       42.215       29.444       18.862     1782.131      866.932      355.765        0.648        0.150       99.659       23.306        0.055      328.528       -5.314      860.310
12/20/2013  04:21:00      -69.879      -18.109       -4.780       29.141       19.227       16.623      849.188      369.685      276.321        0.336        0.075       72.188       17.463        0.059      328.455       -5.432      860.278
12/20/2013  04:22:00      -83.354        3.193        3.215       36.421       20.656       13.485     1326.474      426.667      181.842        0.445        0.097       83.415       10.891        0.017      328.473       -5.402      860.232
12/20/2013  04:23:00      -99.816      -16.993      -10.425       27.149       22.574       15.716      737.076      509.569      246.990        0.593        0.075      101.252       15.189        0.023      328.505       -5.351      860.186
12/20/2013  04:24:00      -87.159      -11.643       -8.990       24.705       20.730       14.472      610.353      429.714      209.433        0.453        0.062       87.933       11.600        0.017      328.491       -5.373      860.166
12/20/2013  04:25:00     -124.312      -23.190      -14.783       16.924       22.844       14.639      286.437      521.853      214.311        0.862        0.051      126.456        9.616        0.006      328.472       -5.403      860.164
12/20/2013  04:26:00      -92.266      -49.951       -4.965       36.333       25.040       14.418     1320.062      627.008      207.865        0.659        0.108      104.920        9.062        0.007      328.600       -5.195      860.159
12/20/2013  04:27:00      -88.317      -40.585       -8.414       47.449       22.572       20.610     2251.448      509.510      424.762        0.635        0.159       97.196       20.242        0.043      328.537       -5.298      860.139
12/20/2013  04:28:00      -99.994      -56.097       -9.905       30.262       21.141       15.057      915.785      446.949      226.706        0.742        0.079      114.654       14.608        0.016      328.563       -5.255      860.137
12/20/2013  04:29:00      -84.166      -25.096       -6.935       48.956       25.127       23.121     2396.657      631.350      534.600        0.566        0.178       87.827       28.787        0.107      328.528       -5.313      860.145
12/20/2013  04:30:00     -101.772      -24.151       -5.348       21.967       25.245       15.430      482.570      637.325      238.082        0.616        0.068      104.599        9.467        0.008      328.484       -5.385      860.165
12/20/2013  04:31:00     -105.823      -21.788        4.309       30.323       22.668       14.586      919.466      513.838      212.753        0.667        0.082      108.042       13.292        0.015      328.487       -5.378      860.185
12/20/2013  04:32:00     -110.091      -41.995       -0.065       25.520       28.522       14.719      651.293      813.508      216.649        0.778        0.084      117.828       16.078        0.019      328.482       -5.387      860.180
12/20/2013  04:33:00     -107.320      -43.622       -4.056       19.906       23.855       14.459      396.237      569.042      209.062        0.731        0.059      115.847       11.714        0.010      328.488       -5.378      860.168
12/20/2013  04:34:00     -108.485      -37.765       -4.660       22.380       18.545       15.039      500.857      343.925      226.168        0.714        0.054      114.870       12.217        0.011      328.472       -5.404      860.145
12/20/2013  04:35:00     -115.804      -27.347       -9.692       31.890       27.614       17.445     1017.003      762.529      304.337        0.817        0.104      118.989       19.057        0.026      328.483       -5.384      860.115
12/20/2013  04:36:00     -125.785      -32.603       -8.423       31.006       23.078       20.675      961.355      532.609      427.470        0.944        0.096      129.942       17.752        0.019      328.517       -5.331      860.097
12/20/2013  04:37:00      -89.635      -36.081       -1.050       43.165       25.517       19.835     1863.199      651.119      393.416        0.612        0.145       96.624       21.690        0.050      328.507       -5.347      860.095
12/20/2013  04:38:00      -99.814      -26.938       -2.828       32.206       27.692       16.992     1037.254      766.856      288.717        0.639        0.105      103.385       15.057        0.021      328.480       -5.391      860.103
12/20/2013  04:39:00      -72.503      -29.585        1.141       31.986       21.723       14.207     1023.081      471.872      201.846        0.391        0.085       78.307       12.808        0.027      328.542       -5.290      860.127
12/20/2013  04:40:00      -83.388      -41.206        2.919       28.782       33.583       16.668      828.412     1127.794      277.837        0.545        0.112       93.014        9.523        0.010      328.520       -5.325      860.148
12/20/2013  04:41:00      -61.581       -8.975       -0.797       30.947       25.262       15.415      957.732      638.192      237.619        0.285        0.092       62.232       14.054        0.051      328.490       -5.376      860.157
12/20/2013  04:42:00      -73.812      -28.374        1.721       26.129       20.297       11.324      682.732      411.972      128.243        0.374        0.061       79.078       12.016        0.023      328.498       -5.361      860.150
12/20/2013  04:43:00      -16.734      -20.081       11.485       25.879       18.072       12.263      669.746      326.604      150.371        0.098        0.057       26.140       15.411        0.348      328.596       -5.201      860.125
12/20/2013  04:44:00      -12.554      -18.557        3.850       17.983       13.309       11.286      323.370      177.141      127.379        0.057        0.031       22.405       12.000        0.287      328.607       -5.184      860.110
12/20/2013  04:45:00      -30.479       -8.748       -0.653       15.667       17.510       11.373      245.451      306.585      129.345        0.084        0.034       31.710       11.557        0.133      328.571       -5.242      860.109
12/20/2013  04:46:00      -43.305       -7.659        3.974       12.921       14.302        8.738      166.945      204.561       76.356        0.120        0.022       43.977        7.642        0.030      328.537       -5.299      860.114
12/20/2013  04:47:00      -15.277        4.734        6.495        9.379        9.117        6.424       87.964       83.116       41.273        0.026        0.011       15.994        6.061        0.144      328.490       -5.374      860.114
12/20/2013  04:48:00        9.866        2.398       15.862       16.019        7.083        8.025      256.598       50.162       64.407        0.036        0.019       10.153        7.410        0.533      328.362       -5.583      860.109
12/20/2013  04:49:00       33.987       17.228        4.633        7.073        8.197        7.655       50.024       67.190       58.606        0.082        0.009       38.104        3.941        0.011      328.192       -5.862      860.110
12/20/2013  04:50:00       34.396       16.931        9.832        8.724        8.992       12.303       76.117       80.854      151.362        0.094        0.015       38.337        3.643        0.009      328.133       -5.958      860.123
12/20/2013  04:51:00       32.897       28.349       22.308       19.009       12.003       13.948      361.331      144.071      194.537        0.154        0.035       43.427        8.460        0.038      328.017       -6.143      860.136
12/20/2013  04:52:00       56.728       35.895       27.062       24.871       19.033       23.505      618.591      362.249      552.462        0.339        0.077       67.131       11.997        0.032      327.956       -6.245      860.137
12/20/2013  04:53:00       95.428       54.586       12.637       16.028       12.294       16.994      256.889      151.151      288.780        0.647        0.035      109.937        6.764        0.004      327.835       -6.441      860.137
12/20/2013  04:54:00       71.310       54.422       22.841       15.025       12.743       14.627      225.753      162.393      213.948        0.459        0.030       89.705       10.044        0.013      327.783       -6.527      860.132
12/20/2013  04:55:00       70.596       45.089       15.904       26.319       13.928       14.456      692.676      193.995      208.970        0.418        0.055       83.767        4.996        0.004      327.830       -6.450      860.127
12/20/2013  04:56:00       64.811       37.343        5.706       12.076       13.290       10.648      145.836      176.613      113.380        0.303        0.022       74.799        7.806        0.011      327.914       -6.312      860.132
12/20/2013  04:57:00       32.242       19.574        1.591       16.930       14.066       14.088      286.618      197.853      198.468        0.105        0.034       37.719        9.302        0.061      327.993       -6.184      860.168
12/20/2013  04:58:00       27.783        8.741       -2.160       13.437       10.818       10.184      180.553      117.029      103.720        0.063        0.020       29.125        9.881        0.115      328.038       -6.110      860.192
12/20/2013  04:59:00       30.445       17.548        6.415       13.087       10.087        9.107      171.260      101.746       82.944        0.082        0.018       35.140        4.593        0.017      328.098       -6.014      860.203
12/20/2013  05:00:00       49.238       29.733        9.148        7.896        8.442        8.389       62.352       71.265       70.370        0.180        0.010       57.519        1.245        0.000      328.140       -5.946      860.201
12/20/2013  05:01:00       44.168       31.234        9.533       10.008        8.493       11.079      100.165       72.123      122.742        0.166        0.015       54.096        6.764        0.016      328.071       -6.057      860.200
12/20/2013  05:02:00       34.220       24.881        9.635       12.299        9.270        8.855      151.261       85.942       78.413        0.110        0.016       42.309        7.747        0.034      328.017       -6.145      860.203
12/20/2013  05:03:00       23.424       26.136       12.564       10.972        7.840        7.476      120.378       61.473       55.888        0.081        0.012       35.097        3.096        0.008      328.074       -6.052      860.222
12/20/2013  05:04:00        4.311       21.475        3.679       19.107        8.406       10.217      365.071       70.665      104.390        0.052        0.027       21.903        8.216        0.141      328.068       -6.062      860.248
12/20/2013  05:05:00      -44.192       13.551       -6.498       23.097        9.442        7.796      533.469       89.148       60.776        0.143        0.034       46.223        7.084        0.023      328.001       -6.170      860.294
12/20/2013  05:06:00      -64.281       14.446       -6.874       11.491        8.571        9.188      132.051       73.463       84.413        0.234        0.014       65.884        4.684        0.005      327.981       -6.206      860.351
12/20/2013  05:07:00      -78.506       22.959      -13.722       12.221        9.560        9.435      149.347       91.394       89.026        0.360        0.016       81.795        3.588        0.002      328.068       -6.061      860.403
12/20/2013  05:08:00      -58.631       15.066      -10.286       13.001       12.069        9.383      169.021      145.669       88.049        0.209        0.020       60.536        7.708        0.016      328.126       -5.968      860.418
12/20/2013  05:09:00      -42.082       10.747       -1.171       15.288       11.699       10.981      233.718      136.867      120.580        0.119        0.025       43.433        9.495        0.048      328.070       -6.058      860.408
12/20/2013  05:10:00      -48.603       10.875       -4.360       10.939       12.646       10.504      119.672      159.922      110.330        0.144        0.019       49.805        8.615        0.030      328.156       -5.920      860.388
12/20/2013  05:11:00      -28.908       18.077       -1.322       18.769       10.706        7.923      352.268      114.611       62.775        0.085        0.026       34.094       10.075        0.087      328.206       -5.837      860.390
12/20/2013  05:12:00       26.601       31.817        9.169       16.661       16.851        8.274      277.599      283.946       68.466        0.122        0.032       41.472        5.796        0.020      328.237       -5.785      860.408
12/20/2013  05:13:00       40.960       32.415        0.624       17.616       19.519       16.801      310.322      381.002      282.279        0.185        0.049       52.235       12.092        0.054      328.097       -6.015      860.422
12/20/2013  05:14:00       36.234       13.798        1.232       14.062       12.121       12.105      197.740      146.921      146.528        0.100        0.025       38.772        4.377        0.013      328.008       -6.159      860.408
12/20/2013  05:15:00       35.172       21.366        1.055       10.537       12.792       12.637      111.030      163.623      159.694        0.106        0.022       41.153        4.839        0.014      328.031       -6.121      860.370
12/20/2013  05:16:00       41.668       22.854        2.334       11.771        9.397       13.706      138.551       88.300      187.853        0.134        0.021       47.524        4.966        0.011      328.038       -6.111      860.327
12/20/2013  05:17:00       61.020       19.882        2.018       14.143       10.589       12.465      200.013      112.122      155.379        0.230        0.023       64.177        6.752        0.011      328.018       -6.144      860.303
12/20/2013  05:18:00       56.666       26.189       16.119       24.153       14.145       15.828      583.359      200.094      250.531        0.260        0.052       62.425       12.868        0.042      327.997       -6.176      860.292
12/20/2013  05:19:00       77.863       51.825       28.242       36.847       17.163       20.409     1357.694      294.565      416.512        0.581        0.103       93.533       20.479        0.048      327.939       -6.271      860.299
12/20/2013  05:20:00       84.150       39.516        8.008       21.908       14.090       18.292      479.949      198.520      334.601        0.486        0.051       92.967        8.780        0.009      327.923       -6.296      860.288
12/20/2013  05:21:00       62.476       47.963       20.109       22.442       13.713       17.654      503.632      188.051      311.657        0.381        0.050       78.763        8.175        0.011      327.970       -6.220      860.260
12/20/2013  05:22:00       43.779       17.387       24.081       25.091       21.351       19.696      629.538      455.886      387.923        0.214        0.074       47.105       14.399        0.093      327.961       -6.237      860.265
12/20/2013  05:23:00       59.141       45.980       27.134       35.408       23.949       22.606     1253.710      573.568      511.028        0.434        0.117       74.911       23.110        0.095      327.929       -6.288      860.266
12/20/2013  05:24:00       53.659       45.311       25.576       31.101       16.440       21.800      967.253      270.274      475.221        0.365        0.086       70.231       20.613        0.086      327.906       -6.325      860.295
12/20/2013  05:25:00       52.653       41.479       15.370       21.276       13.775       16.409      452.688      189.750      269.244        0.282        0.046       67.029       11.718        0.031      327.845       -6.425      860.311
12/20/2013  05:26:00       96.414       50.422        7.599       18.648       21.159       16.638      347.755      447.697      276.823        0.648        0.054      108.803       10.663        0.010      327.828       -6.454      860.308
12/20/2013  05:27:00       71.702       44.580        7.699       28.733       15.610       15.684      825.575      243.677      245.995        0.425        0.066       84.431       13.833        0.027      327.789       -6.516      860.331
12/20/2013  05:28:00       70.335       39.220        6.297       21.363       18.665       16.262      456.364      348.379      264.452        0.380        0.053       80.531        6.630        0.007      327.771       -6.547      860.374
12/20/2013  05:29:00       66.203       34.421        2.902       16.688       16.552       12.773      278.474      273.956      163.147        0.315        0.036       74.617        8.444        0.013      327.823       -6.460      860.389
12/20/2013  05:30:00       66.085       55.668        7.099       20.565       19.892       16.191      422.938      395.702      262.152        0.430        0.054       86.406       10.867        0.016      327.779       -6.534      860.370
12/20/2013  05:31:00       84.170       45.936        6.864       25.666       29.653       22.988      658.737      879.330      528.440        0.565        0.103       95.889       14.764        0.024      327.822       -6.463      860.322
12/20/2013  05:32:00       42.445       30.401       30.470       27.635       25.571       17.728      763.714      653.879      314.294        0.269        0.087       52.210       12.500        0.057      327.870       -6.385      860.269
12/20/2013  05:33:00       34.286       37.420       46.145       21.074       17.243       17.206      444.103      297.305      296.041        0.287        0.052       50.752        6.766        0.018      327.781       -6.529      860.230
12/20/2013  05:34:00       44.354       39.855       25.540       20.108       13.706       18.859      404.314      187.849      355.655        0.258        0.047       59.629       13.729        0.053      327.757       -6.569      860.201
12/20/2013  05:35:00       46.969       43.465       25.639       21.357       12.542       12.890      456.101      157.314      166.143        0.277        0.039       63.994        5.412        0.007      327.728       -6.616      860.192
12/20/2013  05:36:00       59.831       43.449       19.828       16.078       17.623       14.625      258.505      310.565      213.876        0.332        0.039       73.943        9.649        0.017      327.702       -6.659      860.207
12/20/2013  05:37:00       70.523       33.784        2.500       15.246       10.655       12.683      232.443      113.536      160.863        0.331        0.025       78.198        6.734        0.007      327.695       -6.670      860.220
12/20/2013  05:38:00       46.441       31.434       22.633       22.443       19.322       14.796      503.700      373.327      218.928        0.238        0.055       56.080        7.909        0.020      327.773       -6.542      860.213
12/20/2013  05:39:00       26.676       25.230       21.767       24.869       14.076       11.919      618.489      198.128      142.069        0.139        0.048       36.717       13.664        0.138      327.714       -6.639      860.205
12/20/2013  05:40:00        3.577       13.786       24.771       10.000       12.232        6.400       99.994      149.628       40.958        0.055        0.015       14.243        6.043        0.180      327.719       -6.630      860.199
12/20/2013  05:41:00       -3.863        1.142       14.448        5.947        9.320        4.338       35.361       86.866       18.815        0.018        0.007        4.028        1.782        0.196      327.754       -6.574      860.179
12/20/2013  05:42:00       12.642       18.050       10.378        8.082        8.428       10.705       65.316       71.039      114.605        0.042        0.013       22.037        7.392        0.113      327.676       -6.700      860.149
12/20/2013  05:43:00       17.277       11.253       -2.974        8.058        5.021        5.634       64.936       25.209       31.744        0.028        0.006       20.619        5.530        0.072      327.662       -6.724      860.138
12/20/2013  05:44:00      -26.829       -6.868       -4.311       28.596       17.141        7.646      817.739      293.821       58.468        0.098        0.059       27.694        5.673        0.042      327.666       -6.717      860.133
12/20/2013  05:45:00      -61.375      -21.197        2.332       23.025       17.909       11.341      530.151      320.731      128.611        0.260        0.049       64.932        9.388        0.021      327.664       -6.718      860.143
12/20/2013  05:46:00      -90.331        4.852       -8.745       25.772       14.307       14.149      664.213      204.679      200.201        0.466        0.053       90.461       12.848        0.020      327.511       -6.969      860.172
12/20/2013  05:47:00     -112.667        0.810      -12.174       29.702       15.292       13.393      882.189      233.848      179.369        0.707        0.065      112.670       11.599        0.011      327.498       -6.990      860.212
12/20/2013  05:48:00      -99.822       18.513       -8.193       34.871       23.551       16.008     1215.992      554.656      256.240        0.620        0.101      101.524       15.072        0.022      327.460       -7.052      860.262
12/20/2013  05:49:00      -81.157       18.107       -9.584       21.803       19.884       15.757      475.372      395.376      248.298        0.406        0.056       83.153       13.200        0.025      327.484       -7.014      860.283
12/20/2013  05:50:00      -77.639        7.927      -10.953       24.808       18.485       12.690      615.414      341.686      161.032        0.366        0.056       78.042       14.149        0.033      327.530       -6.938      860.254
12/20/2013  05:51:00      -67.149        4.652       -7.267       27.460       22.439       11.632      754.045      503.526      135.300        0.299        0.070       67.310        7.134        0.011      327.447       -7.073      860.198
12/20/2013  05:52:00      -88.584      -22.097       -8.056       18.892       20.275       12.834      356.895      411.069      164.719        0.467        0.047       91.298        9.650        0.011      327.488       -7.006      860.138
12/20/2013  05:53:00      -80.566      -21.379       -1.487       29.659       32.021       18.330      879.677     1025.317      335.985        0.460        0.112       83.354       19.056        0.052      327.519       -6.955      860.117
12/20/2013  05:54:00      -67.249       -9.680       -1.961       32.485       22.939       18.687     1055.253      526.198      349.202        0.328        0.097       67.943       20.738        0.093      327.448       -7.070      860.130
12/20/2013  05:55:00     -103.850      -17.588       -6.567       26.060       20.184       12.206      679.109      407.405      148.989        0.619        0.062      105.329       11.836        0.013      327.398       -7.152      860.152
12/20/2013  05:56:00      -73.209      -17.671        2.196       35.281       20.708       18.530     1244.751      428.810      343.359        0.385        0.101       75.311       18.791        0.062      327.369       -7.201      860.160
12/20/2013  05:57:00      -69.299      -19.099        5.411       31.272       23.677       15.453      977.949      560.607      238.805        0.349        0.089       71.883       15.073        0.044      327.431       -7.099      860.183
12/20/2013  05:58:00     -114.515        2.822       -4.249       40.975       19.878       15.497     1678.947      395.149      240.156        0.773        0.116      114.550       18.023        0.025      327.384       -7.174      860.241
12/20/2013  05:59:00      -97.524        3.538       -3.894       32.961       21.933       18.511     1086.446      481.043      342.669        0.572        0.096       97.588       16.496        0.029      327.410       -7.132      860.328
12/20/2013  06:00:00     -112.933       19.588      -14.389       26.399       20.652       18.153      696.907      426.523      329.516        0.740        0.073      114.619       12.375        0.012      327.417       -7.122      860.395
12/20/2013  06:01:00     -105.048       26.751       -8.355       31.929       24.505       13.965     1019.474      600.508      195.020        0.682        0.091      108.400       13.288        0.015      327.391       -7.164      860.441
12/20/2013  06:02:00      -97.244      -10.855       -7.919       22.996       29.176       16.099      528.813      851.266      259.177        0.564        0.082       97.848       11.164        0.013      327.397       -7.152      860.468
12/20/2013  06:03:00     -120.291       17.801      -12.816       24.888       25.449       14.594      619.405      647.659      212.996        0.822        0.074      121.601       12.796        0.011      327.433       -7.096      860.498
12/20/2013  06:04:00     -102.161       14.114      -12.004       32.111       20.025       14.132     1031.133      401.006      199.709        0.621        0.082      103.131       11.033        0.011      327.405       -7.141      860.536
12/20/2013  06:05:00     -116.414        6.134       -9.556       24.899       22.505       14.420      619.977      506.487      207.936        0.751        0.067      116.576        9.247        0.006      327.368       -7.200      860.567
12/20/2013  06:06:00     -110.389        3.075      -11.352       31.236       29.430       21.728      975.686      866.129      472.106        0.732        0.116      110.432       18.720        0.029      327.315       -7.286      860.559
12/20/2013  06:07:00     -101.207       21.803       -5.647       43.252       32.302       25.852     1870.706     1043.437      668.319        0.717        0.179      103.529       15.050        0.021      327.274       -7.353      860.542
12/20/2013  06:08:00     -131.688       57.924       -9.721       42.583       21.262       16.651     1813.353      452.065      277.266        1.167        0.127      143.864        8.619        0.004      327.361       -7.211      860.514
12/20/2013  06:09:00      -84.352       43.185      -11.299       19.166       14.203       15.581      367.324      201.723      242.763        0.496        0.041       94.764        8.754        0.009      327.419       -7.118      860.452
12/20/2013  06:10:00      -70.627       37.266      -11.273       14.893       14.579        9.536      221.806      212.533       90.938        0.351        0.026       79.855        5.392        0.005      327.508       -6.975      860.370
12/20/2013  06:11:00      -46.314       -9.623       -7.769       15.303       19.704        9.897      234.183      388.238       97.944        0.151        0.036       47.304        7.044        0.022      327.541       -6.921      860.316
12/20/2013  06:12:00      -43.375      -22.301       -6.601       12.151       13.609       10.356      147.648      185.206      107.252        0.143        0.022       48.772        3.380        0.005      327.556       -6.894      860.312
12/20/2013  06:13:00      -57.048      -19.275       -8.183       15.148       16.034        9.523      229.473      257.096       90.690        0.213        0.029       60.216        4.321        0.005      327.476       -7.026      860.303
12/20/2013  06:14:00      -89.183      -21.063       -8.629       16.746       11.439        8.067      280.421      130.849       65.072        0.447        0.024       91.636        3.894        0.002      327.394       -7.160      860.280
12/20/2013  06:15:00      -56.410      -21.257       -9.978       18.875       16.105        9.317      356.258      259.359       86.807        0.222        0.035       60.282        8.839        0.022      327.387       -7.169      860.261
12/20/2013  06:16:00      -72.054      -28.865       -8.855       16.192       13.035        9.554      262.179      169.903       91.277        0.331        0.026       77.621        5.751        0.005      327.418       -7.120      860.232
12/20/2013  06:17:00      -66.556      -31.841      -10.493       15.485       14.446       10.860      239.779      208.688      117.945        0.306        0.028       73.780        7.754        0.011      327.425       -7.107      860.211
12/20/2013  06:18:00      -36.881      -23.016      -14.303       24.823       10.726        9.991      616.170      115.044       99.818        0.146        0.042       43.473       11.339        0.068      327.432       -7.096      860.205
12/20/2013  06:19:00      -44.111      -16.310       -9.793       13.080       10.863        7.653      171.088      118.010       58.575        0.133        0.017       47.030        6.725        0.020      327.402       -7.146      860.207
12/20/2013  06:20:00      -67.034      -13.014       -9.370       25.159       12.746       10.244      632.952      162.468      104.931        0.283        0.045       68.286        7.075        0.011      327.354       -7.223      860.240
12/20/2013  06:21:00     -106.268       -6.498      -15.252       19.032       13.825       12.470      362.231      191.135      155.493        0.614        0.035      106.467        9.036        0.007      327.279       -7.345      860.291
12/20/2013  06:22:00     -111.393       -5.005      -16.722       19.122       14.510       11.714      365.656      210.537      137.210        0.671        0.036      111.505        5.084        0.002      327.315       -7.286      860.343
12/20/2013  06:23:00      -48.133      -21.443       -1.639       22.413       22.395       13.862      502.359      501.520      192.146        0.199        0.060       52.694        9.242        0.031      327.247       -7.398      860.400
12/20/2013  06:24:00      -37.256      -12.093       -3.941       20.713       19.067       12.634      429.028      363.552      159.613        0.125        0.048       39.169        9.077        0.054      327.259       -7.378      860.433
12/20/2013  06:25:00      -46.470        5.527       -8.947       41.094       24.985       18.787     1688.700      624.239      352.944        0.247        0.133       46.797       22.686        0.235      327.293       -7.323      860.446
12/20/2013  06:26:00      -61.726       -8.498       -5.072       28.685       29.514       18.380      822.818      871.065      337.823        0.297        0.102       62.309       15.173        0.059      327.222       -7.438      860.428
12/20/2013  06:27:00      -49.750      -35.617      -10.186       27.102       21.735       16.533      734.543      472.422      273.354        0.266        0.074       61.185       13.599        0.049      327.245       -7.400      860.419
12/20/2013  06:28:00      -14.039      -24.764        2.312       26.313       13.712       15.390      692.360      188.027      236.839        0.097        0.056       28.467        8.370        0.086      327.273       -7.355      860.396
12/20/2013  06:29:00      -43.856      -17.424      -12.276       26.130       12.347       11.392      682.798      152.440      129.773        0.167        0.048       47.191        5.922        0.016      327.199       -7.476      860.358
12/20/2013  06:30:00      -43.969       -9.673       -8.092       17.758       10.842       11.503      315.361      117.547      132.327        0.133        0.028       45.021       10.771        0.057      327.227       -7.430      860.312
12/20/2013  06:31:00      -54.353      -12.372      -13.339        8.869       13.182        7.481       78.652      173.760       55.971        0.180        0.015       55.744        7.006        0.016      327.273       -7.356      860.286
12/20/2013  06:32:00      -66.655      -19.534       -6.086       16.120       14.928       12.787      259.839      222.848      163.506        0.275        0.032       69.458        8.989        0.017      327.234       -7.419      860.292
12/20/2013  06:33:00      -56.668       -6.859      -10.029       17.860       11.514        8.856      318.977      132.580       78.434        0.194        0.026       57.081        7.711        0.018      327.167       -7.526      860.308
12/20/2013  06:34:00      -53.123      -26.739       -7.921       11.181       10.914       10.565      125.022      119.121      111.614        0.198        0.018       59.473        4.089        0.005      327.171       -7.520      860.330
12/20/2013  06:35:00      -30.323      -10.329       -4.558       13.920        7.733        5.850      193.775       59.802       34.219        0.067        0.014       32.033        1.709        0.003      327.108       -7.622      860.340
12/20/2013  06:36:00      -11.392      -11.418       -4.935       12.690        8.157        4.780      161.046       66.543       22.847        0.027        0.013       16.130        2.600        0.026      327.271       -7.357      860.351
12/20/2013  06:37:00      -23.217       -7.072       -7.053       11.859        7.053        7.398      140.626       49.740       54.724        0.044        0.012       24.270        6.643        0.075      327.321       -7.277      860.382
12/20/2013  06:38:00      -42.230       -8.357       -8.852       16.816       10.253        5.853      282.778      105.123       34.263        0.118        0.021       43.049        3.799        0.008      327.462       -7.049      860.433
12/20/2013  06:39:00      -53.077       -5.322      -10.549       16.515        8.810        9.573      272.760       77.612       91.648        0.170        0.022       53.343        4.224        0.006      327.319       -7.281      860.492
12/20/2013  06:40:00      -42.162        9.857       -6.249       13.078       13.542       10.219      171.025      183.394      104.423        0.119        0.023       43.299        7.145        0.027      327.312       -7.291      860.545
12/20/2013  06:41:00      -42.687        7.145        1.871       19.651       10.801       12.288      386.144      116.668      150.996        0.127        0.033       43.281       11.155        0.066      327.430       -7.101      860.558
12/20/2013  06:42:00      -21.849       34.161      -11.855       14.901       13.824        9.596      222.049      191.111       92.092        0.114        0.025       40.551        4.988        0.015      327.674       -6.704      860.561
12/20/2013  06:43:00       15.895       25.423        6.970       13.910       20.349        9.762      193.491      414.084       95.287        0.083        0.035       29.983        9.143        0.093      327.700       -6.661      860.578
12/20/2013  06:44:00        4.020       23.510        7.295       16.162       21.353       15.044      261.205      455.971      226.326        0.078        0.047       23.851       13.830        0.336      327.680       -6.692      860.612
12/20/2013  06:45:00        6.531       23.625        8.306       15.156       19.761       12.428      229.693      390.495      154.461        0.072        0.039       24.511       12.754        0.271      327.729       -6.614      860.650
12/20/2013  06:46:00       -7.680        3.667        4.597       13.091       12.603        9.625      171.369      158.829       92.642        0.026        0.021        8.511        8.567        1.013      327.607       -6.812      860.676
12/20/2013  06:47:00      -14.160        6.236        2.786       15.882       10.083       10.411      252.238      101.672      108.394        0.035        0.023       15.472        5.735        0.137      327.532       -6.937      860.688
12/20/2013  06:48:00       -1.192        0.502        7.125       11.571        4.678        4.933      133.878       21.882       24.332        0.012        0.009        1.293        5.058       15.300      327.520       -6.956      860.675
12/20/2013  06:49:00       22.346       36.537        1.835       18.741       17.433       13.471      351.241      303.910      181.479        0.134        0.042       42.829       12.156        0.081      327.785       -6.523      860.654
12/20/2013  06:50:00       29.020       46.662        3.419       16.871       26.177       15.763      284.623      685.231      248.475        0.212        0.061       54.950       15.277        0.077      327.771       -6.546      860.650
12/20/2013  06:51:00       15.566       89.167      -12.280       11.403        9.915        9.378      130.025       98.313       87.941        0.433        0.016       90.516        6.559        0.005      327.775       -6.539      860.669
12/20/2013  06:52:00       12.028       78.682      -11.403        8.381       12.765        6.850       70.249      162.936       46.929        0.337        0.014       79.596        3.244        0.002      327.755       -6.572      860.677
12/20/2013  06:53:00       13.229       78.357      -10.960       11.621       21.373       10.240      135.037      456.820      104.865        0.357        0.035       79.466       11.388        0.021      327.744       -6.589      860.678
12/20/2013  06:54:00       19.329       94.470      -14.675       14.626       13.845        9.519      213.920      191.689       90.603        0.500        0.025       96.427        7.341        0.006      327.779       -6.533      860.689
12/20/2013  06:55:00       25.401       80.350      -12.602       14.997       18.175       10.911      224.914      330.329      119.049        0.397        0.034       84.270        8.815        0.011      327.756       -6.571      860.702
12/20/2013  06:56:00       22.165       33.879        1.490       17.985       20.437       16.912      323.458      417.669      286.019        0.133        0.051       40.486       14.404        0.127      327.684       -6.688      860.698
12/20/2013  06:57:00       45.812       48.129       -2.767       25.363       22.888       17.788      643.260      523.850      316.417        0.295        0.074       66.446       12.570        0.036      327.645       -6.751      860.726
12/20/2013  06:58:00       27.372       76.206      -10.832       22.377       35.854       17.659      500.721     1285.518      311.826        0.439        0.105       80.972       19.522        0.058      327.614       -6.801      860.767
12/20/2013  06:59:00       25.263       76.380       -8.987       25.279       24.849       16.356      639.016      617.494      267.504        0.404        0.076       80.449       15.264        0.036      327.601       -6.821      860.803
12/20/2013  07:00:00       13.966       61.164       -4.753       14.519       18.841       12.183      210.816      354.984      148.424        0.234        0.036       62.739       12.264        0.038      327.632       -6.773      860.837
12/20/2013  07:01:00       25.056       61.035       -5.266       14.453       20.305       16.388      208.900      412.281      268.552        0.264        0.044       65.978       14.807        0.050      327.632       -6.772      860.851
12/20/2013  07:02:00       22.252       40.264        4.113       17.988       24.464       20.552      323.576      598.488      422.368        0.174        0.067       46.004       17.145        0.139      327.608       -6.810      860.870
12/20/2013  07:03:00       47.293       40.057        5.480       27.255       22.637       17.398      742.813      512.417      302.680        0.271        0.078       61.977       14.594        0.055      327.595       -6.832      860.904
12/20/2013  07:04:00       56.010       36.311        9.877       23.697       22.271       18.779      561.527      495.994      352.650        0.298        0.071       66.751       13.813        0.043      327.592       -6.838      860.948
12/20/2013  07:05:00       57.044       27.222       -0.301       19.838       22.718       16.974      393.553      516.091      288.100        0.260        0.060       63.206       12.925        0.042      327.604       -6.816      860.992
12/20/2013  07:06:00       50.728       20.501       -0.178       24.609       15.056       15.521      605.612      226.685      240.888        0.203        0.054       54.714       13.790        0.064      327.612       -6.805      861.040
12/20/2013  07:07:00       42.195       30.532        1.877       15.041       10.028       10.036      226.232      100.559      100.727        0.157        0.021       52.083        7.126        0.019      327.644       -6.752      861.080
12/20/2013  07:08:00       37.800       34.094        7.625       15.226       13.703       11.621      231.828      187.760      135.048        0.160        0.028       50.904        8.273        0.026      327.635       -6.767      861.096
12/20/2013  07:09:00       27.656       25.494        8.692       15.301       14.082       18.108      234.113      198.312      327.894        0.113        0.038       37.614        7.500        0.040      327.686       -6.685      861.093
12/20/2013  07:10:00       38.337       21.766       -1.577       14.286       17.428       13.051      204.085      303.741      170.325        0.131        0.034       44.085        5.303        0.014      327.712       -6.642      861.089
12/20/2013  07:11:00       22.705       25.415        9.808       16.345       10.733       11.761      267.169      115.193      138.320        0.089        0.026       34.080        8.272        0.059      327.770       -6.548      861.077
12/20/2013  07:12:00       15.421       25.777       -0.179       12.182       10.894       15.609      148.407      118.685      243.656        0.071        0.026       30.037       10.181        0.115      327.829       -6.452      861.081
12/20/2013  07:13:00       -3.636       17.487        7.559        9.102       16.712       12.446       82.851      279.299      154.895        0.045        0.026       17.861       12.514        0.491      327.839       -6.434      861.097
12/20/2013  07:14:00      -24.207        7.579        4.597       16.610       15.503        9.794      275.904      240.335       95.927        0.064        0.031       25.366       11.444        0.204      327.727       -6.617      861.103
12/20/2013  07:15:00      -42.303      -14.686       -9.004        8.616        7.930        5.475       74.243       62.877       29.976        0.113        0.008       44.780        2.598        0.003      327.542       -6.917      861.118
12/20/2013  07:16:00      -73.173        4.483       -8.084       10.534        9.863        7.417      110.970       97.287       55.015        0.285        0.013       73.310        6.154        0.007      327.474       -7.029      861.178
12/20/2013  07:17:00     -109.170      -16.892      -14.275       15.490       14.486        9.239      239.938      209.842       85.359        0.647        0.027      110.469        4.236        0.001      327.379       -7.182      861.215
12/20/2013  07:18:00     -109.873       -7.625      -10.867       19.728       13.825       12.227      389.177      191.118      149.511        0.649        0.036      110.137        9.343        0.007      327.354       -7.223      861.234
12/20/2013  07:19:00     -102.746       -7.698       -9.270       26.906       14.115       14.226      723.936      199.245      202.389        0.591        0.056      103.034       13.071        0.016      327.359       -7.216      861.261
12/20/2013  07:20:00      -87.737      -31.692       -7.461       20.351       22.910       11.431      414.183      524.878      130.670        0.491        0.053       93.285       11.554        0.015      327.505       -6.978      861.287
12/20/2013  07:21:00      -74.558      -29.701        1.346       17.125       15.193        9.872      293.262      230.838       97.462        0.353        0.031       80.257        9.547        0.014      327.523       -6.950      861.301
12/20/2013  07:22:00      -20.390      -24.552       11.722       34.744       20.184       15.298     1207.152      407.402      234.025        0.150        0.092       31.915       18.218        0.326      327.569       -6.875      861.297
12/20/2013  07:23:00      -35.523      -22.179        5.066       32.483       24.536       15.075     1055.145      602.003      227.258        0.183        0.094       41.878       17.586        0.176      327.663       -6.720      861.281
12/20/2013  07:24:00       -6.981        0.998       12.516       21.868       18.789       13.416      478.197      353.030      179.982        0.061        0.051        7.052       12.230        3.008      327.656       -6.732      861.281
12/20/2013  07:25:00      -30.116      -15.987        2.820       55.524       27.937       14.845     3082.913      780.470      220.373        0.263        0.204       34.096       11.338        0.111      327.691       -6.676      861.299
12/20/2013  07:26:00      -46.134      -46.762        5.382       48.503       27.725       23.375     2352.577      768.685      546.370        0.401        0.183       65.689        6.479        0.010      327.611       -6.806      861.322
12/20/2013  07:27:00     -103.857      -62.694        0.201       48.134       42.369       32.168     2316.868     1795.148     1034.809        0.993        0.257      121.313       25.079        0.043      327.517       -6.960      861.342
12/20/2013  07:28:00     -123.889      -81.910       -8.225       32.219       30.022       26.869     1038.088      901.308      721.964        1.239        0.133      148.518       16.795        0.013      327.423       -7.111      861.351
12/20/2013  07:29:00     -114.716      -50.778       -7.081       37.216       30.632       26.270     1384.995      938.291      690.111        0.940        0.151      125.452       10.058        0.006      327.468       -7.038      861.355
12/20/2013  07:30:00      -90.357      -68.818        3.398       37.450       34.106       20.766     1402.526     1163.241      431.214        0.795        0.150      113.579       21.298        0.035      327.606       -6.813      861.353
12/20/2013  07:31:00      -84.491      -20.950        1.878       22.686       26.744       14.802      514.659      715.246      219.113        0.451        0.072       87.049       11.274        0.017      327.594       -6.834      861.350
12/20/2013  07:32:00      -33.178      -19.802        8.396       27.313       26.980       16.462      745.984      727.929      271.008        0.165        0.087       38.638       11.052        0.082      327.604       -6.816      861.346
12/20/2013  07:33:00      -16.165      -18.354        2.286       25.298       17.596       16.205      640.000      309.614      262.616        0.091        0.061       24.458       13.438        0.302      327.640       -6.759      861.341
12/20/2013  07:34:00      -29.114      -39.737        3.075       28.449       27.266       17.702      809.359      743.462      313.370        0.215        0.093       49.261       18.240        0.137      327.703       -6.657      861.343
12/20/2013  07:35:00      -77.365      -45.105       -7.227       27.164       38.150       19.193      737.885     1455.428      368.369        0.532        0.128       89.553       15.016        0.028      327.629       -6.777      861.354
12/20/2013  07:36:00      -60.174      -62.742       -5.903       25.351       22.479       19.575      642.664      505.290      383.169        0.456        0.077       86.934        8.396        0.009      327.698       -6.665      861.355
12/20/2013  07:37:00      -74.211      -87.033      -13.377       29.790       46.350       21.365      887.430     2148.319      456.472        0.838        0.175      114.377       13.609        0.014      327.698       -6.664      861.351
12/20/2013  07:38:00       -4.704      -54.075      -10.056       30.512       32.581       19.778      930.969     1061.508      391.164        0.272        0.119       54.279       19.966        0.135      327.761       -6.561      861.373
12/20/2013  07:39:00       -7.860      -41.498       -6.411       31.808       27.032       18.649     1011.770      730.710      347.791        0.196        0.105       42.236       15.405        0.133      327.808       -6.485      861.370
12/20/2013  07:40:00      -16.883       -4.791       13.489       29.007       28.631       12.125      841.401      819.761      147.021        0.115        0.090       17.550       10.152        0.335      327.820       -6.466      861.344
12/20/2013  07:41:00       -5.410       13.826        7.821       13.527       15.588       17.511      182.989      242.971      306.624        0.051        0.037       14.847        5.534        0.139      327.830       -6.449      861.330
12/20/2013  07:42:00      -22.389       43.570       -4.418       20.205       26.095       17.047      408.243      680.963      290.607        0.190        0.069       48.986        5.146        0.011      327.760       -6.562      861.347
12/20/2013  07:43:00       -2.043       30.466       13.866       33.566       17.725       25.734     1126.702      314.180      662.248        0.161        0.105       30.535       23.709        0.603      327.788       -6.518      861.348
12/20/2013  07:44:00       -6.066        1.875        9.858       54.842       29.299       23.422     3007.597      858.423      548.575        0.228        0.221        6.349       26.879       17.924      327.693       -6.672      861.360
12/20/2013  07:45:00      -37.430      -17.850        9.641       35.961       21.571       19.362     1293.196      465.311      374.894        0.197        0.107       41.468       14.147        0.116      327.733       -6.608      861.382
12/20/2013  07:46:00      -31.379      -29.284        2.768       30.719       18.797       13.360      943.655      353.322      178.497        0.166        0.074       42.921       13.533        0.099      327.770       -6.548      861.402
12/20/2013  07:47:00       -4.122       -1.185        7.671       18.310       20.804       11.252      335.239      432.825      126.610        0.049        0.045        4.289       11.391        7.055      327.865       -6.393      861.416
12/20/2013  07:48:00      -57.160      -24.841       -1.255       20.947       15.411       12.462      438.792      237.498      155.305        0.236        0.042       62.325       11.790        0.036      327.759       -6.565      861.414
12/20/2013  07:49:00      -52.404      -14.732       -6.831       15.649       16.443       12.916      244.895      270.379      166.814        0.185        0.034       54.436        5.196        0.009      327.764       -6.557      861.408
12/20/2013  07:50:00      -16.848      -28.804       -5.271       21.598       15.176        9.232      466.476      230.303       85.233        0.096        0.039       33.370        5.838        0.031      327.801       -6.497      861.375
12/20/2013  07:51:00      -11.507       16.598       12.851       12.763       11.391       11.684      162.882      129.765      136.513        0.050        0.021       20.196        4.552        0.051      328.029       -6.126      861.350
12/20/2013  07:52:00      -50.866       19.712        8.339       24.635       24.340       16.775      606.864      592.437      281.391        0.226        0.074       54.552       18.689        0.117      327.891       -6.352      861.351
12/20/2013  07:53:00      -49.211      -21.225        1.658       18.434       24.898       14.406      339.801      619.896      207.545        0.202        0.058       53.593        6.556        0.015      327.881       -6.365      861.379
12/20/2013  07:54:00      -36.372      -21.380       -4.326       21.275       16.877       10.987      452.630      284.830      120.706        0.133        0.043       42.190        7.618        0.033      327.921       -6.301      861.387
12/20/2013  07:55:00      -18.792        7.459        2.207       16.924        7.845        9.606      286.437       61.543       92.276        0.043        0.022       20.218        9.295        0.211      327.986       -6.197      861.370
12/20/2013  07:56:00        3.862       -3.168        7.243       12.468        7.641        8.381      155.453       58.378       70.237        0.018        0.014        4.995        5.822        1.359      328.128       -5.966      861.330
12/20/2013  07:57:00       -4.018        0.730        8.513       11.889        9.710        6.441      141.342       94.287       41.487        0.018        0.014        4.084        5.220        1.634      328.114       -5.987      861.308
12/20/2013  07:58:00      -21.847        2.447        1.862       12.710        9.699        7.592      161.556       94.074       57.634        0.040        0.016       21.983        4.517        0.042      327.913       -6.315      861.307
12/20/2013  07:59:00      -42.768        3.724       -5.473       21.762       14.101        8.079      473.600      198.836       65.263        0.131        0.037       42.930        6.113        0.020      327.901       -6.334      861.301
12/20/2013  08:00:00      -57.904       -6.862       -2.724       26.019       20.646       12.146      676.982      426.277      147.533        0.233        0.063       58.309       10.879        0.035      327.862       -6.397      861.305
12/20/2013  08:01:00      -62.819      -17.514        1.346       29.740       26.094       16.919      884.455      680.901      286.261        0.305        0.093       65.215       18.859        0.084      327.869       -6.387      861.324
12/20/2013  08:02:00      -47.190       -9.003        0.524       34.967       23.273       15.681     1222.665      541.613      245.903        0.216        0.101       48.042       15.244        0.101      327.907       -6.325      861.328
12/20/2013  08:03:00      -70.554       -0.204      -12.696       27.875       21.932       17.611      777.019      481.033      310.130        0.335        0.078       70.555       13.905        0.039      327.844       -6.427      861.327
12/20/2013  08:04:00      -61.556       -1.126       -9.354       20.007       20.824       12.622      400.286      433.629      159.312        0.244        0.050       61.566       10.292        0.028      327.832       -6.448      861.326
12/20/2013  08:05:00     -108.216        7.658      -12.941       21.979       16.462       11.372      483.069      270.984      129.325        0.641        0.044      108.487        8.254        0.006      327.802       -6.497      861.343
12/20/2013  08:06:00      -97.974       -2.747      -13.443       23.485       18.875       10.369      551.522      356.272      107.524        0.540        0.051       98.013        6.933        0.005      327.867       -6.389      861.357
12/20/2013  08:07:00     -117.252       -4.574      -18.404       19.575       19.952       16.853      383.169      398.065      284.030        0.759        0.053      117.341        8.898        0.006      327.861       -6.400      861.372
12/20/2013  08:08:00      -80.080      -15.713       -4.815       26.174       32.485       17.469      685.079     1055.256      305.177        0.436        0.102       81.607       17.572        0.046      327.922       -6.298      861.375
12/20/2013  08:09:00      -82.765       -8.086      -13.307       19.498       17.550       14.553      380.165      307.987      211.795        0.400        0.045       83.159        8.054        0.009      327.899       -6.337      861.354
12/20/2013  08:10:00      -84.317      -27.763      -16.725       15.196       12.225       13.049      230.904      149.448      170.280        0.436        0.028       88.770        9.530        0.012      327.932       -6.282      861.339
12/20/2013  08:11:00      -79.295      -17.065       -4.716       21.823       25.177       10.171      476.229      633.874      103.455        0.391        0.061       81.111        9.164        0.013      328.072       -6.055      861.329
12/20/2013  08:12:00      -81.581      -16.309       -5.558       11.445       19.517       10.856      130.986      380.909      117.848        0.379        0.031       83.195        4.043        0.002      328.063       -6.070      861.324
12/20/2013  08:13:00      -87.297      -22.836       -8.588       15.578       25.701       15.072      242.673      660.540      227.151        0.467        0.057       90.234        8.799        0.010      328.015       -6.149      861.313
12/20/2013  08:14:00      -35.565      -31.455       -0.761       28.736       12.325       16.033      825.753      151.913      257.051        0.174        0.062       47.479        8.743        0.034      328.156       -5.919      861.318
12/20/2013  08:15:00      -50.792        4.281       -2.183       25.557       17.634       14.813      653.162      310.944      219.422        0.189        0.059       50.972       17.906        0.123      328.134       -5.953      861.296
12/20/2013  08:16:00      -45.591      -35.106       -1.842       20.215       20.478       13.929      408.666      419.344      194.031        0.217        0.051       57.541       12.343        0.046      328.194       -5.857      861.254
12/20/2013  08:17:00      -60.555      -45.032       -0.988       23.113       18.984       12.005      534.215      360.403      144.116        0.337        0.052       75.463        9.843        0.017      328.191       -5.860      861.247
12/20/2013  08:18:00      -47.642      -23.203        0.496       32.401       18.383       13.898     1049.797      337.942      193.160        0.219        0.079       52.992       13.249        0.063      328.326       -5.642      861.259
12/20/2013  08:19:00      -36.873      -17.210       -0.583       37.967       20.819       15.643     1441.461      433.429      244.706        0.189        0.106       40.692       16.885        0.172      328.423       -5.483      861.278
12/20/2013  08:20:00      -13.060      -41.430      -10.898       31.335       24.548       18.257      981.864      602.594      333.311        0.196        0.096       43.440       14.159        0.106      328.430       -5.472      861.292
12/20/2013  08:21:00      -46.665      -34.767       -3.881       28.013       23.876       15.266      784.752      570.044      233.053        0.249        0.079       58.192       13.104        0.051      328.324       -5.645      861.293
12/20/2013  08:22:00      -51.281      -22.378       -0.828       24.118       21.590       17.997      581.695      466.148      323.899        0.225        0.069       55.951       13.787        0.061      328.344       -5.612      861.292
12/20/2013  08:23:00       10.284       25.352       14.952       33.309       24.280       19.848     1109.496      589.532      393.963        0.153        0.105       27.358       20.005        0.535      328.535       -5.301      861.298
12/20/2013  08:24:00      -33.553       26.270       -3.555       21.175       21.300       19.937      448.388      453.682      397.495        0.156        0.065       42.614       10.915        0.066      328.457       -5.428      861.314
12/20/2013  08:25:00       27.080       46.781       19.152       34.758       19.876       19.130     1208.134      395.037      365.955        0.263        0.098       54.054       12.513        0.054      328.554       -5.269      861.317
12/20/2013  08:26:00      -24.883       35.746       25.090       30.174       22.514       32.476      910.475      506.893     1054.713        0.250        0.124       43.554       13.551        0.097      328.654       -5.107      861.324
12/20/2013  08:27:00       -2.216       24.261       21.078       22.600       20.951       17.869      510.756      438.964      319.298        0.115        0.063       24.362       15.977        0.430      328.826       -4.825      861.355
12/20/2013  08:28:00       40.938       57.433       42.882       31.412       29.336       17.729      986.686      860.626      314.315        0.449        0.108       70.530        8.561        0.015      328.638       -5.133      861.393
12/20/2013  08:29:00       21.756       32.065       36.672       22.034       15.872       18.288      485.491      251.928      334.452        0.196        0.054       38.749       15.603        0.162      328.657       -5.101      861.412
12/20/2013  08:30:00       52.613       37.882       21.733       10.053       13.046       15.013      101.067      170.203      225.376        0.259        0.025       64.832        7.665        0.014      328.449       -5.440      861.417
12/20/2013  08:31:00       68.644       36.245       -2.028       20.203       15.093       13.523      408.169      227.813      182.865        0.342        0.041       77.625       10.032        0.017      328.518       -5.329      861.407
12/20/2013  08:32:00       11.974       17.808       13.148       29.473       22.045       15.876      868.631      486.000      252.044        0.112        0.080       21.459       18.299        0.727      328.942       -4.635      861.385
12/20/2013  08:33:00       27.106       27.942       22.001       23.804       20.134       19.114      566.648      405.364      365.353        0.167        0.067       38.929        9.678        0.062      328.988       -4.561      861.376
12/20/2013  08:34:00       30.327       22.056       20.000       29.130       27.931       25.767      848.579      780.117      663.939        0.205        0.115       37.499       11.917        0.101      328.922       -4.670      861.408
12/20/2013  08:35:00       33.452       28.353       34.379       23.571       41.627       29.196      555.571     1732.770      852.404        0.312        0.157       43.851       29.183        0.443      328.829       -4.821      861.463
12/20/2013  08:36:00       28.682       49.016       38.275       27.007       25.377       28.400      729.357      644.006      806.581        0.343        0.109       56.791       17.893        0.099      328.736       -4.973      861.501
12/20/2013  08:37:00       46.415       56.617       40.592       28.496       20.186       27.109      811.997      407.456      734.884        0.448        0.098       73.211       20.165        0.076      328.706       -5.023      861.531
12/20/2013  08:38:00       45.987       15.458       23.357       23.697       32.227       20.926      561.545     1038.610      437.910        0.247        0.102       48.515       22.188        0.209      328.770       -4.919      861.560
12/20/2013  08:39:00       32.723        6.028       23.513       30.028       23.044       26.288      901.683      531.006      691.064        0.189        0.106       33.273       20.827        0.392      328.946       -4.631      861.596
12/20/2013  08:40:00      103.642       69.868       -0.653       43.480       30.816       24.278     1890.538      949.655      589.397        0.953        0.171      124.993       11.203        0.008      328.659       -5.099      861.608
12/20/2013  08:41:00       57.108       69.074       71.787       33.085       33.096       25.893     1094.646     1095.356      670.462        0.802        0.143       89.625        9.273        0.011      328.884       -4.732      861.608
12/20/2013  08:42:00       87.838       57.553       11.198       36.756       26.016       25.891     1351.012      676.816      670.326        0.693        0.135      105.013       15.253        0.021      328.753       -4.945      861.594
12/20/2013  08:43:00       72.170       47.648       18.718       40.368       25.583       37.360     1629.615      654.501     1395.765        0.575        0.184       86.480       32.617        0.142      328.919       -4.675      861.582
12/20/2013  08:44:00       92.390       72.790        8.335       29.543       23.167       21.637      872.763      536.699      468.171        0.789        0.094      117.619       10.879        0.009      328.669       -5.083      861.582
12/20/2013  08:45:00       78.851       56.938       13.625       34.940       22.029       25.294     1220.817      485.276      639.811        0.600        0.117       97.260       22.251        0.052      328.710       -5.015      861.590
12/20/2013  08:46:00       77.006       83.849       53.218       53.388       43.000       48.853     2850.248     1848.999     2386.606        1.144        0.354      113.844       36.533        0.103      328.793       -4.880      861.587
12/20/2013  08:47:00      107.663       70.901       30.533       25.912       23.199       21.296      671.408      538.190      453.525        0.961        0.083      128.912       12.611        0.010      328.611       -5.176      861.589
12/20/2013  08:48:00       77.574       76.902       38.233       46.670       22.709       32.136     2178.088      515.683     1032.726        0.856        0.186      109.232       22.655        0.043      328.760       -4.933      861.600
12/20/2013  08:49:00       54.404       51.810       29.633       26.931       29.969       36.616      725.298      898.137     1340.761        0.474        0.148       75.127       20.873        0.077      328.946       -4.631      861.624
12/20/2013  08:50:00       74.419       58.818        4.522       28.026       22.782       29.469      785.472      519.007      868.439        0.560        0.109       94.857       11.586        0.015      328.885       -4.730      861.648
12/20/2013  08:51:00       83.866       70.240       19.241       39.014       25.666       31.841     1522.080      658.733     1013.851        0.777        0.160      109.394       25.564        0.055      328.931       -4.654      861.651
12/20/2013  08:52:00       74.013       80.853       27.817       60.730       34.411       50.840     3688.078     1184.145     2584.692        1.012        0.373      109.614       51.723        0.223      328.916       -4.679      861.650
12/20/2013  08:53:00       55.354       72.930       35.107       55.655       38.827       29.230     3097.457     1507.515      854.382        0.754        0.273       91.558       15.556        0.029      329.019       -4.510      861.652
12/20/2013  08:54:00       48.732       67.591       54.976       44.248       33.645       28.450     1957.912     1131.958      809.395        0.693        0.195       83.327       24.620        0.087      329.153       -4.292      861.672
12/20/2013  08:55:00       51.248       76.790       83.470       36.240       27.075       15.833     1313.369      733.063      250.676        0.889        0.115       92.321       13.048        0.020      328.906       -4.696      861.692
12/20/2013  08:56:00       89.140       68.811       35.301       31.075       24.046       31.667      965.641      578.209     1002.791        0.824        0.127      112.610       23.605        0.044      328.752       -4.949      861.687
12/20/2013  08:57:00       66.737       80.020       52.136       38.578       31.901       37.290     1488.231     1017.702     1390.550        0.874        0.195      104.197       22.515        0.047      328.920       -4.673      861.666
12/20/2013  08:58:00       63.486       69.053       61.985       42.321       56.543       43.148     1791.085     3197.128     1861.724        0.974        0.342       93.801       39.487        0.177      328.921       -4.671      861.655
12/20/2013  08:59:00       54.163       80.754       52.172       51.915       35.465       33.286     2695.168     1257.750     1107.982        0.862        0.253       97.236       31.248        0.103      328.965       -4.601      861.662
12/20/2013  09:00:00       98.661       71.648       37.339       25.183       22.166       27.599      634.191      491.320      761.712        0.907        0.094      121.932       17.112        0.020      328.748       -4.954      861.677
12/20/2013  09:01:00       68.025       62.142       58.798       27.787       20.137       20.941      772.115      405.490      438.514        0.678        0.081       92.136       13.498        0.021      328.968       -4.595      861.680
12/20/2013  09:02:00       75.739       66.418        7.334       20.859       17.920       22.639      435.115      321.141      512.545        0.573        0.063      100.736       13.227        0.017      328.853       -4.780      861.666
12/20/2013  09:03:00       87.063       53.103       36.885       29.178       31.073       31.296      851.343      965.548      979.431        0.728        0.140      101.980       17.987        0.031      329.027       -4.498      861.649
12/20/2013  09:04:00       95.465       61.857       23.755       18.469       24.916       26.473      341.105      620.829      700.796        0.758        0.083      113.754       10.873        0.009      329.017       -4.514      861.640
12/20/2013  09:05:00       50.115       52.921       12.398       39.315       32.668       34.642     1545.639     1067.170     1200.071        0.464        0.191       72.885       24.625        0.114      329.278       -4.088      861.628
12/20/2013  09:06:00       12.311       55.502       70.111       45.865       36.260       34.827     2103.554     1314.765     1212.949        0.639        0.232       56.851       35.067        0.380      329.369       -3.940      861.617
12/20/2013  09:07:00       25.813       30.237       51.802       50.913       32.893       29.912     2592.127     1081.934      894.714        0.442        0.228       39.756       21.290        0.287      329.435       -3.831      861.639
12/20/2013  09:08:00       50.105       51.150       17.236       19.174       26.716       32.326      367.627      713.761     1044.943        0.377        0.106       71.601       20.600        0.083      329.014       -4.520      861.656
12/20/2013  09:09:00       62.282       31.884       -0.334       19.807       14.863       16.586      392.300      220.910      275.094        0.289        0.044       69.969        8.124        0.013      328.948       -4.626      861.671
12/20/2013  09:10:00      122.359       80.037       25.671       41.462       35.541       40.879     1719.076     1263.181     1671.062        1.334        0.233      146.211       19.378        0.018      329.094       -4.389      861.671
12/20/2013  09:11:00       76.219       66.645       51.091       57.156       51.515       40.334     3266.808     2653.837     1626.801        1.020        0.377      101.246       25.869        0.065      329.119       -4.349      861.663
12/20/2013  09:12:00       92.635       43.949       32.143       36.305       31.792       33.015     1318.019     1010.726     1089.957        0.748        0.171      102.532       11.500        0.013      329.052       -4.458      861.668
12/20/2013  09:13:00       13.419       19.580       34.685       35.077       33.772       23.833     1230.370     1140.563      568.028        0.235        0.147       23.737       16.603        0.489      329.648       -3.483      861.654
12/20/2013  09:14:00       13.082       71.362       72.230       41.648       40.146       40.575     1734.555     1611.713     1646.368        0.774        0.250       72.551       35.254        0.236      329.507       -3.714      861.649
12/20/2013  09:15:00       51.459       58.672       47.756       50.577       45.977       36.740     2558.062     2113.884     1349.793        0.720        0.301       78.041       30.597        0.154      329.390       -3.905      861.634
12/20/2013  09:16:00       94.713       63.170       -7.388       34.661       34.517       26.763     1201.412     1191.442      716.282        0.806        0.155      113.847       17.573        0.024      329.214       -4.192      861.613
12/20/2013  09:17:00       43.281       67.536       -0.832       37.865       34.267       33.090     1433.762     1174.249     1094.957        0.507        0.185       80.215       27.381        0.117      329.377       -3.926      861.615
12/20/2013  09:18:00       87.033       74.198       -3.724       30.240       21.661       25.694      914.468      469.215      660.166        0.757        0.102      114.368       13.829        0.015      329.301       -4.050      861.611
12/20/2013  09:19:00       70.071       67.114       34.247       46.328       37.251       32.317     2146.317     1387.631     1044.379        0.758        0.229       97.027       19.271        0.039      329.415       -3.865      861.601
12/20/2013  09:20:00       60.796       83.993       60.874       64.545       40.442       41.888     4166.011     1635.526     1754.594        1.101        0.378      103.687       27.613        0.071      329.434       -3.834      861.590
12/20/2013  09:21:00       56.525       37.973       59.927       41.473       45.071       36.396     1719.978     2031.424     1324.697        0.665        0.254       68.096       30.646        0.203      329.542       -3.657      861.586
12/20/2013  09:22:00       14.032       64.558       82.246       40.368       43.366       22.593     1629.550     1880.604      510.462        0.757        0.201       66.065       22.468        0.116      329.742       -3.329      861.583
12/20/2013  09:23:00       66.082       66.022       57.209       30.437       24.379       24.450      926.439      594.342      597.806        0.706        0.106       93.412       19.826        0.045      329.256       -4.124      861.603
12/20/2013  09:24:00       70.778       43.012       37.716       24.985       21.991       34.723      624.258      483.623     1205.697        0.530        0.116       82.823        7.940        0.009      329.294       -4.061      861.630
12/20/2013  09:25:00       86.789       52.300       12.968       32.524       20.665       29.762     1057.801      427.051      885.779        0.640        0.119      101.330       17.351        0.029      329.285       -4.076      861.654
12/20/2013  09:26:00       44.310       76.698       64.077       30.296       30.206       27.968      917.870      912.423      782.209        0.728        0.131       88.577        8.703        0.010      329.522       -3.690      861.690
12/20/2013  09:27:00       15.694       59.606       65.852       42.881       36.129       36.753     1838.811     1305.317     1350.762        0.631        0.225       61.637       29.448        0.228      329.706       -3.386      861.734
12/20/2013  09:28:00       42.183       87.292       95.075       51.582       33.812       34.387     2660.730     1143.265     1182.476        1.171        0.249       96.950       23.992        0.061      329.432       -3.837      861.768
12/20/2013  09:29:00       85.145       35.736       14.749       32.612       54.113       30.788     1063.565     2928.210      947.909        0.684        0.247       92.341       19.858        0.046      329.200       -4.215      861.797
12/20/2013  09:30:00       69.349       45.237       16.696       28.746       26.215       30.101      826.350      687.234      906.071        0.478        0.121       82.799       19.465        0.055      329.445       -3.816      861.796
12/20/2013  09:31:00       69.399       45.716       39.537       58.309       47.108       31.717     3399.929     2219.209     1005.973        0.755        0.331       83.103       29.165        0.123      329.692       -3.413      861.807
12/20/2013  09:32:00      107.474       69.805       52.175       79.150       48.815       53.234     6264.757     2382.951     2833.894        1.531        0.574      128.154       50.074        0.153      329.506       -3.717      861.817
12/20/2013  09:33:00       78.372       83.294       24.949       43.878       38.559       37.319     1925.247     1486.835     1392.693        0.925        0.240      114.368       25.289        0.049      329.424       -3.850      861.825
12/20/2013  09:34:00       95.229       72.308       -4.618       43.135       27.366       29.059     1860.599      748.882      844.411        0.889        0.173      119.570       17.177        0.021      329.351       -3.970      861.807
12/20/2013  09:35:00       83.702       79.434       33.982       55.127       35.270       38.658     3038.987     1243.962     1494.403        1.012        0.289      115.394       32.215        0.078      329.635       -3.505      861.781
12/20/2013  09:36:00       98.889       54.026       19.752       68.772       34.360       37.925     4729.650     1180.623     1438.338        1.022        0.367      112.685       35.067        0.097      329.437       -3.828      861.744
12/20/2013  09:37:00       63.486       73.437       47.137       46.035       47.670       47.620     2119.249     2272.458     2267.627        0.915        0.333       97.074       31.919        0.108      329.560       -3.627      861.728
12/20/2013  09:38:00       22.379       87.692       87.971       31.796       45.896       38.744     1010.962     2106.434     1501.123        1.027        0.231       90.502       30.740        0.115      329.608       -3.549      861.724
12/20/2013  09:39:00       88.449       55.393       -1.896       55.115       40.297       34.643     3037.654     1623.834     1200.129        0.838        0.293      104.363       16.642        0.025      329.530       -3.677      861.734
12/20/2013  09:40:00       22.649        3.752       32.187       27.498       55.694       26.883      756.131     3101.797      722.695        0.307        0.229       22.957       11.677        0.259      330.034       -2.851      861.764
12/20/2013  09:41:00       21.102       77.341       83.196       47.521       41.721       27.583     2258.289     1740.676      760.821        0.905        0.238       80.168       22.576        0.079      329.915       -3.047      861.800
12/20/2013  09:42:00       77.714       85.682       61.590       50.771       45.819       37.126     2577.681     2099.405     1378.332        1.161        0.303      115.676       20.728        0.032      329.777       -3.272      861.814
12/20/2013  09:43:00       70.044       79.933        1.413       21.960       30.036       27.666      482.246      902.135      765.430        0.672        0.107      106.280       15.041        0.020      329.299       -4.054      861.837
12/20/2013  09:44:00       45.611       51.383       38.355       44.202       27.246       37.894     1953.847      742.337     1435.937        0.516        0.207       68.707       35.613        0.269      329.597       -3.568      861.848
12/20/2013  09:45:00       22.966       62.536       77.665       53.397       49.475       36.210     2851.201     2447.740     1311.149        0.854        0.331       66.620       34.068        0.262      329.836       -3.176      861.860
12/20/2013  09:46:00       37.951       58.116       61.353       55.861       38.340       47.843     3120.421     1469.948     2288.944        0.773        0.344       69.410       41.845        0.363      330.031       -2.855      861.895
12/20/2013  09:47:00       64.005       92.857       42.363       73.399       47.258       30.865     5387.355     2233.298      952.627        1.154        0.429      112.779       29.486        0.068      329.975       -2.948      861.948
12/20/2013  09:48:00       82.258      113.013       75.875       71.191       53.345       57.763     5068.097     2845.719     3336.515        1.827        0.563      139.780       45.929        0.108      329.633       -3.509      862.011
12/20/2013  09:49:00      147.598      117.793        9.849       46.049       33.024       41.099     2120.528     1090.579     1689.129        2.033        0.245      188.839       21.451        0.013      329.413       -3.869      862.033
12/20/2013  09:50:00      121.608       82.742       14.280       36.396       28.612       29.567     1324.678      818.624      874.196        1.243        0.151      147.088       13.276        0.008      329.666       -3.455      861.989
12/20/2013  09:51:00      102.821       73.947        2.595       39.941       34.369       28.470     1595.321     1181.251      810.523        0.982        0.179      126.650       22.803        0.032      329.651       -3.479      861.943
12/20/2013  09:52:00       85.898       76.651       56.483       51.338       42.605       39.754     2635.605     1815.160     1580.358        1.124        0.302      115.125       28.082        0.059      329.753       -3.311      861.903
12/20/2013  09:53:00      104.919       68.611       -8.392       30.562       28.197       25.112      934.017      795.095      630.588        0.907        0.118      125.362       17.068        0.019      329.498       -3.729      861.888
12/20/2013  09:54:00       84.271       84.642       49.194       35.016       40.581       46.263     1226.150     1646.851     2140.250        1.085        0.251      119.440       23.806        0.040      329.746       -3.323      861.893
12/20/2013  09:55:00       64.119        2.479       20.529       44.026       34.579       30.094     1938.286     1195.741      905.674        0.429        0.202       64.166       25.142        0.154      329.823       -3.195      861.901
12/20/2013  09:56:00      105.555       83.628       40.612       52.004       36.507       35.315     2704.384     1332.782     1247.175        1.253        0.264      134.668       18.790        0.019      330.048       -2.829      861.885
12/20/2013  09:57:00       39.748       74.420       92.790       64.815       56.491       46.540     4201.036     3191.285     2165.957        1.264        0.478       84.370       38.989        0.214      330.116       -2.717      861.863
12/20/2013  09:58:00       85.706      104.349       53.362       59.949       31.854       46.858     3593.894     1014.646     2195.678        1.394        0.340      135.034       40.474        0.090      329.760       -3.300      861.854
12/20/2013  09:59:00       36.782       70.116       55.911       50.784       55.911       37.426     2579.058     3126.033     1400.675        0.825        0.355       79.179       31.791        0.161      330.263       -2.476      861.867
12/20/2013  10:00:00       67.234       59.357       40.281       58.768       31.243       31.094     3453.696      976.131      966.860        0.753        0.270       89.686       28.986        0.104      330.029       -2.859      861.899
12/20/2013  10:01:00       57.915       29.357       21.214       54.713       51.943       52.655     2993.474     2698.113     2772.583        0.656        0.423       64.930       33.713        0.270      329.940       -3.006      861.943
12/20/2013  10:02:00       62.184       68.223       27.509       47.078       36.925       43.110     2216.322     1363.464     1858.508        0.736        0.272       92.311       28.101        0.093      329.912       -3.052      861.955
12/20/2013  10:03:00       98.751       64.278        3.497       29.019       22.857       27.967      842.105      522.452      782.138        0.802        0.107      117.827       11.013        0.009      329.620       -3.529      861.934
12/20/2013  10:04:00       61.026       32.753        9.673       37.565       31.288       24.875     1411.128      978.965      618.743        0.395        0.150       69.260       16.657        0.058      329.754       -3.310      861.918
12/20/2013  10:05:00       14.909       42.087       54.437       27.649       44.250       48.393      764.474     1958.019     2341.923        0.501        0.253       44.650       38.369        0.738      330.233       -2.525      861.929
12/20/2013  10:06:00        9.860       98.715      108.204       32.189       50.114       28.120     1036.106     2511.457      790.762        1.294        0.217       99.206       31.343        0.100      330.061       -2.808      861.961
12/20/2013  10:07:00        6.012       91.609      109.799       28.540       49.371       25.946      814.513     2437.462      673.178        1.220        0.196       91.806       27.753        0.091      330.133       -2.689      861.968
12/20/2013  10:08:00       45.816      120.848      119.206       54.059       34.755       27.523     2922.361     1207.882      757.540        1.790        0.244      129.242       28.422        0.048      329.891       -3.085      861.952
12/20/2013  10:09:00       56.511        5.567       42.945       42.168       53.940       39.635     1778.182     2909.482     1570.914        0.566        0.313       56.785       37.478        0.436      330.006       -2.898      861.944
12/20/2013  10:10:00       28.320      -14.827       36.143       33.383       37.303       38.951     1114.442     1391.520     1517.198        0.318        0.201       31.967       23.786        0.554      330.244       -2.508      861.949
12/20/2013  10:11:00       86.305       67.155       28.620       77.159       70.137       38.229     5953.572     4919.205     1461.441        1.255        0.617      109.354       35.455        0.105      330.110       -2.728      861.956
12/20/2013  10:12:00      108.805       94.721       10.492       32.518       35.977       32.272     1057.425     1294.361     1041.480        1.216        0.170      144.259       15.622        0.012      329.811       -3.216      861.965
12/20/2013  10:13:00       61.809       57.289        5.047       28.721       25.439       23.457      824.924      647.151      550.229        0.457        0.101       84.276       16.339        0.038      329.815       -3.209      861.959
12/20/2013  10:14:00       -6.059       52.819       75.973       24.136       51.370       26.327      582.549     2638.828      693.112        0.626        0.196       53.165       22.829        0.184      330.507       -2.075      861.944
12/20/2013  10:15:00        6.336       19.456       55.771       39.340       56.138       40.863     1547.640     3151.425     1669.792        0.495        0.318       20.462       35.377        2.989      330.349       -2.333      861.933
12/20/2013  10:16:00       42.076       34.101       43.721       81.192       52.474       32.711     6592.093     2753.526     1069.987        0.763        0.521       54.160       25.353        0.219      330.340       -2.349      861.930
12/20/2013  10:17:00      108.224       75.702       20.557       25.646       26.135       24.701      657.742      683.026      610.143        0.991        0.098      132.073       12.366        0.009      329.685       -3.424      861.921
12/20/2013  10:18:00      109.428       72.734       36.857       39.226       31.740       38.406     1538.667     1007.456     1475.057        1.132        0.201      131.396       18.282        0.019      329.901       -3.071      861.893
12/20/2013  10:19:00       47.759       78.827       79.680       45.403       45.944       40.786     2061.408     2110.820     1663.481        1.034        0.292       92.167       22.904        0.062      330.226       -2.535      861.894
12/20/2013  10:20:00       36.226       59.392       79.028       64.281       59.310       41.196     4132.050     3517.728     1697.125        1.021        0.467       69.568       37.466        0.290      330.272       -2.462      861.910
12/20/2013  10:21:00       34.011      125.981      131.721       44.432       59.096       26.800     1974.190     3492.382      718.221        2.028        0.309      130.491       31.916        0.060      329.998       -2.911      861.923
12/20/2013  10:22:00      118.501      117.738       75.500       48.045       34.491       41.368     2308.308     1189.658     1711.321        1.941        0.260      167.047       32.897        0.039      329.906       -3.063      861.922
12/20/2013  10:23:00       57.339       72.584       81.472       50.057       60.022       42.484     2505.740     3602.642     1804.912        1.155        0.396       92.500       41.325        0.200      330.001       -2.905      861.904
12/20/2013  10:24:00       69.984       86.281       92.455       31.039       34.904       26.157      963.396     1218.304      684.207        1.188        0.143      111.095       13.141        0.014      329.988       -2.927      861.882
12/20/2013  10:25:00       63.157       22.415       62.389       29.910       42.366       31.252      894.579     1794.888      976.681        0.602        0.183       67.017       28.558        0.182      330.117       -2.716      861.869
12/20/2013  10:26:00       49.937       26.133       55.100       38.428       46.206       36.471     1476.747     2134.971     1330.146        0.558        0.247       56.362       36.429        0.418      330.292       -2.428      861.844
12/20/2013  10:27:00      106.612       85.145       85.048       63.177       64.989       52.770     3991.357     4223.510     2784.704        1.842        0.550      136.439       42.133        0.095      330.048       -2.829      861.836
12/20/2013  10:28:00       90.687       81.454       42.594       58.589       39.723       55.561     3432.622     1577.879     3086.996        1.238        0.405      121.897       37.840        0.096      330.047       -2.831      861.840
12/20/2013  10:29:00      114.479      100.076       64.213       36.462       29.335       37.487     1329.492      860.555     1405.304        1.542        0.180      152.055       20.567        0.018      329.938       -3.009      861.861
12/20/2013  10:30:00      100.532       61.142       68.325       56.335       46.186       42.766     3173.605     2133.144     1828.906        1.282        0.357      117.664       35.257        0.090      330.046       -2.832      861.879
12/20/2013  10:31:00       68.692       17.496       37.766       73.388       48.237       39.242     5385.786     2326.767     1539.904        0.785        0.463       70.885       39.939        0.317      330.260       -2.481      861.896
12/20/2013  10:32:00       35.715       75.753       83.367       69.754       47.036       44.689     4865.600     2212.349     1997.119        1.152        0.454       83.750       43.360        0.268      330.744       -1.686      861.906
12/20/2013  10:33:00       69.139       70.078       28.917       74.638       40.748       64.097     5570.897     1660.434     4108.448        1.093        0.567       98.444       52.825        0.288      330.331       -2.365      861.934
12/20/2013  10:34:00       35.694       13.606        8.149       53.206       58.211       30.881     2830.828     3388.534      953.648        0.435        0.359       38.200       29.052        0.578      330.524       -2.048      861.962
12/20/2013  10:35:00        9.997      -22.961       33.837       35.929       67.094       29.508     1290.925     4501.647      870.749        0.422        0.333       25.043       29.261        1.365      330.872       -1.476      862.000
12/20/2013  10:36:00       54.908       62.214       54.671       75.296       50.012       66.598     5669.544     2501.162     4435.336        1.124        0.630       82.979       66.175        0.636      330.576       -1.963      862.022
12/20/2013  10:37:00      112.407       95.427       16.342       63.670       41.229       38.129     4053.901     1699.829     1453.812        1.461        0.360      147.451       24.557        0.028      330.247       -2.503      862.055
12/20/2013  10:38:00      113.080       62.038        7.183       58.298       49.581       39.570     3398.632     2458.229     1565.789        1.205        0.371      128.980       27.446        0.045      330.181       -2.612      862.062
12/20/2013  10:39:00       83.912       73.762       41.439       47.547       48.446       41.842     2260.753     2347.004     1750.790        1.028        0.318      111.723       26.955        0.058      330.233       -2.526      862.043
12/20/2013  10:40:00       66.407       97.173      120.095       75.009       72.525       44.311     5626.405     5259.858     1963.442        2.056        0.642      117.696       51.471        0.191      330.294       -2.427      862.010
12/20/2013  10:41:00       40.261        4.250       50.046       57.420       54.560       39.887     3297.069     2976.818     1590.952        0.600        0.393       40.485       43.986        1.180      330.556       -1.995      861.974
12/20/2013  10:42:00       61.932      -55.265       32.837       78.104       98.030       57.857     6100.237     9609.878     3347.419        1.351        0.953       83.005       62.515        0.567      330.619       -1.893      861.918
12/20/2013  10:43:00       84.967      107.770       91.107       75.204       54.706       63.496     5655.569     2992.735     4031.688        1.991        0.634      137.236       59.318        0.187      330.343       -2.346      861.931
12/20/2013  10:44:00       36.697       52.907       86.328       39.532       47.385       31.949     1562.762     2245.373     1020.734        0.821        0.241       64.388       27.935        0.188      330.525       -2.046      861.944
12/20/2013  10:45:00       22.332       72.250       78.855       38.848       49.719       36.883     1509.177     2471.965     1360.344        0.864        0.267       75.622       30.316        0.161      330.512       -2.068      861.944
12/20/2013  10:46:00       73.996       54.680       54.459       60.744       48.943       27.190     3689.849     2395.465      739.294        0.913        0.341       92.007       15.580        0.029      330.579       -1.957      861.919
12/20/2013  10:47:00      114.420       86.203       72.800       57.384       67.235       52.204     3292.912     4520.556     2725.262        1.818        0.527      143.258       39.382        0.076      330.367       -2.307      861.884
12/20/2013  10:48:00      163.519       97.201       18.965       61.931       53.175       43.503     3835.496     2827.566     1892.504        2.255        0.428      190.228       26.860        0.020      330.357       -2.324      861.836
12/20/2013  10:49:00      117.115       84.866       43.799       85.063       62.137       56.334     7235.698     3860.984     3173.503        1.855        0.714      144.631       37.419        0.067      330.510       -2.072      861.795
12/20/2013  10:50:00      103.090       93.906       18.927       39.688       33.392       34.461     1575.115     1115.038     1187.554        1.184        0.194      139.448       18.099        0.017      330.221       -2.544      861.792
12/20/2013  10:51:00      163.162       77.312       12.017       75.835       47.316       50.057     5750.959     2238.809     2505.692        2.162        0.525      180.552       33.265        0.034      330.276       -2.456      861.771
12/20/2013  10:52:00       85.795       71.939       13.012       47.005       34.475       40.624     2209.466     1188.560     1650.289        0.888        0.252      111.964       15.064        0.018      330.403       -2.246      861.771
12/20/2013  10:53:00       94.434       42.734       12.804       55.480       35.563       37.120     3078.029     1264.718     1377.916        0.831        0.286      103.653       21.988        0.045      330.456       -2.161      861.748
12/20/2013  10:54:00       50.090       46.402       19.617       88.675       46.170       43.143     7863.249     2131.675     1861.330        0.845        0.593       68.280       24.362        0.127      330.626       -1.880      861.733
12/20/2013  10:55:00       95.596      104.774       78.479       62.578       47.132       49.249     3915.976     2221.437     2425.490        1.742        0.428      141.832       33.841        0.057      330.552       -2.003      861.726
12/20/2013  10:56:00       69.868      104.961       89.555       81.978       58.177       61.652     6720.423     3384.573     3800.915        1.891        0.695      126.089       55.746        0.195      330.652       -1.839      861.690
12/20/2013  10:57:00       40.455       65.633       62.784       34.421       46.725       38.548     1184.778     2183.207     1485.952        0.737        0.243       77.100       17.302        0.050      330.729       -1.711      861.692
12/20/2013  10:58:00       85.607       79.860       41.372       76.517       52.631       44.018     5854.856     2770.068     1937.603        1.299        0.528      117.073       47.375        0.164      330.627       -1.879      861.723
12/20/2013  10:59:00      138.639       82.973       27.233       60.885       53.133       53.423     3707.029     2823.089     2854.018        1.811        0.469      161.571       23.754        0.022      330.634       -1.869      861.802
12/20/2013  11:00:00      168.319      103.171       31.989       56.227       37.239       49.459     3161.423     1386.770     2446.223        2.350        0.350      197.422       35.822        0.033      330.498       -2.093      861.866
12/20/2013  11:01:00      128.171       99.575       54.023       31.614       25.451       35.803      999.443      647.777     1281.837        1.609        0.146      162.306       18.743        0.013      330.294       -2.426      861.870
12/20/2013  11:02:00       81.034       91.064       56.221       58.116       69.128       66.959     3377.520     4778.742     4483.573        1.533        0.632      121.898       61.831        0.257      330.431       -2.201      861.821
12/20/2013  11:03:00       32.530       28.963       70.800       38.485       39.343       27.241     1481.080     1547.909      742.087        0.534        0.189       43.556       25.430        0.341      330.791       -1.609      861.762
12/20/2013  11:04:00       43.799       21.358       16.482       49.511       43.108       30.477     2451.339     1858.316      928.842        0.394        0.262       48.728       19.639        0.162      330.648       -1.846      861.714
12/20/2013  11:05:00       77.450       75.969       26.020       54.284       36.149       35.271     2946.798     1306.733     1244.071        0.897        0.275      108.488       21.072        0.038      330.793       -1.606      861.661
12/20/2013  11:06:00       46.186       51.306       21.130       57.549       38.275       33.875     3311.933     1464.938     1147.504        0.557        0.296       69.032       29.957        0.188      330.920       -1.398      861.599
12/20/2013  11:07:00       55.839       40.466       -2.189       46.392       44.460       30.717     2152.249     1976.651      943.548        0.492        0.254       68.960       31.734        0.212      330.760       -1.661      861.552
12/20/2013  11:08:00       13.648       32.096       13.588       35.309       38.559       31.583     1246.736     1486.781      997.513        0.257        0.187       34.877       26.608        0.582      330.919       -1.399      861.505
12/20/2013  11:09:00        5.529       84.302       -2.148       31.901       37.769       29.399     1017.670     1426.467      864.295        0.522        0.165       84.483       22.667        0.072      330.847       -1.517      861.477
12/20/2013  11:10:00       26.790       68.342       13.046       25.750       38.298       33.392      663.060     1466.718     1115.044        0.440        0.162       73.406       28.179        0.147      330.902       -1.427      861.454
12/20/2013  11:11:00       31.134       28.814       21.859       55.892       33.845       38.809     3123.871     1145.512     1506.110        0.403        0.289       42.421       12.227        0.083      330.990       -1.285      861.424
12/20/2013  11:12:00       41.134       12.315       37.160       60.151       60.559       40.885     3618.104     3667.342     1671.603        0.609        0.448       42.938       30.783        0.514      331.161       -1.002      861.407
12/20/2013  11:13:00      -57.703      -30.049       28.238       58.064       83.366       40.587     3371.434     6949.960     1647.299        0.850        0.598       65.058       32.997        0.257      331.079       -1.138      861.379
12/20/2013  11:14:00       24.691       37.781       86.759       53.498       97.688       54.039     2862.052     9542.946     2920.232        1.244        0.766       45.134       58.338        1.671      330.985       -1.292      861.413
12/20/2013  11:15:00       57.466       53.160       69.362       57.040       46.935       44.967     3253.533     2202.894     2022.013        0.921        0.374       78.284       40.007        0.261      331.144       -1.031      861.426
12/20/2013  11:16:00       23.269       30.155       66.107       48.895       42.204       32.896     2390.739     1781.181     1082.172        0.554        0.263       38.090       25.494        0.448      331.305       -0.765      861.451
12/20/2013  11:17:00        8.538       87.285       98.152       46.894       50.201       42.850     2199.083     2520.144     1836.104        1.194        0.328       87.702       40.573        0.214      331.011       -1.249      861.438
12/20/2013  11:18:00       54.003      -22.445       27.409       55.565       63.252       41.175     3087.449     4000.877     1695.355        0.648        0.439       58.481       39.441        0.455      331.014       -1.244      861.424
12/20/2013  11:19:00        0.938      -13.378       42.448       23.312       60.012       40.620      543.444     3601.490     1649.959        0.389        0.290       13.411       45.869       11.698      331.232       -0.885      861.421
12/20/2013  11:20:00      120.231      135.296       91.700       97.252       53.516       63.662     9458.041     2863.961     4052.876        2.877        0.819      180.999       67.370        0.139      330.802       -1.596      861.456
12/20/2013  11:21:00       86.106       50.620       47.244       71.637       56.391       38.671     5131.811     3179.949     1495.465        1.101        0.490       99.883       39.319        0.155      330.713       -1.738      861.504
12/20/2013  11:22:00       94.517      105.096      117.837       72.141       72.097       57.087     5204.291     5197.940     3258.938        2.376        0.683      141.345       42.885        0.092      330.786       -1.619      861.501
12/20/2013  11:23:00       43.828      119.275      113.108       40.868       53.604       34.877     1670.192     2873.375     1216.388        1.735        0.288      127.072       32.580        0.066      330.817       -1.569      861.488
12/20/2013  11:24:00       58.756      119.896      107.334       45.958       36.777       35.887     2112.132     1352.552     1287.878        1.705        0.238      133.519       28.742        0.046      330.797       -1.600      861.462
12/20/2013  11:25:00       44.536       97.894      107.959       42.075       54.263       36.158     1770.326     2944.524     1307.409        1.462        0.301      107.549       40.525        0.142      330.780       -1.629      861.443
12/20/2013  11:26:00       23.552       95.720       94.494       31.063       45.980       32.159      964.893     2114.173     1034.202        1.138        0.206       98.575       30.433        0.095      330.862       -1.494      861.428
12/20/2013  11:27:00      103.040      102.318       70.610       35.145       25.601       31.804     1235.176      655.401     1011.484        1.449        0.145      145.211       21.142        0.021      330.839       -1.530      861.419
12/20/2013  11:28:00       56.617       66.003       34.691       45.997       26.651       29.430     2115.735      710.267      866.110        0.623        0.185       86.959       17.892        0.042      330.927       -1.388      861.402
12/20/2013  11:29:00       57.518       34.256        7.653       43.450       31.898       19.006     1887.944     1017.484      361.221        0.390        0.163       66.946       17.884        0.071      330.865       -1.488      861.379
12/20/2013  11:30:00        6.923        7.196       13.745       14.860       15.875       13.357      220.808      252.010      178.404        0.047        0.033        9.985       11.514        1.330      331.318       -0.744      861.346
12/20/2013  11:31:00       35.763       44.763       10.057       32.916       28.314       21.372     1083.446      801.674      456.751        0.286        0.117       57.295        9.564        0.028      331.169       -0.989      861.309
12/20/2013  11:32:00       53.305       70.075       76.118       62.222       60.909       41.006     3871.581     3709.880     1681.506        1.140        0.463       88.046       38.206        0.188      331.303       -0.770      861.278
12/20/2013  11:33:00      145.537       86.038       34.400       51.379       45.438       40.851     2639.777     2064.649     1668.810        1.807        0.319      169.067       21.424        0.016      330.977       -1.306      861.263
12/20/2013  11:34:00       22.645       67.027       12.368       35.419       39.181       28.225     1254.514     1535.114      796.635        0.437        0.179       70.749       18.693        0.070      331.134       -1.046      861.272
12/20/2013  11:35:00      -14.111       51.482       30.357       46.859       53.531       44.511     2195.752     2865.530     1981.256        0.541        0.352       53.381       39.628        0.551      331.269       -0.823      861.244
12/20/2013  11:36:00       14.232       12.983       37.703       36.229       42.389       43.540     1312.533     1796.812     1895.746        0.340        0.250       19.264       25.817        1.796      331.208       -0.925      861.202
12/20/2013  11:37:00      -11.843      -18.947       -4.857       21.643       24.392       17.266      468.436      594.973      298.106        0.094        0.068       22.343        6.011        0.072      331.143       -1.032      861.139
12/20/2013  11:38:00       22.369       71.649       97.772       55.744       55.040       41.929     3107.401     3029.445     1758.040        1.154        0.395       75.060       38.436        0.262      331.354       -0.684      861.049
12/20/2013  11:39:00       59.612       69.353       74.232       82.695       80.452       43.965     6838.493     6472.451     1932.903        1.456        0.762       91.452       41.390        0.205      331.236       -0.881      860.985
12/20/2013  11:40:00       90.175      109.449      110.792       67.819       53.274       47.576     4599.387     2838.159     2263.444        2.104        0.485      141.812       43.596        0.095      331.020       -1.235      860.970
12/20/2013  11:41:00       93.408       56.339       58.972       43.623       48.551       44.541     1902.983     2357.248     1983.867        1.081        0.312      109.083       33.852        0.096      330.902       -1.427      860.967
12/20/2013  11:42:00      100.638       72.599       52.528       61.328       37.898       40.164     3761.165     1436.222     1613.167        1.248        0.341      124.091       25.355        0.042      331.149       -1.022      860.937
12/20/2013  11:43:00       76.367       69.438       41.916       63.050       41.986       39.069     3975.354     1762.848     1526.416        0.984        0.363      103.216       37.664        0.133      331.050       -1.185      860.926
12/20/2013  11:44:00       21.998       30.999       11.522       42.093       29.733       26.419     1771.826      884.063      697.950        0.247        0.168       38.011       19.501        0.263      331.145       -1.029      860.898
12/20/2013  11:45:00      -39.230       73.166      -17.370       32.176       35.524       21.864     1035.284     1261.927      478.019        0.498        0.139       83.020       18.140        0.048      330.935       -1.373      860.875
12/20/2013  11:46:00      -49.197       49.357      -16.538       33.677       36.963       17.248     1134.125     1366.298      297.482        0.396        0.140       69.689       13.272        0.036      331.137       -1.042      860.842
12/20/2013  11:47:00      -20.918       72.784       -2.018       38.513       39.275       33.049     1483.242     1542.533     1092.256        0.493        0.206       75.730       28.652        0.143      331.472       -0.492      860.855
12/20/2013  11:48:00        7.032        9.285       20.808       22.199       20.180       19.448      492.785      407.242      378.207        0.092        0.064       11.648       18.975        2.654      332.166        0.653      860.893
12/20/2013  11:49:00       35.944       -1.593       -6.784       43.113       31.573       31.014     1858.773      996.872      961.867        0.258        0.191       35.979       27.612        0.589      331.748       -0.035      860.900
12/20/2013  11:50:00       57.192       30.142       15.372       43.306       43.533       31.681     1875.377     1895.100     1003.664        0.459        0.239       64.649       15.866        0.060      331.560       -0.345      860.877
12/20/2013  11:51:00       45.406       38.995       41.547       51.289       55.269       31.379     2630.565     3054.653      984.636        0.599        0.333       59.853       12.241        0.042      331.660       -0.181      860.865
12/20/2013  11:52:00       97.655       84.588       -2.196       22.246       23.907       27.214      494.881      571.550      740.628        0.925        0.090      129.196       18.802        0.021      330.969       -1.317      860.855
12/20/2013  11:53:00       27.218       66.455       11.653       31.452       42.700       31.442      989.208     1823.276      988.603        0.455        0.190       71.813       24.149        0.113      331.195       -0.947      860.829
12/20/2013  11:54:00      -22.405       87.783       -7.723       28.341       46.655       24.694      803.194     2176.644      609.783        0.593        0.179       90.597       21.390        0.056      331.148       -1.022      860.818
12/20/2013  11:55:00        8.123       27.786       15.995       17.517       46.170       21.054      306.845     2131.662      443.258        0.199        0.144       28.949       21.195        0.536      331.588       -0.299      860.819
12/20/2013  11:56:00       18.730       25.486       16.861       42.144       35.639       22.717     1776.143     1270.169      516.048        0.242        0.178       31.629       24.680        0.609      331.685       -0.140      860.833
12/20/2013  11:57:00       23.391       28.082        6.898       26.793       44.063       25.165      717.849     1941.557      633.292        0.234        0.165       36.548       26.031        0.507      331.240       -0.872      860.818
12/20/2013  11:58:00        4.983       17.490        7.870       15.901       16.624       19.206      252.848      276.356      368.879        0.065        0.045       18.187       12.527        0.474      331.584       -0.307      860.796
12/20/2013  11:59:00       -3.945        6.895        2.925        9.862       10.985       14.090       97.263      120.672      198.538        0.024        0.021        7.943        6.233        0.616      331.907        0.226      860.769
12/20/2013  12:00:00       44.419       47.306       51.203       26.264       26.183       19.324      689.783      685.562      373.423        0.429        0.087       64.891       16.259        0.063      331.644       -0.207      860.741
12/20/2013  12:01:00       47.597       41.632       47.794       39.998       39.190       31.256     1599.860     1535.874      976.912        0.520        0.206       63.235       30.757        0.237      331.473       -0.489      860.702
12/20/2013  12:02:00       -1.236       59.574       80.233       21.507       38.362       29.208      462.545     1471.649      853.113        0.639        0.139       59.586       27.524        0.213      331.695       -0.125      860.671
12/20/2013  12:03:00       48.189       58.324       46.250       56.952       48.477       25.353     3243.487     2350.064      642.795        0.705        0.312       75.656       16.914        0.050      331.435       -0.551      860.656
12/20/2013  12:04:00       36.231      -13.788       31.144       40.097       67.631       39.794     1607.741     4573.890     1583.597        0.512        0.388       38.766       44.945        1.344      331.603       -0.274      860.632
12/20/2013  12:05:00       46.142       48.156       28.964       61.979       34.891       40.524     3841.386     1217.399     1642.180        0.599        0.335       66.693       39.809        0.356      331.983        0.351      860.619
12/20/2013  12:06:00       79.645       57.666       10.434       42.843       40.153       32.710     1835.557     1612.247     1069.915        0.715        0.226       98.330       24.812        0.064      331.571       -0.329      860.616
12/20/2013  12:07:00       27.263       28.232       10.769       59.210       37.182       25.178     3505.793     1382.505      633.915        0.359        0.276       39.247       26.444        0.454      331.818        0.080      860.638
12/20/2013  12:08:00       25.419      -52.735       16.184       57.836       44.948       49.832     3344.976     2020.314     2483.206        0.577        0.392       58.542       35.925        0.377      331.852        0.137      860.641
12/20/2013  12:09:00       21.081      -60.293        9.153       36.876       56.445       45.753     1359.844     3186.081     2093.313        0.540        0.332       63.872       47.172        0.545      331.751       -0.032      860.653
12/20/2013  12:10:00       48.064      -47.220       -2.141       57.069       62.762       50.800     3256.814     3939.037     2580.619        0.716        0.489       67.378       50.551        0.563      331.574       -0.323      860.649
12/20/2013  12:11:00       15.594       13.312       52.315       30.084       51.291       35.072      905.038     2630.803     1230.016        0.396        0.238       20.503       39.722        3.753      331.933        0.268      860.657
12/20/2013  12:12:00       -6.624       30.015       21.024       14.701       31.080       29.451      216.128      965.976      867.356        0.172        0.102       30.737       10.796        0.123      332.025        0.419      860.660
12/20/2013  12:13:00       -6.110       -0.105       14.287        7.228        6.798       10.392       52.247       46.207      108.001        0.022        0.010        6.111        5.725        0.878      332.520        1.236      860.685
12/20/2013  12:14:00      -19.182       -0.426        5.032       18.170       16.384       18.705      330.140      268.439      349.882        0.067        0.047       19.187       13.754        0.514      332.174        0.667      860.692
12/20/2013  12:15:00       41.720       42.776       20.653       31.341       24.776       23.768      982.256      613.838      564.897        0.308        0.108       59.753        2.151        0.001      331.882        0.185      860.704
12/20/2013  12:16:00       37.287       14.485        4.180       52.133       28.823       25.583     2717.803      830.788      654.481        0.291        0.210       40.001       20.099        0.252      331.970        0.330      860.693
12/20/2013  12:17:00       -1.634       75.755        0.289       25.458       52.320       25.590      648.089     2737.413      654.823        0.489        0.202       75.772       27.063        0.128      331.755       -0.026      860.682
12/20/2013  12:18:00       37.784       40.851       -0.038       27.151       18.796       16.622      737.177      353.304      276.298        0.223        0.068       55.645        9.207        0.027      331.657       -0.186      860.642
12/20/2013  12:19:00       21.676       26.571       11.157       28.733       33.107       16.301      825.558     1096.087      265.733        0.174        0.109       34.291       14.996        0.191      332.124        0.583      860.626
12/20/2013  12:20:00       -8.405      -12.966       21.689       24.237       37.746       28.734      587.448     1424.730      825.664        0.177        0.142       15.452       15.098        0.955      332.341        0.941      860.630
12/20/2013  12:21:00        8.010      112.490       -6.802       41.519       54.821       30.847     1723.836     3005.383      951.545        0.922        0.284      112.774       27.516        0.060      331.888        0.195      860.663
12/20/2013  12:22:00       74.447       84.388       -1.783       54.283       52.903       32.827     2946.668     2798.704     1077.603        0.974        0.341      112.533       32.021        0.081      331.733       -0.062      860.667
12/20/2013  12:23:00       67.650       68.467        3.589       41.050       37.738       35.643     1685.121     1424.159     1270.451        0.683        0.219       96.251       29.243        0.092      331.704       -0.108      860.663
12/20/2013  12:24:00       56.198       66.369       -7.858       30.055       36.679       26.916      903.333     1345.372      724.465        0.530        0.149       86.966       21.857        0.063      331.619       -0.250      860.657
12/20/2013  12:25:00       55.590       69.010       -9.333       40.496       41.175       33.675     1639.934     1695.370     1134.039        0.620        0.223       88.615       31.334        0.125      331.609       -0.265      860.665
12/20/2013  12:26:00       77.566       42.573       20.593       61.113       50.426       47.619     3734.767     2542.791     2267.602        0.840        0.427       88.481       34.343        0.151      331.852        0.135      860.669
12/20/2013  12:27:00      -17.846       51.953       75.411       26.521       55.572       31.859      703.366     3088.279     1014.978        0.675        0.240       54.933       16.974        0.095      332.353        0.960      860.669
12/20/2013  12:28:00       30.867       34.388        1.405       31.435       45.181       26.400      988.145     2041.342      696.953        0.293        0.186       46.210        9.302        0.041      331.916        0.240      860.686
12/20/2013  12:29:00       76.358       84.789       -9.230       56.908       41.546       28.912     3238.569     1726.060      835.915        0.945        0.290      114.104       27.576        0.058      331.616       -0.254      860.685
12/20/2013  12:30:00       51.216       58.376       13.614       40.335       33.149       28.553     1626.885     1098.872      815.278        0.488        0.177       77.658       18.906        0.059      331.998        0.377      860.685
12/20/2013  12:31:00       35.944       43.631        4.148       15.575       42.926       28.631      242.572     1842.603      819.746        0.306        0.145       56.530       26.464        0.219      331.853        0.137      860.714
12/20/2013  12:32:00       54.698       89.682       -1.590       52.359       80.761       44.211     2741.509     6522.301     1954.642        1.113        0.561      105.047       49.060        0.218      331.906        0.224      860.754
12/20/2013  12:33:00       94.347      101.032        9.730       53.594       40.248       44.810     2872.352     1619.939     2007.965        1.285        0.325      138.235       30.589        0.049      331.738       -0.054      860.779
12/20/2013  12:34:00      103.168       84.679       -6.912       50.411       38.601       33.253     2541.278     1490.059     1105.741        1.150        0.257      133.470       27.153        0.041      331.776        0.010      860.785
12/20/2013  12:35:00       68.371       61.163        1.368       56.902       42.669       33.031     3237.797     1820.601     1091.075        0.728        0.307       91.736       30.919        0.114      331.868        0.159      860.799
12/20/2013  12:36:00       48.606       56.069       10.137       50.732       45.995       28.752     2573.751     2115.555      826.684        0.556        0.276       74.204       25.876        0.122      331.745       -0.040      860.819
12/20/2013  12:37:00        6.766       90.144       -4.814       24.622       55.376       22.256      606.236     3066.503      495.320        0.618        0.208       90.398       28.651        0.100      331.892        0.201      860.803
12/20/2013  12:38:00      -53.606       84.268      -15.123       36.964       38.148       22.380     1366.333     1455.306      500.867        0.676        0.166       99.874       23.396        0.055      331.772        0.003      860.761
12/20/2013  12:39:00      -58.892       71.030      -11.108       48.073       37.692       28.745     2311.042     1420.708      826.297        0.660        0.228       92.269       29.170        0.100      332.007        0.391      860.729
12/20/2013  12:40:00      -40.032       46.610       -3.125       36.562       35.928       20.477     1336.777     1290.838      419.300        0.342        0.152       61.441       23.946        0.152      332.204        0.715      860.676
12/20/2013  12:41:00       -8.256        6.763        9.075       19.217       14.940       13.744      369.292      223.209      188.895        0.049        0.039       10.672        8.022        0.565      332.478        1.167      860.631
12/20/2013  12:42:00       -3.743      -23.267      -12.495       34.943       16.955       23.505     1221.033      287.459      552.488        0.139        0.103       23.566       20.686        0.771      332.111        0.562      860.576
12/20/2013  12:43:00       30.942       38.843        6.502       29.732       27.704       18.074      884.008      767.502      326.678        0.224        0.099       49.661       17.892        0.130      332.211        0.728      860.499
12/20/2013  12:44:00       25.153       59.733       38.993       45.445       30.048       37.814     2065.241      902.904     1429.921        0.506        0.220       64.813       34.145        0.278      332.359        0.971      860.407
12/20/2013  12:45:00       33.965       73.035       85.211       53.680       35.680       27.917     2881.542     1273.051      779.359        0.934        0.247       80.546       26.664        0.110      332.312        0.892      860.320
12/20/2013  12:46:00       49.130       58.606       50.148       60.316       43.110       25.299     3638.005     1858.490      640.050        0.725        0.307       76.475       22.416        0.086      332.176        0.669      860.243
12/20/2013  12:47:00       65.118       34.529       73.553       80.990      106.033       79.620     6559.307    11242.958     6339.275        1.749        1.207       73.706       86.008        1.362      332.230        0.757      860.206
12/20/2013  12:48:00       98.012      -25.594       27.579       89.113      156.745       64.003     7941.142    24569.033     4096.364        2.381        1.830      101.299       93.760        0.857      332.039        0.441      860.164
12/20/2013  12:49:00      112.626     -167.247      -24.781       61.594       62.566       46.629     3793.856     3914.522     2174.254        2.557        0.494      201.634       34.197        0.029      332.226        0.750      860.153
12/20/2013  12:50:00       64.529        0.689       61.646       61.375      109.859       71.699     3766.867    12069.103     5140.773        1.447        1.049       64.533       80.990        1.575      332.382        1.007      860.174
12/20/2013  12:51:00       -3.116       57.533       93.674       33.110       60.702       48.765     1096.285     3684.705     2378.044        0.963        0.358       57.618       46.214        0.643      332.412        1.058      860.197
12/20/2013  12:52:00       67.286      108.750       89.151       52.269       34.097       36.606     2732.044     1162.624     1340.010        1.477        0.262      127.883       34.062        0.071      332.059        0.475      860.201
12/20/2013  12:53:00       12.073       72.387       77.904       37.630       34.411       22.439     1415.987     1184.107      503.493        0.728        0.155       73.387       17.416        0.056      332.268        0.820      860.197
12/20/2013  12:54:00       18.779       22.276       31.656       27.157       28.862       28.849      737.498      832.986      832.269        0.213        0.120       29.136       16.585        0.324      332.419        1.069      860.202
12/20/2013  12:55:00       14.987       75.404       -5.706       26.338       27.133       22.044      693.697      736.215      485.922        0.393        0.096       76.879       18.672        0.059      332.253        0.795      860.241
12/20/2013  12:56:00        4.740       87.851       -5.014       27.697       50.047       27.161      767.113     2504.687      737.709        0.589        0.200       87.979       23.593        0.072      332.401        1.039      860.294
12/20/2013  12:57:00        5.745      114.676       -7.554       27.162       53.742       30.208      737.754     2888.256      912.534        0.889        0.227      114.819       29.106        0.064      332.121        0.579      860.337
12/20/2013  12:58:00       24.307      121.212      -11.030       53.078       73.454       39.570     2817.305     5395.445     1565.807        1.259        0.489      123.625       41.896        0.115      332.201        0.710      860.332
12/20/2013  12:59:00       57.513       74.928       -5.668       51.298       44.117       34.741     2631.510     1946.302     1206.972        0.737        0.289       94.456       23.241        0.061      332.346        0.949      860.299
12/20/2013  13:00:00      114.462       91.576       -6.289       56.748       48.376       41.005     3220.297     2340.256     1681.408        1.438        0.362      146.587       23.919        0.027      332.124        0.582      860.251
12/20/2013  13:01:00      127.901       88.142       21.192       45.728       35.395       29.673     2091.092     1252.804      880.498        1.440        0.211      155.331       16.163        0.011      331.897        0.208      860.174
12/20/2013  13:02:00       37.758       44.436       21.472       31.343       43.917       29.617      982.403     1928.742      877.191        0.382        0.189       58.312       22.293        0.146      332.238        0.773      860.092
12/20/2013  13:03:00       22.303       26.702       43.784       41.182       57.269       37.026     1695.983     3279.698     1370.945        0.474        0.317       34.791       32.402        0.867      332.573        1.323      860.037
12/20/2013  13:04:00       47.413       73.644       91.504       46.641       44.232       29.140     2175.419     1956.454      849.134        1.051        0.249       87.587       23.949        0.075      332.331        0.925      860.042
12/20/2013  13:05:00       50.651       26.942       72.248       40.037       43.933       28.171     1602.952     1930.137      793.585        0.642        0.216       57.371       26.545        0.214      332.386        1.016      860.079
12/20/2013  13:06:00       33.822       22.573       33.319       36.478       29.337       19.286     1330.641      860.659      371.955        0.266        0.128       40.662       13.949        0.118      332.319        0.905      860.113
12/20/2013  13:07:00       46.243       22.935       45.073       43.331       57.436       46.754     1877.570     3298.944     2185.971        0.603        0.368       51.618       42.363        0.674      332.270        0.825      860.085
12/20/2013  13:08:00       56.162       64.188       63.132       28.938       35.130       29.364      837.412     1234.090      862.237        0.710        0.147       85.289       25.723        0.091      332.225        0.749      860.034
12/20/2013  13:09:00       11.931        0.192       22.925       13.280       28.950       17.955      176.362      838.121      322.381        0.100        0.067       11.932       20.177        2.859      332.326        0.917      860.000
12/20/2013  13:10:00       43.044       54.178       17.962       43.690       29.413       44.532     1908.842      865.144     1983.099        0.493        0.238       69.196       21.004        0.092      332.311        0.891      859.977
12/20/2013  13:11:00       62.512       50.657        6.510       43.994       33.817       32.549     1935.477     1143.569     1059.412        0.533        0.207       80.461       23.850        0.088      332.278        0.837      859.954
12/20/2013  13:12:00      119.689       72.192      -10.526       41.232       32.154       33.911     1700.090     1033.853     1149.981        1.177        0.194      139.775       19.782        0.020      332.125        0.585      859.927
12/20/2013  13:13:00       92.562       46.150        2.942       48.852       35.104       29.528     2386.480     1232.285      871.922        0.760        0.225      103.429       14.188        0.019      332.322        0.909      859.919
12/20/2013  13:14:00       75.883       57.418       -1.437       48.202       32.858       25.578     2323.468     1079.630      654.234        0.656        0.203       95.158       19.531        0.042      332.228        0.754      859.935
12/20/2013  13:15:00       19.059       50.651        6.010       33.068       43.909       31.428     1093.492     1928.024      987.688        0.349        0.200       54.118       23.164        0.183      332.452        1.124      859.947
12/20/2013  13:16:00       -1.603       67.496      -10.843       29.794       51.335       25.100      887.697     2635.326      630.015        0.441        0.208       67.515       19.419        0.083      332.438        1.100      859.947
12/20/2013  13:17:00       43.608       50.336       -0.482       37.606       42.937       26.806     1414.181     1843.597      718.549        0.421        0.199       66.599       20.780        0.097      332.420        1.071      859.918
12/20/2013  13:18:00       14.391       58.972       -5.746       27.503       50.567       22.824      756.410     2557.045      520.955        0.378        0.192       60.702       14.571        0.058      332.513        1.225      859.866
12/20/2013  13:19:00        4.229       43.075        3.047       32.467       48.667       31.961     1054.118     2368.429     1021.522        0.316        0.222       43.282       22.960        0.281      332.675        1.492      859.831
12/20/2013  13:20:00        4.712       39.653        9.669       17.711       30.537       25.153      313.687      932.517      632.651        0.178        0.094       39.932       20.647        0.267      332.762        1.635      859.837
12/20/2013  13:21:00       22.687       57.247        1.685       20.699       46.278       24.304      428.452     2141.656      590.691        0.348        0.158       61.579       23.878        0.150      332.551        1.288      859.851
12/20/2013  13:22:00       70.062       54.210       13.499       27.663       20.411       27.948      765.267      416.596      781.074        0.500        0.098       88.585       16.944        0.037      332.519        1.234      859.850
12/20/2013  13:23:00       60.816       67.614       19.712       54.809       31.879       27.734     3004.048     1016.265      769.152        0.672        0.239       90.941       25.031        0.076      332.650        1.451      859.823
12/20/2013  13:24:00       68.450       63.898        1.787       23.829       29.980       31.037      567.805      898.779      963.289        0.560        0.121       93.640       19.490        0.043      332.433        1.091      859.786
12/20/2013  13:25:00       19.201       22.314       30.647       46.893       28.018       28.026     2198.982      785.028      785.444        0.279        0.188       29.437       18.167        0.381      332.937        1.925      859.749
12/20/2013  13:26:00       34.544       42.797       50.339       52.192       36.627       38.407     2724.042     1341.566     1475.071        0.555        0.277       54.999       34.767        0.400      332.920        1.897      859.704
12/20/2013  13:27:00      104.179       63.390        6.918       51.081       43.492       35.068     2609.251     1891.541     1229.780        1.032        0.287      121.949       21.155        0.030      332.508        1.216      859.671
12/20/2013  13:28:00       37.727       49.112        4.376       34.650       37.693       22.776     1200.614     1420.733      518.729        0.350        0.157       61.930       22.135        0.128      332.563        1.307      859.643
12/20/2013  13:29:00       25.962       63.217       -3.299       20.165       32.976       17.099      406.610     1087.438      292.364        0.323        0.089       68.340       13.628        0.040      332.590        1.350      859.654
12/20/2013  13:30:00       22.536       30.419       58.119       46.269       63.063       40.017     2140.864     3976.883     1601.334        0.626        0.386       37.857       40.617        1.151      332.786        1.675      859.709
12/20/2013  13:31:00      120.432       70.890       28.626       28.564       27.867       33.400      815.900      776.569     1115.534        1.153        0.135      139.747       20.594        0.022      332.392        1.025      859.764
12/20/2013  13:32:00      111.487       55.960       14.054       45.114       26.969       32.688     2035.312      727.308     1068.475        0.979        0.192      124.743       17.351        0.019      332.441        1.105      859.825
12/20/2013  13:33:00       52.802       26.370       20.307       49.206       55.404       25.880     2421.226     3069.556      669.770        0.503        0.308       59.021       31.141        0.278      332.559        1.300      859.898
12/20/2013  13:34:00       89.807       72.852       10.725       33.724       18.247       34.790     1137.276      332.945     1210.342        0.808        0.134      115.641       16.149        0.020      332.384        1.010      859.932
12/20/2013  13:35:00       78.105       54.791        0.274       34.006       23.373       18.200     1156.389      546.274      331.224        0.557        0.102       95.407       10.846        0.013      332.385        1.014      859.916
12/20/2013  13:36:00        2.535       79.138        0.254       23.733       47.695       21.755      563.258     2274.811      473.285        0.479        0.166       79.178       14.780        0.035      332.520        1.235      859.888
12/20/2013  13:37:00       32.752       47.219       -5.916       21.397       25.782       20.914      457.836      664.696      437.396        0.245        0.078       57.466       13.525        0.055      332.545        1.277      859.884
12/20/2013  13:38:00       44.308       43.407       -1.019       21.826       24.810       20.391      476.382      615.512      415.810        0.268        0.075       62.027       14.624        0.056      332.531        1.255      859.890
12/20/2013  13:39:00       47.454       56.664       33.236       42.995       33.896       31.962     1848.573     1148.934     1021.576        0.529        0.201       73.910       13.288        0.032      332.612        1.388      859.891
12/20/2013  13:40:00        8.215       12.773       36.975       33.175       33.139       25.667     1100.600     1098.186      658.804        0.223        0.143       15.187       21.174        1.944      332.896        1.857      859.914
12/20/2013  13:41:00       16.840       74.505       90.398       42.312       48.514       37.726     1790.302     2353.647     1423.221        0.979        0.278       76.384       37.384        0.240      332.719        1.566      859.974
12/20/2013  13:42:00       15.626       92.857       87.297       48.477       45.897       37.031     2350.000     2106.530     1371.260        1.116        0.291       94.163       35.748        0.144      332.679        1.497      860.002
12/20/2013  13:43:00       49.577       98.953       91.934       69.431       40.400       45.860     4820.678     1632.134     2103.164        1.463        0.428      110.678       50.483        0.208      332.725        1.575      859.973
12/20/2013  13:44:00      109.827       60.732       33.839       47.759       42.371       37.192     2280.922     1795.304     1383.242        1.118        0.273      125.500       34.611        0.076      332.502        1.206      859.953
12/20/2013  13:45:00       38.853      -12.490        2.614       23.158       32.308       26.372      536.303     1043.801      695.459        0.197        0.114       40.811       21.217        0.270      332.543        1.273      859.962
12/20/2013  13:46:00        0.024      -49.454       -2.342       16.232       29.459       12.980      263.478      867.812      168.482        0.188        0.065       49.454        9.087        0.034      332.648        1.448      859.983
12/20/2013  13:47:00        8.789        4.970       15.759       32.834       36.681       25.226     1078.061     1345.477      636.368        0.170        0.153       10.097       14.723        2.126      332.985        2.005      859.984
12/20/2013  13:48:00       28.317      -22.103       19.496       41.796       22.412       31.218     1746.928      502.311      974.535        0.245        0.161       35.922       22.185        0.381      332.928        1.908      859.979
12/20/2013  13:49:00       23.890       33.126       36.497       22.491       27.407       23.150      505.867      751.143      535.934        0.240        0.090       40.842       18.115        0.197      332.921        1.898      859.949
12/20/2013  13:50:00       53.988       55.466       19.020       50.664       28.171       28.236     2566.846      793.588      797.275        0.525        0.208       77.403       30.844        0.159      332.810        1.715      859.911
12/20/2013  13:51:00       75.816       58.564        0.354       29.456       27.028       26.700      867.632      730.519      712.909        0.574        0.116       95.801       12.746        0.018      332.671        1.485      859.887
12/20/2013  13:52:00       37.264       71.517       -9.397       40.611       27.720       22.652     1649.271      768.394      513.104        0.476        0.147       80.643       14.200        0.031      332.612        1.388      859.899
12/20/2013  13:53:00        5.450      115.493      -15.803       19.653       42.690       20.597      386.237     1822.414      424.250        0.813        0.132      115.621       23.965        0.043      332.542        1.274      859.947
12/20/2013  13:54:00      -12.253      100.939      -13.857       29.857       27.452       17.586      891.459      753.586      309.252        0.624        0.098      101.680        9.947        0.010      332.546        1.278      860.021
12/20/2013  13:55:00       51.072       92.121       -8.731       23.945       35.501       29.904      573.365     1260.318      894.222        0.695        0.136      105.331       19.855        0.036      332.621        1.403      860.142
12/20/2013  13:56:00       51.051       30.210        3.446       29.484       30.034       25.060      869.299      902.039      628.026        0.296        0.120       59.320       13.843        0.054      332.680        1.499      860.196
12/20/2013  13:57:00        2.399       19.074       27.372       15.720       22.044       15.814      247.108      485.952      250.094        0.105        0.049       19.225        7.953        0.171      332.977        1.990      860.156
12/20/2013  13:58:00       44.494       64.841       41.180       36.012       25.478       25.177     1296.857      649.108      633.856        0.523        0.129       78.639       17.624        0.050      332.865        1.805      860.103
12/20/2013  13:59:00       75.030       57.150       38.414       44.990       25.241       36.096     2024.113      637.119     1302.922        0.717        0.198       94.317       28.687        0.093      332.816        1.726      860.055
12/20/2013  14:00:00       35.819       63.842       54.556       46.662       31.438       31.598     2177.331      988.361      998.462        0.625        0.208       73.204       24.092        0.108      332.849        1.780      860.015
12/20/2013  14:01:00       46.274       44.319        3.521       31.045       30.430       32.611      963.795      925.967     1063.454        0.354        0.148       64.074       17.202        0.072      332.779        1.664      859.959
12/20/2013  14:02:00        7.067      116.722      -19.170       33.759       50.793       20.219     1139.675     2579.940      408.792        0.908        0.206      116.936       28.108        0.058      332.799        1.696      859.874
12/20/2013  14:03:00      -12.458      110.751      -14.282       21.480       33.817       17.205      461.402     1143.605      296.027        0.726        0.095      111.449       15.838        0.020      332.550        1.286      859.802
12/20/2013  14:04:00       53.248       65.878       52.627       41.086       30.478       37.662     1688.031      928.907     1418.441        0.699        0.202       84.707        9.828        0.013      332.874        1.820      859.784
12/20/2013  14:05:00       -0.346       58.494       19.210       22.277       22.429       35.839      496.262      503.046     1284.423        0.304        0.114       58.496       14.480        0.061      332.878        1.829      859.781
12/20/2013  14:06:00       59.171       61.832        5.673       31.381       37.206       22.646      984.772     1384.272      512.850        0.512        0.144       85.582       22.078        0.067      332.868        1.812      859.746
12/20/2013  14:07:00       11.179       82.635       -6.612       35.872       47.637       22.007     1286.807     2269.254      484.301        0.552        0.202       83.387       26.013        0.097      332.744        1.607      859.725
12/20/2013  14:08:00      -13.645      101.234       -9.933       22.613       39.165       14.101      511.339     1533.884      198.842        0.639        0.112      102.149       13.210        0.017      332.775        1.657      859.739
12/20/2013  14:09:00        6.895       93.789      -11.432       25.870       44.052       22.396      669.266     1940.573      501.586        0.604        0.156       94.042       20.488        0.047      332.780        1.666      859.757
12/20/2013  14:10:00       29.229       60.282       -2.469       25.771       44.588       26.231      664.128     1988.109      688.054        0.392        0.167       66.994       24.995        0.139      332.805        1.706      859.758
12/20/2013  14:11:00       41.409       21.248       15.528       22.745       16.399       22.588      517.341      268.912      510.219        0.185        0.065       46.542        6.371        0.019      332.802        1.701      859.746
12/20/2013  14:12:00       36.279       34.796       -3.756       20.191       25.299       21.214      407.673      640.033      450.037        0.202        0.075       50.268       15.796        0.099      332.840        1.764      859.753
12/20/2013  14:13:00       42.684       38.544       11.930       33.022       30.914       24.657     1090.430      955.671      607.991        0.305        0.133       57.512       15.533        0.073      332.856        1.792      859.771
12/20/2013  14:14:00       40.449       34.651       -3.796       18.160       17.448       21.220      329.781      304.427      450.302        0.197        0.054       53.262       14.989        0.079      332.785        1.674      859.815
12/20/2013  14:15:00       70.887       36.545        4.053       39.677       29.742       27.896     1574.256      884.602      778.208        0.481        0.162       79.753       16.128        0.041      332.830        1.750      859.861
12/20/2013  14:16:00      115.500       69.775       -2.951       45.346       28.599       32.256     2056.277      817.904     1040.443        1.107        0.196      134.940       25.758        0.036      332.693        1.522      859.891
12/20/2013  14:17:00       26.519        7.036       11.506       24.259       22.138       25.142      588.515      490.081      632.132        0.130        0.086       27.437       18.459        0.453      332.886        1.841      859.896
12/20/2013  14:18:00       62.390       41.378        9.234       36.806       20.861       27.397     1354.650      435.183      750.592        0.411        0.127       74.864       20.914        0.078      332.778        1.662      859.873
12/20/2013  14:19:00       37.641       38.763       11.231       32.093       27.058       26.781     1029.957      732.149      717.204        0.276        0.124       54.032       13.712        0.064      332.983        2.002      859.863
12/20/2013  14:20:00        4.829      -11.603       37.025       19.520       29.034       17.327      381.029      842.997      300.230        0.153        0.076       12.568       16.772        1.781      333.339        2.589      859.845
12/20/2013  14:21:00        6.937        0.230       23.196       31.767       31.252       18.635     1009.147      976.662      347.249        0.146        0.117        6.941       22.276       10.302      333.176        2.320      859.814
12/20/2013  14:22:00       43.836       38.474       26.657       37.785       31.514       37.694     1427.690      993.143     1420.822        0.398        0.192       58.325       31.174        0.286      333.098        2.191      859.825
12/20/2013  14:23:00        0.312       29.593       -9.214       46.307       72.922       30.518     2144.378     5317.577      931.331        0.468        0.420       29.594       29.448        0.990      333.057        2.123      859.826
12/20/2013  14:24:00       20.003      114.550       -9.489       27.709       50.357       23.231      767.775     2535.808      539.685        0.873        0.192      116.284       22.435        0.037      332.861        1.799      859.833
12/20/2013  14:25:00       23.557       74.337      -11.336       28.017       36.783       25.528      784.927     1352.997      651.689        0.450        0.139       77.981       19.123        0.060      332.890        1.847      859.809
12/20/2013  14:26:00      -25.154       34.471       -2.023       54.365       40.629       22.640     2955.501     1650.720      512.559        0.347        0.256       42.672       30.552        0.513      333.034        2.084      859.783
12/20/2013  14:27:00      -26.451       71.343        2.272       25.130       26.423       20.809      631.511      698.171      432.995        0.378        0.088       76.088       16.915        0.049      332.934        1.920      859.759
12/20/2013  14:28:00        3.046       31.543       12.674       22.670       23.090       18.246      513.935      533.146      332.899        0.127        0.069       31.690       15.969        0.254      333.134        2.251      859.778
12/20/2013  14:29:00       20.970       18.178       21.154       21.555       14.240       14.394      464.635      202.767      207.189        0.105        0.044       27.752        6.781        0.060      333.149        2.275      859.851
12/20/2013  14:30:00       11.230       18.411        4.725       27.385       22.692       20.310      749.925      514.933      412.490        0.108        0.084       21.565        9.095        0.178      333.180        2.327      859.942
12/20/2013  14:31:00       49.472       32.700       -0.747       39.957       29.004       18.215     1596.540      841.213      331.804        0.314        0.138       59.302       13.510        0.052      333.108        2.207      859.968
12/20/2013  14:32:00       28.063       46.720       31.697       33.441       32.743       19.579     1118.287     1072.130      383.334        0.327        0.129       54.501       15.241        0.078      333.212        2.379      859.958
12/20/2013  14:33:00       20.377       19.540        6.727       34.019       23.433       20.053     1157.323      549.087      402.118        0.148        0.105       28.232       12.021        0.181      333.179        2.324      859.925
12/20/2013  14:34:00       28.434       21.045        4.240       40.422       30.175       23.675     1633.923      910.546      560.494        0.219        0.155       35.375       12.283        0.121      333.200        2.359      859.879
12/20/2013  14:35:00       85.178       44.566       43.254       57.609       42.827       42.350     3318.800     1834.152     1793.496        0.903        0.347       96.133       25.136        0.068      333.102        2.197      859.830
12/20/2013  14:36:00       71.299       49.126       32.956       50.190       50.591       42.594     2519.008     2559.400     1814.215        0.774        0.345       86.584       27.277        0.099      332.964        1.969      859.763
12/20/2013  14:37:00       92.866       70.444       16.367       53.207       26.390       26.938     2830.969      696.449      725.672        0.905        0.213      116.561       16.314        0.020      332.888        1.843      859.724
12/20/2013  14:38:00       89.384       58.174       -4.647       29.858       26.539       17.586      891.529      704.313      309.255        0.665        0.095      106.647       10.607        0.010      332.810        1.716      859.800
12/20/2013  14:39:00       52.882       19.830       -7.226       12.716       16.041       11.031      161.702      257.303      121.687        0.189        0.027       56.478        6.313        0.012      332.835        1.758      859.917
12/20/2013  14:40:00       25.255       48.122       23.968       22.997       20.530       31.056      528.865      421.495      964.458        0.272        0.096       54.347       13.712        0.064      333.053        2.116      859.986
12/20/2013  14:41:00       12.800       40.386       38.248       31.025       23.967       18.463      962.560      574.426      340.872        0.257        0.094       42.366       14.312        0.114      333.230        2.407      860.014
12/20/2013  14:42:00       22.455      124.630      -14.154       29.530       71.703       31.778      871.998     5141.354     1009.824        1.163        0.351      126.636       33.715        0.071      333.012        2.048      860.040
12/20/2013  14:43:00       15.859       86.078       -8.312       21.815       29.259       27.777      475.884      856.090      771.563        0.492        0.105       87.527       17.788        0.041      332.903        1.869      860.095
12/20/2013  14:44:00       40.780       47.472       -2.221       18.798       17.584       15.068      353.375      309.197      227.052        0.241        0.044       62.583       13.796        0.049      332.999        2.026      860.140
12/20/2013  14:45:00       57.938       64.888        8.857       43.081       37.828       41.057     1855.942     1430.960     1685.646        0.631        0.249       86.990       23.463        0.073      332.997        2.024      860.127
12/20/2013  14:46:00       37.159       78.416       -1.714       31.196       53.131       31.382      973.196     2822.948      984.828        0.616        0.239       86.774       30.001        0.120      332.975        1.988      860.091
12/20/2013  14:47:00        7.298       56.504       -2.925       37.735       38.928       27.244     1423.961     1515.363      742.209        0.347        0.184       56.974       26.318        0.213      333.141        2.261      860.068
12/20/2013  14:48:00       69.908       25.852       13.846       46.245       25.290       25.308     2138.607      639.585      640.472        0.458        0.171       74.535       10.174        0.019      333.101        2.198      860.000
12/20/2013  14:49:00      109.169       40.607       51.157       54.001       53.534       47.675     2916.151     2865.843     2272.894        1.212        0.403      116.477       43.022        0.136      333.102        2.197      859.887
12/20/2013  14:50:00       41.649       47.256       56.725       52.298       49.202       36.107     2735.049     2420.885     1303.690        0.682        0.323       62.990       40.273        0.409      333.208        2.372      859.809
12/20/2013  14:51:00       -1.688       46.834       72.348       41.829       34.881       21.575     1749.661     1216.697      465.491        0.543        0.172       46.865       23.585        0.253      333.371        2.642      859.791
12/20/2013  14:52:00       63.550       78.638       61.469       65.097       35.360       46.219     4237.602     1250.352     2136.185        1.081        0.381      101.107       44.388        0.193      333.186        2.337      859.799
12/20/2013  14:53:00       78.147       56.990       -6.117       60.317       37.950       29.525     3638.152     1440.183      871.729        0.767        0.298       96.721       17.829        0.034      333.071        2.146      859.855
12/20/2013  14:54:00       56.484       68.089       -7.043       35.540       52.163       37.545     1263.104     2720.963     1409.608        0.663        0.270       88.467       28.708        0.105      333.027        2.072      859.903
12/20/2013  14:55:00       79.863       77.482       -9.022       38.543       35.491       34.132     1485.533     1259.600     1164.998        0.819        0.196      111.272       23.954        0.046      332.935        1.921      859.899
12/20/2013  14:56:00       61.874       86.242       -7.339       40.523       33.083       34.019     1642.150     1094.499     1157.283        0.761        0.195      106.142       23.402        0.049      332.980        1.995      859.871
12/20/2013  14:57:00       83.385       54.755       11.247       47.388       38.217       29.814     2245.635     1460.509      888.891        0.734        0.230       99.756       25.234        0.064      333.078        2.157      859.858
12/20/2013  14:58:00      108.742      102.638        0.195       61.096       50.874       50.881     3732.703     2588.133     2588.905        1.563        0.445      149.531       35.473        0.056      332.987        2.007      859.857
12/20/2013  14:59:00      105.612       75.708       14.345       53.306       40.955       29.083     2841.514     1677.344      845.841        1.123        0.268      129.945       30.520        0.055      332.962        1.966      859.835
12/20/2013  15:00:00       85.674       49.352       10.671       36.298       25.202       32.962     1317.546      635.120     1086.502        0.646        0.152       98.872       16.311        0.027      333.059        2.127      859.817
12/20/2013  15:01:00       67.502       59.573        8.460       43.182       41.429       41.551     1864.692     1716.396     1726.446        0.674        0.265       90.030       28.808        0.102      333.007        2.039      859.809
12/20/2013  15:02:00       26.229       61.078        6.342       39.298       31.573       36.320     1544.365      996.874     1319.171        0.416        0.193       66.472       28.774        0.187      333.049        2.110      859.840
12/20/2013  15:03:00       43.544       50.848       -0.466       28.143       23.475       18.686      792.027      551.077      349.151        0.309        0.085       66.945       16.860        0.063      333.046        2.106      859.872
12/20/2013  15:04:00       36.887       40.875        5.751       32.472       15.532       18.393     1054.399      241.236      338.285        0.235        0.082       55.059       16.132        0.086      333.106        2.203      859.879
12/20/2013  15:05:00       81.250       61.910       12.295       25.779       18.409       21.007      664.541      338.895      441.285        0.601        0.072      102.149       12.426        0.015      333.074        2.152      859.902
12/20/2013  15:06:00       73.885       52.010        8.663       33.293       28.099       20.063     1108.443      789.534      402.527        0.527        0.115       90.355       12.102        0.018      333.168        2.305      859.923
12/20/2013  15:07:00       34.730       58.197       -2.209       33.543       27.514       27.226     1125.125      756.993      741.277        0.361        0.131       67.772       15.873        0.055      333.266        2.467      859.940
12/20/2013  15:08:00       63.366       86.841       -5.545       48.035       42.295       25.941     2307.347     1788.825      672.913        0.818        0.238      107.502       21.220        0.039      333.194        2.350      859.960
12/20/2013  15:09:00      100.213       75.025        2.296       34.459       28.694       23.290     1187.389      823.367      542.416        0.911        0.128      125.185        9.553        0.006      333.126        2.238      859.973
12/20/2013  15:10:00       81.853       56.147       24.575       49.929       34.387       22.579     2492.879     1182.466      509.826        0.732        0.209       99.259       17.670        0.032      333.225        2.401      859.956
12/20/2013  15:11:00      -15.361       48.579       60.529       20.795       33.374       21.051      432.419     1113.835      443.137        0.412        0.099       50.950       17.424        0.117      333.464        2.795      859.969
12/20/2013  15:12:00       35.793       44.255       39.378       37.029       32.330       25.916     1371.159     1045.257      671.639        0.394        0.154       56.918        8.542        0.023      333.372        2.643      860.004
12/20/2013  15:13:00       48.555       46.655       24.139       43.635       32.102       27.803     1904.042     1030.563      772.993        0.441        0.185       67.337       14.372        0.046      333.226        2.402      859.984
12/20/2013  15:14:00       41.762       46.157       -5.444       16.978       20.369       17.686      288.241      414.905      312.797        0.246        0.051       62.246       15.445        0.062      333.143        2.266      859.928
12/20/2013  15:15:00       25.397        9.541       -0.800       24.596       31.965       21.812      604.949     1021.792      475.747        0.142        0.105       27.130       10.155        0.140      333.235        2.418      859.863
12/20/2013  15:16:00       41.166       40.454       12.276       13.534       13.536       17.557      183.156      183.213      308.250        0.208        0.034       57.716       11.557        0.040      333.273        2.480      859.830
12/20/2013  15:17:00       11.502       24.642       34.527       27.468       21.186       20.599      754.498      448.830      424.314        0.178        0.081       27.194       12.752        0.220      333.477        2.817      859.802
12/20/2013  15:18:00       80.391       36.179       32.137       56.786       33.785       38.199     3224.606     1141.395     1459.173        0.731        0.291       88.157       34.926        0.157      333.273        2.479      859.808
12/20/2013  15:19:00       80.845       65.520       14.068       19.067       17.923       14.633      363.569      321.227      214.124        0.596        0.045      104.062        6.738        0.004      333.081        2.165      859.815
12/20/2013  15:20:00       53.103       39.773       24.273       26.108       19.089       14.650      681.603      364.388      214.610        0.313        0.063       66.346       10.630        0.026      333.199        2.357      859.811
12/20/2013  15:21:00       27.564       17.568       23.968       27.832       27.625       20.321      774.607      763.137      412.958        0.180        0.098       32.687        6.598        0.041      333.455        2.781      859.808
12/20/2013  15:22:00        6.265      -10.126       21.628       19.115       25.937       20.852      365.400      672.734      434.818        0.104        0.074       11.908       12.381        1.081      333.536        2.916      859.808
12/20/2013  15:23:00       52.272      -79.750       -6.219       30.413       33.317       26.069      924.979     1109.999      679.608        0.592        0.136       95.355       25.340        0.071      333.239        2.424      859.794
12/20/2013  15:24:00       43.016      -98.346      -11.185       24.406       26.073       12.050      595.677      679.794      145.194        0.653        0.071      107.342        4.775        0.002      333.158        2.291      859.776
12/20/2013  15:25:00       49.653      -96.710      -10.112       17.796       26.976       20.977      316.697      727.728      440.033        0.670        0.074      108.712        9.465        0.008      333.272        2.477      859.746
12/20/2013  15:26:00       -5.145        2.855       13.320       30.493       41.455       21.513      929.831     1718.487      462.816        0.166        0.156        5.884       22.140       14.157      333.425        2.732      859.720
12/20/2013  15:27:00       41.636      -77.142      -15.015       28.517       42.348       22.940      813.225     1793.383      526.247        0.552        0.157       87.661       14.078        0.026      333.303        2.530      859.721
12/20/2013  15:28:00        3.710       -1.311       15.787       19.253       23.787       18.599      370.678      565.799      345.935        0.077        0.064        3.935       12.552       10.175      333.461        2.792      859.733
12/20/2013  15:29:00       20.871      -72.220       -5.654       26.921       35.684       30.045      724.756     1273.340      902.684        0.429        0.145       75.176       27.007        0.129      333.434        2.746      859.720
12/20/2013  15:30:00        9.706       18.038       46.539       19.849       51.848       25.666      393.968     2688.184      658.743        0.316        0.187       20.483       32.734        2.554      333.470        2.805      859.687
12/20/2013  15:31:00        7.821      -32.370        7.056       32.612       35.555       23.278     1063.518     1264.145      541.854        0.201        0.143       33.302       21.947        0.434      333.487        2.833      859.688
12/20/2013  15:32:00       30.390       35.255       38.153       37.336       36.112       29.459     1393.961     1304.065      867.831        0.359        0.178       46.545       23.201        0.248      333.381        2.658      859.692
12/20/2013  15:33:00        7.373        6.937       42.748       20.985       38.940       24.403      440.380     1516.298      595.526        0.224        0.128       10.124       14.228        1.975      333.469        2.805      859.700
12/20/2013  15:34:00       15.372       25.952       26.239       24.197       29.130       21.593      585.487      848.549      466.262        0.175        0.095       30.163       19.657        0.425      333.379        2.654      859.732
12/20/2013  15:35:00       36.595       33.610       23.861       33.261       19.632       19.876     1106.319      385.412      395.039        0.246        0.094       49.688       13.347        0.072      333.293        2.511      859.749
12/20/2013  15:36:00       75.683       43.084       21.120       36.323       27.375       22.449     1319.364      749.388      503.979        0.530        0.129       87.087       15.612        0.032      333.232        2.411      859.760
12/20/2013  15:37:00       81.108       68.368       32.608       25.671       11.465       17.574      659.007      131.448      308.843        0.671        0.055      106.078        7.349        0.005      333.170        2.308      859.770
12/20/2013  15:38:00       78.216       72.504       44.293       30.689       18.834       27.038      941.811      354.716      731.042        0.768        0.101      106.652       19.864        0.035      333.194        2.348      859.800
12/20/2013  15:39:00       75.701       50.245       48.832       29.498       26.251       19.529      870.111      689.091      381.368        0.629        0.097       90.858       12.938        0.020      333.229        2.407      859.846
12/20/2013  15:40:00       62.420       30.741       18.688       36.994       26.803       23.346     1368.586      718.424      545.035        0.391        0.132       69.579       24.052        0.119      333.255        2.451      859.873
12/20/2013  15:41:00       95.059       40.530       23.706       32.015       24.635       28.538     1024.952      606.888      814.397        0.684        0.122      103.338       15.788        0.023      333.259        2.456      859.885
12/20/2013  15:42:00       67.711       35.743        9.871       31.612       30.340       24.779      999.348      920.512      613.978        0.425        0.127       76.566        6.596        0.007      333.216        2.384      859.900
12/20/2013  15:43:00       75.884       54.344        8.767       24.361       25.680       22.565      593.461      659.470      509.164        0.528        0.088       93.337       18.858        0.041      333.177        2.320      859.897
12/20/2013  15:44:00       77.283       61.509        0.165       23.535       20.999       17.294      553.874      440.953      299.081        0.552        0.065       98.772       11.219        0.013      333.168        2.307      859.912
12/20/2013  15:45:00       77.563       35.239        9.474       18.259       20.996       17.588      333.393      440.819      309.344        0.422        0.054       85.192       13.354        0.025      333.195        2.351      859.916
12/20/2013  15:46:00       62.041       18.434       36.377       29.077       31.625       29.451      845.444     1000.137      867.353        0.411        0.136       64.721       17.908        0.077      333.281        2.493      859.891
12/20/2013  15:47:00       69.448       57.197       33.795       21.036       18.073       28.157      442.525      326.643      792.805        0.540        0.078       89.970       20.686        0.053      333.270        2.475      859.874
12/20/2013  15:48:00       76.721       40.964       14.135       27.027       20.172       23.274      730.464      406.916      541.670        0.472        0.084       86.972       14.318        0.027      333.210        2.374      859.937
12/20/2013  15:49:00       94.609       58.532       16.046        9.424       21.716       19.976       88.810      471.600      399.042        0.680        0.048      111.251       15.959        0.021      333.171        2.310      860.015
12/20/2013  15:50:00       83.490       61.073       13.681       36.630       29.864       29.674     1341.778      891.856      880.517        0.700        0.156      103.443       19.685        0.036      333.191        2.343      860.026
12/20/2013  15:51:00       87.925       43.250       32.377       42.920       35.376       34.740     1842.102     1251.439     1206.897        0.747        0.215       97.987       25.234        0.066      333.223        2.395      859.994
12/20/2013  15:52:00      112.433       63.575       16.506       24.886       22.861       23.082      619.305      522.646      532.776        0.931        0.084      129.163       14.525        0.013      333.195        2.349      859.964
12/20/2013  15:53:00       73.020       48.924       14.126       38.165       28.199       23.358     1456.563      795.182      545.577        0.536        0.140       87.895       16.731        0.036      333.178        2.321      859.957
12/20/2013  15:54:00       29.933       48.954       59.407       29.345       25.668       25.187      861.151      658.829      634.363        0.449        0.108       57.380       12.761        0.049      333.246        2.435      859.963
12/20/2013  15:55:00       10.339       50.568       62.034       28.026       40.557       24.113      785.452     1644.836      581.437        0.476        0.151       51.614       23.147        0.201      333.334        2.580      859.982
12/20/2013  15:56:00       65.702       24.468       23.535       28.511       25.736       28.672      812.896      662.352      822.059        0.388        0.115       70.110       15.854        0.051      333.260        2.458      860.018
12/20/2013  15:57:00       74.291       55.604       10.910       19.129       16.721       21.345      365.936      279.593      455.603        0.492        0.055       92.795       14.757        0.025      333.191        2.342      860.040
12/20/2013  15:58:00       62.207       50.768       11.554       19.715       10.959       19.258      388.692      120.103      370.880        0.373        0.044       80.294       14.764        0.034      333.156        2.288      860.064
12/20/2013  15:59:00       74.131       46.823       12.229       19.780       13.548       15.906      391.264      183.556      252.987        0.433        0.041       87.680        9.327        0.011      333.169        2.308      860.083
12/20/2013  16:00:00       83.010       44.192        6.704       18.145       15.524       18.439      329.259      241.009      339.985        0.490        0.046       94.040        6.338        0.005      333.189        2.343      860.106
12/20/2013  16:01:00       54.448       55.000       25.086       24.100       19.066       23.272      580.811      363.506      541.596        0.405        0.074       77.392       17.139        0.049      333.257        2.452      860.113
12/20/2013  16:02:00       12.923       50.349       61.014       26.647       26.471       20.934      710.076      700.689      438.236        0.414        0.092       51.982       21.363        0.169      333.291        2.510      860.078
12/20/2013  16:03:00        7.633       61.817       69.682       22.449       29.209       16.170      503.941      853.185      261.480        0.518        0.081       62.287       16.747        0.072      333.310        2.541      860.054
12/20/2013  16:04:00       -2.919       59.039       73.157       17.896       32.936       18.516      320.264     1084.756      342.854        0.530        0.087       59.111       18.418        0.097      333.298        2.522      860.067
12/20/2013  16:05:00       30.897       66.669       57.749       26.733       22.523       16.368      714.651      507.266      267.913        0.511        0.074       73.480        8.906        0.015      333.255        2.449      860.065
12/20/2013  16:06:00       31.374       61.775       59.546       21.711       19.731       14.943      471.349      389.320      223.306        0.471        0.054       69.286       10.712        0.024      333.278        2.488      860.011
12/20/2013  16:07:00       38.652       43.440       49.970       43.864       35.273       27.427     1924.030     1244.210      752.227        0.490        0.196       58.147       34.519        0.352      333.254        2.448      859.962
12/20/2013  16:08:00       56.974       67.619       52.057       37.702       30.409       30.486     1421.413      924.733      929.421        0.690        0.164       88.422       25.378        0.082      333.254        2.448      859.940
12/20/2013  16:09:00       72.861       51.860       33.899       32.651       33.194       24.856     1066.058     1101.827      617.845        0.597        0.139       89.433       17.854        0.040      333.286        2.501      859.905
12/20/2013  16:10:00       66.561       16.534       22.608       43.578       28.424       23.069     1899.048      807.922      532.181        0.423        0.162       68.584       24.269        0.125      333.262        2.461      859.891
12/20/2013  16:11:00       96.717       58.346       26.768       35.103       18.702       25.656     1232.238      349.761      658.255        0.786        0.112      112.953       19.590        0.030      333.179        2.322      859.916
12/20/2013  16:12:00       94.528       66.425       23.803       17.234       13.634       14.449      297.015      185.893      208.762        0.730        0.035      115.533       10.187        0.008      333.162        2.296      859.931
12/20/2013  16:13:00       74.772       60.033        9.482       15.519       15.599       17.149      240.842      243.343      294.079        0.503        0.039       95.889        8.625        0.008      333.120        2.225      859.930
12/20/2013  16:14:00       69.841       47.435       18.930       14.892       14.129       17.971      221.761      199.626      322.952        0.412        0.037       84.426       10.659        0.016      333.116        2.221      859.928
12/20/2013  16:15:00       50.667       32.590       37.758       21.439       19.695       16.346      459.624      387.897      267.176        0.308        0.056       60.243        9.007        0.022      333.145        2.267      859.919
12/20/2013  16:16:00       29.913       46.423       49.243       23.871       36.010       23.185      569.842     1296.697      537.559        0.394        0.120       55.226       26.607        0.232      333.176        2.318      859.869
12/20/2013  16:17:00       26.941       70.890       54.503       29.639       28.423       21.338      878.487      807.856      455.329        0.543        0.107       75.837       12.848        0.029      333.168        2.305      859.854
12/20/2013  16:18:00       63.945       50.065       37.420       25.079       15.927       22.169      628.951      253.675      491.454        0.468        0.069       81.213        7.808        0.009      333.099        2.194      859.855
12/20/2013  16:19:00       28.276       48.344       43.649       32.750       24.256       16.464     1072.579      588.371      271.054        0.349        0.097       56.006       14.213        0.064      333.073        2.150      859.835
12/20/2013  16:20:00       16.682       42.396       56.589       18.222       22.148       12.687      332.031      490.528      160.953        0.313        0.049       45.560       13.087        0.083      333.148        2.275      859.811
12/20/2013  16:21:00       57.381       53.917       44.423       42.344       25.545       21.771     1792.977      652.548      473.993        0.555        0.146       78.738       18.050        0.053      333.154        2.282      859.786
12/20/2013  16:22:00       96.403       47.569       27.020       32.426       20.173       28.553     1051.464      406.933      815.282        0.728        0.114      107.500       19.908        0.034      333.160        2.291      859.787
12/20/2013  16:23:00       72.658       46.005       24.826       32.657       24.352       20.633     1066.457      593.014      425.706        0.505        0.104       85.998       17.145        0.040      333.095        2.187      859.808
12/20/2013  16:24:00       73.930       46.727       27.267       23.265       16.535       19.614      541.277      273.401      384.707        0.480        0.060       87.459       11.118        0.016      333.030        2.079      859.850
12/20/2013  16:25:00       85.934       51.831       15.058       27.795       20.324       25.624      772.535      413.056      656.605        0.607        0.092      100.355       20.006        0.040      333.077        2.158      859.918
12/20/2013  16:26:00      103.884       64.330       23.357       37.111       21.421       20.375     1377.238      458.880      415.156        0.886        0.113      122.189       18.318        0.022      333.139        2.257      859.956
12/20/2013  16:27:00      128.088       68.838       25.419       28.884       21.660       26.947      834.299      469.150      726.151        1.191        0.101      145.414       17.075        0.014      333.089        2.175      859.946
12/20/2013  16:28:00      103.541       52.319       14.272       32.004       25.458       21.749     1024.232      648.095      473.014        0.790        0.107      116.008       12.252        0.011      333.072        2.150      859.961
12/20/2013  16:29:00       85.893       47.457        8.528       23.980       24.352       18.730      575.050      593.021      350.820        0.561        0.076       98.132       12.535        0.016      333.014        2.052      859.997
12/20/2013  16:30:00       84.146       68.636        3.511       27.585       21.935       15.853      760.932      481.159      251.320        0.665        0.075      108.588       12.405        0.013      332.992        2.015      859.994
12/20/2013  16:31:00      100.413       79.308       17.767       35.880       20.262       19.254     1287.361      410.547      370.723        0.938        0.103      127.955       11.591        0.008      332.988        2.009      859.978
12/20/2013  16:32:00       74.906       54.545        3.663       24.665       21.717       19.775      608.382      471.615      391.049        0.504        0.074       92.661       13.710        0.022      332.974        1.985      859.956
12/20/2013  16:33:00       65.002       49.501        6.278       24.420       23.792       20.858      596.352      566.041      435.059        0.416        0.080       81.705       14.973        0.034      332.963        1.968      859.947
12/20/2013  16:34:00       54.598       52.447       -2.236       33.772       22.733       19.857     1140.534      516.789      394.282        0.389        0.103       75.707       15.099        0.040      332.954        1.951      859.924
12/20/2013  16:35:00       41.047       32.573       -1.936       21.239       24.536       18.037      451.095      602.006      325.329        0.206        0.069       52.401       13.207        0.064      332.948        1.942      859.887
12/20/2013  16:36:00       60.502       50.171        1.634       26.030       27.248       25.763      677.545      742.434      663.737        0.413        0.104       78.598       22.132        0.079      332.954        1.951      859.884
12/20/2013  16:37:00       25.414       35.488        5.546       27.889       24.700       21.287      777.809      610.096      453.147        0.189        0.092       43.650       16.781        0.148      332.936        1.923      859.898
12/20/2013  16:38:00       31.796       44.625       -1.167       35.129       23.934       23.380     1234.015      572.849      546.635        0.268        0.118       54.794       18.285        0.111      332.928        1.909      859.890
12/20/2013  16:39:00       86.131       49.994       10.359       17.948       15.873       15.985      322.133      251.961      255.505        0.543        0.041       99.589        9.310        0.009      332.977        1.991      859.862
12/20/2013  16:40:00       63.907       45.648        9.907       27.667       17.703       19.007      765.455      313.402      361.272        0.385        0.072       78.536       12.567        0.026      332.932        1.915      859.860
12/20/2013  16:41:00       33.721       37.041        1.942       18.263       20.392       14.772      333.524      415.833      218.211        0.174        0.048       50.091       10.386        0.043      332.910        1.880      859.879
12/20/2013  16:42:00       39.097       46.112        2.011       25.254       21.586       14.957      637.741      465.955      223.723        0.249        0.066       60.455       13.513        0.050      332.895        1.858      859.914
12/20/2013  16:43:00       28.363       67.007       -9.082       20.404       26.760       13.676      416.325      716.082      187.045        0.335        0.066       72.763       14.713        0.041      332.899        1.862      859.938
12/20/2013  16:44:00       39.312       60.991      -12.452       19.876       31.041       19.184      395.059      963.561      368.030        0.357        0.086       72.563       12.478        0.030      332.899        1.863      859.935
12/20/2013  16:45:00       36.371       41.381       -1.933       29.278       22.511       19.274      857.222      506.760      371.476        0.239        0.087       55.093       14.584        0.070      332.884        1.839      859.930
12/20/2013  16:46:00       35.806       76.258       -5.216       16.136       27.853       19.278      260.375      775.769      371.635        0.427        0.070       84.246       16.109        0.037      332.871        1.815      859.931
12/20/2013  16:47:00       38.785       70.191       -7.863       22.635       32.978       22.410      512.364     1087.526      502.207        0.430        0.105       80.194       21.273        0.070      332.869        1.813      859.933
12/20/2013  16:48:00       47.969       38.901        0.648       22.893       22.745       20.737      524.085      517.332      430.013        0.264        0.074       61.760       16.685        0.073      332.861        1.800      859.922
12/20/2013  16:49:00       49.472       43.995       -2.578       24.686       25.205       20.029      609.422      635.272      401.179        0.302        0.082       66.205       15.945        0.058      332.866        1.808      859.896
12/20/2013  16:50:00       80.378       49.512        8.627       23.380       19.113       18.100      546.648      365.296      327.605        0.511        0.062       94.404        4.053        0.002      332.870        1.815      859.859
12/20/2013  16:51:00       74.845       59.176       28.427       37.749       23.484       25.092     1424.978      551.504      629.605        0.626        0.130       95.413       24.347        0.065      332.911        1.882      859.838
12/20/2013  16:52:00       48.640       32.015       36.393       26.329       24.002       20.444      693.216      576.073      417.969        0.320        0.084       58.231       18.997        0.106      332.889        1.846      859.850
12/20/2013  16:53:00       48.161       41.701       40.546       19.505       22.024       13.728      380.445      485.042      188.461        0.338        0.053       63.706       11.344        0.032      332.897        1.860      859.873
12/20/2013  16:54:00       91.203       44.383       23.021       25.169       21.272       18.622      633.498      452.511      346.788        0.613        0.072      101.429        8.781        0.007      332.870        1.816      859.889
12/20/2013  16:55:00       74.972       44.415       19.263       22.303       23.383       20.408      497.418      546.765      416.486        0.471        0.073       87.140       10.033        0.013      332.831        1.751      859.889
12/20/2013  16:56:00       60.275       43.766       40.825       21.607       13.272       14.860      466.868      176.152      220.832        0.404        0.043       74.489       12.200        0.027      332.842        1.770      859.857
12/20/2013  16:57:00       70.069       46.468       35.490       23.266       16.516       22.953      541.325      272.766      526.860        0.483        0.067       84.077       14.488        0.030      332.903        1.868      859.823
12/20/2013  16:58:00       45.991       27.689       22.102       22.734       11.476       13.964      516.837      131.700      194.999        0.211        0.042       53.683       10.876        0.041      332.921        1.900      859.821
12/20/2013  16:59:00       70.604       43.393       21.033       14.063       10.337       13.020      197.759      106.859      169.511        0.389        0.024       82.872        9.370        0.013      332.909        1.879      859.854
12/20/2013  17:00:00       72.685       34.360        9.701       18.933       14.747       13.559      358.476      217.477      183.852        0.366        0.038       80.398       11.981        0.022      332.880        1.832      859.892
12/20/2013  17:01:00       62.454       46.820        5.250       17.060       13.772       12.205      291.059      189.658      148.970        0.337        0.031       78.055       10.009        0.016      332.860        1.798      859.891
12/20/2013  17:02:00       70.309       45.682       11.729       18.736       11.673       14.651      351.051      136.266      214.658        0.393        0.035       83.846       10.246        0.015      332.917        1.893      859.830
12/20/2013  17:03:00       65.670       44.343       32.371       17.720       12.451       13.943      313.984      155.015      194.396        0.399        0.033       79.240        6.351        0.006      332.891        1.849      859.754
12/20/2013  17:04:00       54.375       28.469       31.471       13.760       18.184       20.947      189.336      330.668      438.762        0.286        0.048       61.377        9.471        0.024      332.929        1.911      859.729
12/20/2013  17:05:00       61.696       33.973       36.323       15.221       22.943       20.696      231.682      526.365      428.339        0.373        0.059       70.432        6.609        0.009      332.890        1.848      859.716
12/20/2013  17:06:00       70.749       46.447       26.814       17.205       15.540       22.085      296.003      241.497      487.768        0.445        0.051       84.634       13.101        0.024      332.907        1.875      859.704
12/20/2013  17:07:00       37.973       56.197       57.494       30.119       23.823       15.252      907.140      567.557      232.609        0.481        0.085       67.823        6.001        0.008      332.927        1.908      859.681
12/20/2013  17:08:00       23.491       33.385       44.055       24.121       28.815       15.349      581.839      830.298      235.587        0.263        0.082       40.821       10.562        0.067      332.937        1.925      859.684
12/20/2013  17:09:00       20.769       22.053       23.211       19.760       20.957       18.773      390.455      439.193      352.419        0.132        0.059       30.293       13.880        0.210      332.950        1.946      859.711
12/20/2013  17:10:00        3.736        0.214        5.148        9.446       10.927        9.034       89.220      119.393       81.605        0.017        0.015        3.742        7.652        4.181      332.843        1.769      859.736
12/20/2013  17:11:00       10.125       -0.673        4.258       13.321       10.486        8.438      177.436      109.947       71.208        0.024        0.018       10.147        7.818        0.594      332.730        1.583      859.779
12/20/2013  17:12:00      -12.626      -13.454        0.966        7.114        6.224        5.512       50.612       38.738       30.382        0.023        0.006       18.451        3.063        0.028      332.633        1.422      859.831
12/20/2013  17:13:00       -1.081       -8.946        3.584        8.849       15.703       10.530       78.312      246.592      110.890        0.026        0.022        9.011        5.680        0.397      332.650        1.451      859.852
12/20/2013  17:14:00       -5.054       -1.429       -0.008        9.837        7.866        6.346       96.775       61.874       40.267        0.011        0.010        5.252        3.634        0.479      332.568        1.315      859.824
12/20/2013  17:15:00      -43.923       -4.075       -8.472       21.456       13.801        9.178      460.377      190.460       84.238        0.138        0.037       44.112        6.807        0.024      332.288        0.853      859.797
12/20/2013  17:16:00      -57.203       -1.407       -3.726       18.561       19.402       18.546      344.513      376.448      343.968        0.218        0.053       57.221       14.074        0.060      332.148        0.624      859.767
12/20/2013  17:17:00      -86.966       11.087      -10.774       26.584       16.417       12.300      706.716      269.507      151.299        0.446        0.056       87.670        2.294        0.001      332.216        0.735      859.740
12/20/2013  17:18:00      -95.197        8.626      -11.157       29.985       18.353       17.152      899.089      336.841      294.182        0.540        0.077       95.587       17.939        0.035      332.237        0.771      859.724
12/20/2013  17:19:00      -63.139        7.282       -8.806       43.883       18.221       17.308     1925.758      332.008      299.582        0.334        0.128       63.557       19.774        0.097      332.201        0.711      859.720
12/20/2013  17:20:00      -39.372       12.177      -17.809       20.338       27.915       13.498      413.630      779.245      182.201        0.170        0.069       41.212       10.179        0.061      332.171        0.661      859.732
12/20/2013  17:21:00      -65.806        0.456      -14.889       17.658       24.157       14.518      311.791      583.541      210.766        0.283        0.055       65.808       13.063        0.039      332.116        0.569      859.737
12/20/2013  17:22:00      -64.334      -10.563       -5.871       32.867       29.334       19.523     1080.216      860.480      381.146        0.330        0.116       65.195       19.071        0.086      332.063        0.484      859.752
12/20/2013  17:23:00      -89.029      -15.556        5.965       48.904       32.118       24.963     2391.620     1031.547      623.172        0.612        0.202       90.378       17.469        0.037      331.995        0.369      859.768
12/20/2013  17:24:00      -87.161        0.149        5.971       48.255       33.830       24.837     2328.521     1144.452      616.879        0.586        0.204       87.161       24.009        0.076      331.997        0.373      859.814
12/20/2013  17:25:00     -108.137        3.109      -10.587       47.655       40.015       23.917     2270.973     1601.227      572.043        0.813        0.222      108.182       24.179        0.050      332.071        0.497      859.865
12/20/2013  17:26:00      -99.111       11.111      -10.942       29.827       31.505       21.326      889.637      992.596      454.811        0.620        0.117       99.732        9.748        0.010      332.115        0.568      859.912
12/20/2013  17:27:00      -86.912      -13.627      -12.244       25.607       27.014       14.224      655.700      729.771      202.336        0.474        0.079       87.974        8.474        0.009      332.206        0.717      859.910
12/20/2013  17:28:00      -90.077      -58.182       -3.420       33.681       31.108       22.970     1134.392      967.706      527.626        0.707        0.131      107.233       16.475        0.024      332.089        0.525      859.915
12/20/2013  17:29:00     -139.887      -14.926       -7.981       36.105       30.429       21.649     1303.570      925.911      468.681        1.128        0.135      140.681       20.409        0.021      332.011        0.396      859.886
12/20/2013  17:30:00     -146.671      -60.472       -7.138       21.113       18.668       14.477      445.750      348.511      209.578        1.311        0.050      158.648        7.867        0.002      332.013        0.398      859.825
12/20/2013  17:31:00     -102.936      -54.359        3.064       32.240       32.013       23.694     1039.432     1024.852      561.398        0.809        0.131      116.408       20.626        0.031      332.074        0.500      859.762
12/20/2013  17:32:00     -105.965      -41.758       -7.311       22.556       25.033       14.162      508.787      626.670      200.558        0.718        0.067      113.896       10.911        0.009      332.098        0.540      859.704
12/20/2013  17:33:00      -65.087      -54.412        2.456       26.868       21.246       19.657      721.884      451.409      386.385        0.438        0.078       84.835       13.938        0.027      332.114        0.565      859.659
12/20/2013  17:34:00      -67.892      -21.983       -0.720       22.895       17.790       12.685      524.194      316.476      160.900        0.305        0.050       71.362       12.552        0.031      332.157        0.637      859.639
12/20/2013  17:35:00      -68.272      -23.037       -2.143       26.582       19.724       14.350      706.581      389.028      205.920        0.325        0.065       72.054       12.440        0.030      332.266        0.818      859.660
12/20/2013  17:36:00      -48.176      -16.820        0.067       35.956       23.594       13.193     1292.866      556.685      174.057        0.231        0.101       51.028       15.819        0.096      332.246        0.785      859.673
12/20/2013  17:37:00      -67.075      -10.466       -0.381       29.511       19.784       15.033      870.911      391.423      225.992        0.305        0.074       67.887       12.770        0.035      332.147        0.620      859.686
12/20/2013  17:38:00      -95.450      -21.468       -2.517       19.064       15.385       13.650      363.429      236.703      186.324        0.518        0.039       97.835       10.621        0.012      332.161        0.643      859.661
12/20/2013  17:39:00      -91.853      -14.683       -6.066       32.879       23.899       14.737     1081.053      571.184      217.194        0.528        0.093       93.019       16.282        0.031      332.117        0.572      859.683
12/20/2013  17:40:00     -114.619      -19.383      -12.780       19.776       17.558       11.296      391.082      308.286      127.598        0.725        0.041      116.246        8.049        0.005      332.071        0.496      859.660
12/20/2013  17:41:00     -104.061      -15.266       -8.207       21.185       14.182       12.572      448.813      201.138      158.051        0.597        0.040      105.175       12.273        0.014      332.074        0.501      859.588
12/20/2013  17:42:00      -95.112      -20.130       -4.038       22.930       20.443       21.412      525.783      417.936      458.459        0.543        0.070       97.219       18.703        0.037      332.129        0.591      859.580
12/20/2013  17:43:00      -93.785      -27.606       -5.473       30.509       23.498       19.160      930.783      552.143      367.103        0.572        0.093       97.763       18.473        0.036      332.029        0.427      859.601
12/20/2013  17:44:00      -88.116       -2.888       -1.564       38.564       23.480       21.333     1487.194      551.317      455.112        0.513        0.125       88.163       20.773        0.056      332.037        0.438      859.649
12/20/2013  17:45:00      -54.842      -24.618        3.538       42.807       31.134       16.728     1832.406      969.329      279.842        0.335        0.154       60.114       17.987        0.090      332.140        0.609      859.684
12/20/2013  17:46:00      -91.984      -24.070       -3.329       18.841       22.562       14.666      354.978      509.062      215.082        0.507        0.054       95.081       10.384        0.012      332.095        0.535      859.673
12/20/2013  17:47:00      -96.530      -14.471       -3.134       37.065       34.328       18.672     1373.788     1178.378      348.646        0.622        0.145       97.608       21.345        0.048      332.101        0.547      859.646
12/20/2013  17:48:00     -129.746      -25.109      -10.716       36.216       28.354       19.925     1311.588      803.964      396.999        1.005        0.126      132.153       21.072        0.025      331.991        0.364      859.571
12/20/2013  17:49:00     -120.929      -30.464       -6.540       22.010       26.954       18.166      484.419      726.541      330.019        0.857        0.077      124.708       13.605        0.012      331.942        0.282      859.518
12/20/2013  17:50:00      -84.678      -24.249       -1.803       37.152       25.463       19.891     1380.271      648.380      395.652        0.509        0.121       88.081       16.932        0.037      331.947        0.292      859.469
12/20/2013  17:51:00      -88.414        6.796       -7.773       23.064       21.423       13.384      531.954      458.937      179.124        0.455        0.059       88.675       11.518        0.017      331.970        0.329      859.417
12/20/2013  17:52:00     -120.821       26.354       -9.377       27.284       17.797       14.607      744.409      316.739      213.361        0.833        0.064      123.662       11.182        0.008      331.942        0.282      859.492
12/20/2013  17:53:00      -92.739        2.904       -3.989       27.995       22.628       13.657      783.704      512.014      186.516        0.505        0.074       92.784       13.747        0.022      331.994        0.368      859.552
12/20/2013  17:54:00     -106.709      -24.831       -6.889       34.221       26.587       19.457     1171.063      706.842      378.590        0.715        0.113      109.560       17.760        0.026      331.992        0.364      859.556
12/20/2013  17:55:00      -90.293      -38.839       -9.769       23.843       25.253       16.709      568.502      637.692      279.195        0.562        0.074       98.292        8.511        0.007      331.942        0.282      859.511
12/20/2013  17:56:00      -94.170      -13.893      -10.346       26.252       28.103       18.102      689.173      789.800      327.681        0.549        0.090       95.189       14.430        0.023      331.937        0.274      859.450
12/20/2013  17:57:00      -85.000       -3.867       -7.522       34.293       20.635       15.666     1176.002      425.791      245.438        0.457        0.092       85.088       16.851        0.039      331.856        0.140      859.442
12/20/2013  17:58:00      -74.630      -16.148      -10.138       18.866       11.589       10.965      355.915      134.300      120.241        0.327        0.031       76.357        8.004        0.011      331.899        0.212      859.468
12/20/2013  17:59:00      -64.716        3.315       -9.933       11.676       13.480        9.575      136.325      181.699       91.677        0.235        0.020       64.801        5.903        0.008      331.949        0.294      859.589
12/20/2013  18:00:00      -51.910       -0.641       -9.000       13.479       14.308        9.202      181.673      204.720       84.679        0.162        0.024       51.914        8.859        0.029      331.990        0.362      859.673
12/20/2013  18:01:00      -14.564      -14.915       -0.744       17.031        9.668        9.663      290.062       93.472       93.382        0.046        0.024       20.846        9.955        0.228      331.951        0.297      859.715
12/20/2013  18:02:00      -18.529       -4.680       -3.347       12.528        8.816        9.818      156.950       77.715       96.389        0.035        0.017       19.111        5.945        0.097      331.950        0.297      859.731
12/20/2013  18:03:00      -63.503       -4.541      -14.057       17.313       11.168        8.405      299.749      124.730       70.636        0.237        0.025       63.666        5.137        0.007      331.951        0.298      859.710
12/20/2013  18:04:00     -119.341      -29.051       -8.629       40.223       27.172       15.167     1617.906      738.294      230.028        0.887        0.129      122.826       10.473        0.007      331.778        0.013      859.666
12/20/2013  18:05:00     -136.100      -35.376       -7.101       42.201       32.931       19.652     1780.925     1084.421      386.191        1.154        0.163      140.622       16.644        0.014      331.776        0.009      859.607
12/20/2013  18:06:00     -127.176      -66.365       -6.636       38.941       26.187       22.012     1516.410      685.779      484.546        1.165        0.134      143.450       15.685        0.012      331.886        0.191      859.595
12/20/2013  18:07:00     -123.034      -29.505       -3.339       41.808       26.024       18.821     1747.943      677.236      354.242        0.940        0.139      126.523       20.137        0.025      331.921        0.248      859.635
12/20/2013  18:08:00      -95.629       -7.075      -11.439       17.287       19.418       12.166      298.843      377.060      148.005        0.507        0.041       95.891        9.617        0.010      331.950        0.297      859.671
12/20/2013  18:09:00      -69.552      -21.872       -4.067       23.642       15.744       11.072      558.957      247.866      122.578        0.313        0.046       72.910        8.776        0.014      332.072        0.496      859.714
12/20/2013  18:10:00      -54.771      -16.810       -1.157       20.289       19.369       13.639      411.640      375.177      186.031        0.213        0.049       57.292        7.154        0.016      332.096        0.537      859.731
12/20/2013  18:11:00      -97.698       -5.542      -10.899       24.652       18.934       15.757      607.739      358.511      248.271        0.545        0.061       97.855       13.791        0.020      331.989        0.359      859.786
12/20/2013  18:12:00      -92.021        3.954       -7.198       30.402       25.933       20.038      924.286      672.503      401.516        0.527        0.100       92.106       18.710        0.041      332.007        0.389      859.865
12/20/2013  18:13:00      -66.172      -13.092       -1.949       21.628       23.535       14.022      467.766      553.885      196.625        0.289        0.061       67.454       12.075        0.032      332.026        0.421      859.934
12/20/2013  18:14:00      -51.172       -1.075       -6.053       30.252       19.276       14.699      915.163      371.568      216.050        0.208        0.075       51.183       15.380        0.090      332.054        0.468      859.936
12/20/2013  18:15:00      -87.602       24.156      -12.552       32.659       30.799       16.981     1066.600      948.586      288.342        0.536        0.115       90.871       12.595        0.019      332.021        0.413      859.899
12/20/2013  18:16:00      -95.071      -11.737      -11.299       27.347       20.291       14.756      747.837      411.733      217.740        0.534        0.069       95.792        8.936        0.009      332.037        0.439      859.926
12/20/2013  18:17:00      -84.712      -36.473       -3.113       18.784       23.028       18.667      352.824      530.285      348.445        0.487        0.062       92.230        9.031        0.010      332.039        0.442      859.917
12/20/2013  18:18:00      -88.788      -40.393       -3.544       35.173       29.936       18.529     1237.139      896.184      343.314        0.600        0.124       97.544        8.919        0.008      332.056        0.470      859.892
12/20/2013  18:19:00      -87.934       -7.819       -6.031       21.266       20.123       15.952      452.241      404.943      254.456        0.447        0.056       88.281       11.174        0.016      332.036        0.437      859.883
12/20/2013  18:20:00      -58.236       -6.854       -9.859       14.818       11.451       11.106      219.586      131.124      123.351        0.200        0.024       58.638        8.561        0.021      331.972        0.331      859.912
12/20/2013  18:21:00      -49.754      -17.815      -10.734       11.463       11.104        7.946      131.410      123.304       63.136        0.161        0.016       52.847        6.627        0.016      332.005        0.386      859.911
12/20/2013  18:22:00      -58.488      -12.189       -7.993       14.819       11.816        9.607      219.593      139.623       92.293        0.204        0.023       59.744        5.894        0.010      332.089        0.527      859.877
12/20/2013  18:23:00      -49.875      -11.887       -2.835       16.920       15.180       12.684      286.273      230.418      160.874        0.166        0.034       51.272       10.085        0.039      332.033        0.433      859.889
12/20/2013  18:24:00      -52.254      -16.666       -5.322       19.100       10.000       10.395      364.824      100.010      108.048        0.180        0.029       54.848       11.524        0.044      331.964        0.319      859.888
12/20/2013  18:25:00      -11.694      -29.365       -6.743       16.899       14.865        9.332      285.563      220.975       87.086        0.082        0.030       31.607        6.158        0.038      332.135        0.602      859.863
12/20/2013  18:26:00      -46.089      -11.644       -1.082       18.251       10.732       10.187      333.089      115.178      103.784        0.141        0.028       47.537        0.726        0.000      332.091        0.528      859.888
12/20/2013  18:27:00     -101.068       -4.613       -6.307       33.629       31.664       20.423     1130.908     1002.591      417.102        0.641        0.128      101.174       18.748        0.034      331.951        0.297      859.918
12/20/2013  18:28:00      -18.172       10.133        2.471       29.738       20.086       16.685      884.339      403.431      278.379        0.100        0.078       20.806       14.833        0.508      331.970        0.328      859.950
12/20/2013  18:29:00      -14.853        1.766        2.675       15.653       11.103       10.296      245.001      123.266      106.016        0.035        0.024       14.958        7.367        0.243      331.972        0.332      859.982
12/20/2013  18:30:00      -57.948       11.074       -6.528       22.337       15.639       10.386      498.957      244.588      107.870        0.219        0.043       58.997        5.919        0.010      332.018        0.408      859.999
12/20/2013  18:31:00      -71.028        0.646      -10.969       25.780       22.825       16.465      664.600      520.981      271.087        0.331        0.073       71.031       13.838        0.038      331.904        0.219      859.986
12/20/2013  18:32:00      -34.550      -25.248       -5.888       41.170       14.778       14.031     1695.004      218.388      196.868        0.199        0.106       42.792       14.374        0.113      331.908        0.226      859.942
12/20/2013  18:33:00       21.782      -36.479       -8.716       13.457       11.926       13.925      181.081      142.236      193.906        0.120        0.026       42.487        6.166        0.021      332.093        0.531      859.894
12/20/2013  18:34:00      -27.540      -22.272       -3.319       35.750       21.749       13.048     1278.046      473.030      170.262        0.159        0.096       35.419       12.299        0.121      332.050        0.461      859.893
12/20/2013  18:35:00     -115.603       -5.849      -11.991       24.987       24.124       16.455      624.350      581.966      270.775        0.751        0.074      115.751       11.176        0.009      331.850        0.132      859.896
12/20/2013  18:36:00     -109.707        7.513       -5.088       43.612       27.569       27.317     1901.970      760.058      746.211        0.776        0.170      109.964       26.032        0.056      331.754       -0.026      859.907
12/20/2013  18:37:00      -81.493        6.897      -12.747       37.178       33.434       17.822     1382.220     1117.833      317.613        0.483        0.141       81.785       14.858        0.033      331.706       -0.104      859.904
12/20/2013  18:38:00      -75.658      -13.959       -4.654       30.942       30.774       18.410      957.434      947.026      338.916        0.409        0.112       76.935       13.438        0.031      331.710       -0.099      859.891
12/20/2013  18:39:00      -68.832      -13.853       -9.875       31.026       33.660       17.075      962.598     1133.004      291.539        0.371        0.119       70.212        7.769        0.012      331.763       -0.012      859.894
12/20/2013  18:40:00      -30.137       -8.907        1.526       28.928       22.385       12.162      836.820      501.080      147.913        0.124        0.074       31.426       12.407        0.156      331.743       -0.044      859.927
12/20/2013  18:41:00      -20.067      -12.854        2.808       16.670       16.494        9.136      277.890      272.068       83.462        0.060        0.032       23.831        8.063        0.114      331.836        0.106      860.007
12/20/2013  18:42:00      -39.875      -20.317       -4.060       14.283       15.399       13.709      204.012      237.142      187.938        0.132        0.031       44.752        9.102        0.041      331.933        0.267      860.100
12/20/2013  18:43:00       -9.111      -22.238       -3.854       18.734        9.958       10.565      350.977       99.161      111.622        0.058        0.028       24.032        9.429        0.154      332.060        0.479      860.129
12/20/2013  18:44:00        4.742      -41.050       -6.203       10.835       15.680       10.848      117.405      245.856      117.669        0.111        0.024       41.323        4.005        0.009      332.051        0.461      860.107
12/20/2013  18:45:00      -35.963      -19.393        2.601       33.499       16.107       16.620     1122.173      259.431      276.208        0.167        0.083       40.858       16.808        0.169      331.889        0.195      860.108
12/20/2013  18:46:00      -92.406      -24.648      -14.740        8.947       11.131        8.393       80.054      123.896       70.448        0.482        0.014       95.636        3.023        0.001      331.807        0.058      860.136
12/20/2013  18:47:00      -92.692       -0.854      -12.963       25.865       16.499        9.497      668.994      272.211       90.186        0.490        0.052       92.696       10.712        0.013      331.878        0.176      860.168
12/20/2013  18:48:00     -125.957        3.685      -18.366       17.178       10.580        9.577      295.067      111.928       91.721        0.836        0.025      126.011        7.271        0.003      331.842        0.118      860.188
12/20/2013  18:49:00     -124.119       -7.433      -12.923       50.297       25.481       27.848     2529.752      649.270      775.520        0.979        0.198      124.341       30.023        0.058      331.819        0.080      860.179
12/20/2013  18:50:00      -84.567       -5.086       -0.838       44.734       31.788       27.424     2001.168     1010.454      752.076        0.547        0.188       84.720       24.259        0.082      331.756       -0.022      860.138
12/20/2013  18:51:00     -145.743        7.139      -11.288       25.702       22.515       18.201      660.618      506.919      331.287        1.146        0.075      145.918       15.245        0.011      331.719       -0.081      860.116
12/20/2013  18:52:00      -99.017      -20.017       -5.628       32.312       34.219       18.179     1044.062     1170.920      330.466        0.639        0.127      101.020       10.904        0.012      331.823        0.086      860.164
12/20/2013  18:53:00     -121.464      -28.356      -12.452       33.174       32.675       16.522     1100.518     1067.682      272.969        0.908        0.122      124.730       16.470        0.017      331.817        0.078      860.240
12/20/2013  18:54:00      -74.881      -29.028        0.879       28.295       30.956       19.927      800.605      958.289      397.083        0.430        0.108       80.311       18.951        0.056      331.809        0.063      860.249
12/20/2013  18:55:00      -79.145      -14.536      -11.723       27.531       16.212       14.985      757.948      262.844      224.542        0.393        0.062       80.469       16.205        0.041      331.859        0.146      860.196
12/20/2013  18:56:00      -72.265        3.019       -8.406       17.240       15.065       12.945      297.205      226.942      167.584        0.300        0.035       72.328       10.718        0.022      331.890        0.196      860.139
12/20/2013  18:57:00      -78.651       -4.538       -5.197       18.972       19.212       13.523      359.952      369.104      182.861        0.357        0.046       78.782       11.635        0.022      331.898        0.210      860.109
12/20/2013  18:58:00      -92.181       -9.707       -5.726       21.144       16.208       15.413      447.064      262.700      237.559        0.479        0.047       92.691       12.342        0.018      331.890        0.195      860.082
12/20/2013  18:59:00     -114.576       -0.515       -9.983       26.067       15.941       11.240      679.509      254.128      126.331        0.714        0.053      114.577        7.663        0.004      331.895        0.205      860.060
12/20/2013  19:00:00     -121.342      -15.251       -9.169       27.811       17.868       15.878      773.450      319.270      252.116        0.819        0.067      122.297       14.286        0.014      331.889        0.195      860.070
12/20/2013  19:01:00     -103.772      -15.216      -16.145       23.633       18.039       14.827      558.511      325.395      219.825        0.618        0.055      104.881        7.648        0.005      331.853        0.136      860.093
12/20/2013  19:02:00     -114.438      -11.974      -18.289       19.493       28.891       14.612      379.970      834.703      213.501        0.750        0.071      115.063        5.333        0.002      331.838        0.110      860.115
12/20/2013  19:03:00      -96.863      -18.407      -12.578       29.090       29.202       20.276      846.216      852.729      411.116        0.599        0.106       98.596       19.492        0.039      331.830        0.097      860.132
12/20/2013  19:04:00      -85.129       -6.057      -11.938       20.901       16.888       14.190      436.852      285.220      201.370        0.417        0.046       85.345        3.074        0.001      331.832        0.101      860.126
12/20/2013  19:05:00      -81.636        4.940       -6.056       25.263       22.854       18.055      638.220      522.304      325.981        0.411        0.074       81.785       10.130        0.015      331.823        0.086      860.122
12/20/2013  19:06:00     -107.425        6.442      -17.611       22.066       23.903       14.231      486.927      571.358      202.526        0.658        0.063      107.618       11.189        0.011      331.856        0.141      860.144
12/20/2013  19:07:00      -48.330      -11.746       -4.452       21.169       16.624       10.930      448.128      276.347      119.457        0.167        0.042       49.736       11.285        0.051      331.850        0.131      860.139
12/20/2013  19:08:00      -49.101      -18.452       -1.075       27.686       17.025       13.050      766.495      289.839      170.291        0.199        0.061       52.454       12.689        0.059      331.894        0.203      860.113
12/20/2013  19:09:00      -71.403      -12.750       -4.308       27.682       20.444       11.219      766.266      417.956      125.859        0.329        0.066       72.533       13.008        0.032      331.895        0.205      860.098
12/20/2013  19:10:00      -61.487      -14.868       -6.136       21.925       14.315       11.574      480.686      204.925      133.969        0.243        0.041       63.259       10.190        0.026      331.924        0.253      860.077
12/20/2013  19:11:00      -28.977      -28.947       -3.053       16.618       12.418       11.432      276.154      154.199      130.687        0.112        0.028       40.958        5.925        0.021      331.962        0.316      860.045
12/20/2013  19:12:00      -21.174      -39.080       -4.495       21.746       15.167       13.115      472.868      230.028      171.991        0.144        0.044       44.448       12.116        0.074      331.980        0.346      860.022
12/20/2013  19:13:00      -13.513      -18.659        0.929       14.109       10.061        7.713      199.076      101.224       59.489        0.045        0.018       23.038        8.131        0.125      331.961        0.314      860.026
12/20/2013  19:14:00       14.948       13.741        4.899       10.687        9.280       10.725      114.218       86.121      115.031        0.038        0.016       20.304       10.141        0.249      332.015        0.404      860.037
12/20/2013  19:15:00       31.057       22.280       17.637       14.650        6.077        8.922      214.628       36.927       79.609        0.105        0.017       38.223        6.175        0.026      332.058        0.474      860.053
12/20/2013  19:16:00       27.742       22.401       -1.792       13.070        6.300        5.580      170.818       39.687       31.138        0.076        0.012       35.657        3.990        0.013      332.016        0.405      860.066
12/20/2013  19:17:00       -0.371       33.389       -4.985        4.485       11.294        4.535       20.118      127.548       20.568        0.065        0.008       33.391        4.758        0.020      332.031        0.428      860.066
12/20/2013  19:18:00      -33.592       19.849       -3.926       25.304       11.390        8.354      640.297      129.725       69.793        0.119        0.042       39.018        9.796        0.063      331.951        0.298      860.055
12/20/2013  19:19:00      -71.772       19.885       -7.126       12.098       14.939        8.655      146.359      223.170       74.909        0.302        0.022       74.476        7.283        0.010      331.813        0.069      860.027
12/20/2013  19:20:00      -73.342       -3.168      -12.555       12.524        9.672        8.474      156.839       93.543       71.816        0.293        0.016       73.410        4.410        0.004      331.750       -0.032      860.017
12/20/2013  19:21:00      -99.140        1.989      -12.717       23.748       14.758        8.979      563.946      217.807       80.629        0.543        0.043       99.160        6.228        0.004      331.734       -0.058      860.020
12/20/2013  19:22:00      -72.368       -2.604       -7.391       38.472       16.491       16.251     1480.099      271.937      264.101        0.366        0.101       72.415       20.782        0.082      331.714       -0.092      859.996
12/20/2013  19:23:00      -75.240      -17.934      -10.058       26.997       14.223       11.130      728.850      202.284      123.882        0.357        0.053       77.348        9.271        0.014      331.710       -0.098      859.975
12/20/2013  19:24:00      -90.292      -16.723      -12.653       34.826       21.333       15.009     1212.876      455.093      225.283        0.524        0.095       91.828       14.994        0.027      331.633       -0.225      859.985
12/20/2013  19:25:00     -114.646       -3.584      -13.459       35.094       19.857       21.314     1231.595      394.291      454.301        0.771        0.104      114.702       19.721        0.030      331.545       -0.371      860.034
12/20/2013  19:26:00      -60.876       -2.587        2.572       34.523       34.836       22.596     1191.864     1213.533      510.559        0.332        0.146       60.931       16.452        0.073      331.537       -0.383      860.085
12/20/2013  19:27:00      -78.912        5.825       -7.586       36.567       34.146       23.517     1337.132     1165.960      553.056        0.469        0.153       79.126       15.483        0.038      331.569       -0.331      860.117
12/20/2013  19:28:00      -65.007       -9.998       -5.046       20.119       25.357       14.640      404.766      642.967      214.339        0.281        0.063       65.771       12.324        0.035      331.691       -0.130      860.110
12/20/2013  19:29:00      -34.968      -24.473       -5.229       21.261       17.725       11.029      452.033      314.161      121.639        0.137        0.044       42.681        8.108        0.036      331.733       -0.058      860.069
12/20/2013  19:30:00      -36.674      -23.660       -1.880       61.143       18.354       21.462     3738.516      336.852      460.638        0.322        0.227       43.643       26.260        0.362      331.723       -0.079      860.045
12/20/2013  19:31:00      -16.516      -23.935        9.733       43.181       27.395       18.272     1864.638      750.502      333.868        0.194        0.147       29.080       21.347        0.539      331.730       -0.067      860.020
12/20/2013  19:32:00      -52.902      -37.669       -1.563       29.178       11.465       13.943      851.367      131.440      194.402        0.270        0.059       64.943       18.173        0.078      331.632       -0.227      859.992
12/20/2013  19:33:00      -70.903      -34.022       -7.871       22.438       21.585       11.009      503.449      465.905      121.204        0.367        0.055       78.643        4.770        0.004      331.727       -0.072      859.986
12/20/2013  19:34:00      -54.301      -27.785       -4.172       18.208       13.246       11.008      331.518      175.456      121.167        0.218        0.031       60.997        8.795        0.021      331.764       -0.008      859.965
12/20/2013  19:35:00      -70.612      -29.029       -4.882       16.054       11.728       10.506      257.715      137.538      110.385        0.318        0.025       76.346        5.262        0.005      331.736       -0.057      859.946
12/20/2013  19:36:00     -101.617      -37.898      -11.281       12.973       13.176        8.761      168.299      173.606       76.760        0.615        0.021      108.454        4.420        0.002      331.742       -0.045      859.901
12/20/2013  19:37:00     -113.631      -65.644       -2.945       30.271       25.934       17.162      916.315      672.561      294.522        0.956        0.094      131.229       13.579        0.011      331.738       -0.051      859.894
12/20/2013  19:38:00     -106.790      -67.926       -2.009       34.736       27.714       19.805     1206.571      768.065      392.256        0.919        0.118      126.562       11.127        0.008      331.766       -0.006      859.930
12/20/2013  19:39:00      -81.484      -54.723        4.476       45.149       27.974       25.195     2038.445      782.558      634.779        0.655        0.173       98.154       23.675        0.058      331.852        0.135      859.962
12/20/2013  19:40:00      -74.488      -36.303       -2.465       22.562       25.813       12.079      509.026      666.286      145.899        0.410        0.066       82.864        9.863        0.014      331.967        0.325      859.947
12/20/2013  19:41:00      -16.509      -41.881        3.476       18.467       22.217       15.176      341.037      493.600      230.320        0.155        0.053       45.018       14.135        0.099      332.110        0.559      859.933
12/20/2013  19:42:00      -26.693      -36.705        6.278       14.081       14.427       10.854      198.287      208.150      117.814        0.131        0.026       45.385        8.093        0.032      332.063        0.483      859.942
12/20/2013  19:43:00      -20.122      -31.635        7.831       18.545       15.651       13.205      343.935      244.961      174.377        0.111        0.038       37.492       10.666        0.081      332.065        0.486      859.949
12/20/2013  19:44:00      -12.707      -21.973        2.332       11.427        9.432        7.907      130.581       88.969       62.528        0.047        0.014       25.383        6.188        0.059      332.119        0.574      859.922
12/20/2013  19:45:00      -41.755      -14.573        4.368       36.710       21.654       11.463     1347.611      468.884      131.401        0.196        0.097       44.224        8.043        0.033      332.065        0.486      859.903
12/20/2013  19:46:00      -66.625      -28.319        9.668       36.697       27.009       20.096     1346.691      729.489      403.863        0.391        0.124       72.394       16.348        0.051      332.042        0.448      859.925
12/20/2013  19:47:00      -72.778      -52.403        1.053       42.239       30.863       19.464     1784.130      952.521      378.856        0.558        0.156       89.681       19.734        0.048      332.060        0.479      859.966
12/20/2013  19:48:00      -15.542      -27.818        9.461       37.890       24.901       17.237     1435.657      620.065      297.119        0.173        0.118       31.865       20.254        0.404      332.044        0.450      859.974
12/20/2013  19:49:00       -5.903      -15.187        7.428       14.935        8.840        8.126      223.057       78.145       66.025        0.034        0.018       16.294        7.017        0.185      332.023        0.416      859.968
12/20/2013  19:50:00      -15.820       -5.435        2.517        8.216        7.354        8.572       67.505       54.086       73.484        0.024        0.010       16.727        6.958        0.173      331.957        0.308      859.968
12/20/2013  19:51:00      -73.719       -5.671       -7.045       25.782       14.105        8.871      664.725      198.938       78.702        0.323        0.047       73.937        3.927        0.003      331.975        0.336      859.975
12/20/2013  19:52:00      -90.998      -36.360       -6.150       25.871       28.955       14.860      669.296      838.369      220.829        0.568        0.086       97.993       14.845        0.023      331.959        0.310      859.972
12/20/2013  19:53:00     -104.640      -13.512       -4.457       20.086       18.136       15.743      403.458      328.927      247.841        0.607        0.049      105.509       13.534        0.016      331.839        0.112      859.921
12/20/2013  19:54:00     -103.070      -14.593      -12.486       20.916       18.267       14.486      437.464      333.680      209.848        0.599        0.049      104.098       12.377        0.014      331.797        0.043      859.861
12/20/2013  19:55:00      -26.248       -4.797        6.401       23.846       16.971       12.538      568.619      287.998      157.198        0.088        0.051       26.683        9.324        0.122      331.812        0.068      859.803
12/20/2013  19:56:00      -26.174       -5.756        9.868       20.676       21.392       14.702      427.501      457.621      216.162        0.096        0.055       26.799       14.704        0.301      331.854        0.137      859.788
12/20/2013  19:57:00      -68.035       -3.473       -1.550       32.744       20.639       14.664     1072.176      425.954      215.036        0.318        0.086       68.124       17.436        0.066      331.751       -0.032      859.820
12/20/2013  19:58:00      -73.583       -2.655       -6.360       32.769       32.018       22.038     1073.778     1025.140      485.692        0.402        0.129       73.631       18.268        0.062      331.705       -0.106      859.851
12/20/2013  19:59:00      -60.994       -6.120       -4.791       27.870       34.844       18.405      776.763     1214.118      338.744        0.305        0.116       61.301       16.683        0.074      331.678       -0.152      859.829
12/20/2013  20:00:00      -74.018       -4.015       -9.768       34.994       24.898       15.077     1224.552      619.897      227.313        0.383        0.104       74.127        9.669        0.017      331.647       -0.203      859.781
12/20/2013  20:01:00      -53.850       -4.237       -2.765       31.824       25.851       15.262     1012.762      668.278      232.920        0.242        0.096       54.016       12.994        0.058      331.632       -0.228      859.767
12/20/2013  20:02:00      -69.556      -10.762       -4.041       26.131       18.148       17.663      682.839      329.361      311.993        0.315        0.066       70.383       17.304        0.060      331.665       -0.172      859.782
12/20/2013  20:03:00      -94.002      -11.812       -8.597       22.446       18.041       14.232      503.825      325.475      202.536        0.504        0.052       94.742        7.164        0.006      331.667       -0.169      859.792
12/20/2013  20:04:00     -123.342      -36.807       -8.050       29.367       36.895       20.932      862.403     1361.237      438.158        0.965        0.133      128.717       17.049        0.018      331.713       -0.096      859.824
12/20/2013  20:05:00     -143.800      -18.854       -9.598       39.164       36.534       18.343     1533.837     1334.700      336.450        1.216        0.160      145.030       13.481        0.009      331.712       -0.094      859.898
12/20/2013  20:06:00      -62.071        5.293       -2.440       41.905       41.163       23.986     1756.011     1694.360      575.330        0.396        0.201       62.296       21.614        0.120      331.698       -0.119      859.983
12/20/2013  20:07:00     -114.193       67.274      -15.206       36.226       35.220       22.204     1312.340     1240.461      493.022        1.042        0.152      132.536       18.435        0.019      331.620       -0.248      860.045
12/20/2013  20:08:00      -69.378       36.288       -8.794       19.174       25.233       14.436      367.658      636.694      208.397        0.371        0.061       78.295       11.815        0.023      331.709       -0.100      860.007
12/20/2013  20:09:00      -97.974       -1.105      -11.026       28.044       34.634       14.966      786.446     1199.504      223.985        0.597        0.110       97.980        9.127        0.009      331.706       -0.104      859.920
12/20/2013  20:10:00      -98.591      -45.674       -7.609       34.912       32.546       22.950     1218.837     1059.248      526.695        0.733        0.140      108.657       14.432        0.018      331.653       -0.194      859.829
12/20/2013  20:11:00      -29.830      -29.227       11.313       52.190       25.270       28.568     2723.746      638.567      816.107        0.302        0.209       41.762       27.856        0.445      331.715       -0.090      859.729
12/20/2013  20:12:00      -83.796      -54.191        8.379       51.730       35.365       27.319     2676.022     1250.692      746.343        0.735        0.234       99.792       24.301        0.059      331.683       -0.144      859.641
12/20/2013  20:13:00     -136.518      -64.220      -14.775       51.879       39.992       25.530     2691.385     1599.347      651.780        1.396        0.247      150.869       23.802        0.025      331.695       -0.124      859.613
12/20/2013  20:14:00     -114.062      -53.611       -3.652       36.460       38.861       23.245     1329.361     1510.179      540.317        0.964        0.169      126.033       16.732        0.018      331.771        0.002      859.626
12/20/2013  20:15:00      -88.625       -7.686       -1.020       36.932       22.513       14.971     1363.993      506.839      224.145        0.500        0.105       88.958       15.812        0.032      331.701       -0.113      859.629
12/20/2013  20:16:00      -87.180       -5.003       -4.859       29.363       20.882       15.357      862.165      436.076      235.845        0.459        0.077       87.323       13.205        0.023      331.725       -0.073      859.615
12/20/2013  20:17:00      -68.122       12.334       -2.906       24.295       22.652       16.387      590.225      513.120      268.548        0.309        0.069       69.230       11.020        0.025      331.705       -0.107      859.586
12/20/2013  20:18:00      -49.921       23.267       -6.068       35.606       16.555       15.296     1267.768      274.055      233.959        0.242        0.089       55.077       17.780        0.104      331.679       -0.150      859.547
12/20/2013  20:19:00      -72.538       31.284       -5.294       31.838       17.893       18.066     1013.688      320.151      326.390        0.396        0.083       78.997       18.216        0.053      331.726       -0.073      859.554
12/20/2013  20:20:00      -78.622       55.294       -9.698       37.813       29.039       23.797     1429.859      843.282      566.313        0.609        0.142       96.119       24.587        0.065      331.825        0.090      859.598
12/20/2013  20:21:00     -109.018       60.127      -20.341       29.485       27.865       20.373      869.386      776.444      415.039        0.899        0.103      124.500       17.702        0.020      331.688       -0.133      859.612
12/20/2013  20:22:00      -81.481       35.286      -11.410       23.794       18.564       15.037      566.153      344.619      226.120        0.458        0.057       88.793       10.274        0.013      331.673       -0.160      859.574
12/20/2013  20:23:00      -87.074        5.573       -8.978       15.351       19.169       12.575      235.647      367.463      158.126        0.423        0.038       87.252        6.527        0.006      331.771        0.000      859.518
12/20/2013  20:24:00      -93.585      -17.419      -13.469       13.929       20.998       12.059      194.030      440.910      145.413        0.501        0.039       95.193        6.637        0.005      331.643       -0.210      859.450
12/20/2013  20:25:00      -91.640      -37.562      -10.394       28.317       28.027       11.596      801.858      785.496      134.468        0.582        0.086       99.040        6.286        0.004      331.584       -0.306      859.399
12/20/2013  20:26:00      -92.065       -7.003       -7.898       27.375       25.461       13.995      749.417      648.281      195.872        0.509        0.080       92.331       13.014        0.020      331.594       -0.289      859.397
12/20/2013  20:27:00      -43.411      -58.112       -1.334       47.162       33.367       19.469     2224.280     1113.338      379.047        0.449        0.186       72.537       11.955        0.027      331.660       -0.181      859.426
12/20/2013  20:28:00      -71.782      -21.517       -0.161       29.753       38.204       17.566      885.243     1459.548      308.559        0.413        0.133       74.937       16.452        0.048      331.616       -0.254      859.481
12/20/2013  20:29:00      -64.666       26.709       -5.819       33.679       29.980       23.851     1134.255      898.778      568.853        0.376        0.130       69.964       20.016        0.082      331.532       -0.393      859.542
12/20/2013  20:30:00     -107.124       73.549      -23.149       29.705       24.747       14.364      882.416      612.419      206.338        0.956        0.085      129.942       17.168        0.017      331.674       -0.159      859.567
12/20/2013  20:31:00      -84.703       52.690      -18.382       18.903       35.832       17.952      357.342     1283.951      322.263        0.613        0.098       99.753       19.094        0.037      331.731       -0.063      859.522
12/20/2013  20:32:00      -50.260      -10.385       -3.399       25.207       11.305       14.236      635.418      127.792      202.669        0.181        0.048       51.322       15.637        0.093      331.739       -0.052      859.456
12/20/2013  20:33:00      -52.580      -13.477       -3.771       23.754       12.228        8.927      564.238      149.531       79.683        0.188        0.040       54.280       10.524        0.038      331.659       -0.183      859.424
12/20/2013  20:34:00      -20.006      -27.582       -0.233       20.436       12.650       12.336      417.610      160.024      152.186        0.095        0.036       34.073       10.670        0.098      331.793        0.037      859.382
12/20/2013  20:35:00      -57.903      -18.349       -6.152       16.484       13.015       12.313      271.721      169.388      151.598        0.216        0.030       60.741        7.898        0.017      331.710       -0.098      859.346
12/20/2013  20:36:00      -74.973        1.996      -11.022       22.085       17.854       13.656      487.733      318.750      186.491        0.337        0.050       74.999       12.361        0.027      331.618       -0.248      859.351
12/20/2013  20:37:00      -82.693       -2.397       -6.762       27.144       20.029       15.517      736.818      401.171      240.766        0.413        0.069       82.728       12.102        0.021      331.613       -0.259      859.379
12/20/2013  20:38:00      -77.105      -14.869       -7.265       26.742       13.909       10.169      715.108      193.457      103.401        0.362        0.051       78.526        7.696        0.010      331.625       -0.239      859.390
12/20/2013  20:39:00      -66.918      -11.349       -8.447       38.269       18.489       14.363     1464.514      341.859      206.298        0.335        0.101       67.873       15.567        0.053      331.613       -0.258      859.409
12/20/2013  20:40:00      -45.329       21.556      -11.311       26.394       25.520       14.230      696.622      651.251      202.495        0.210        0.078       50.194       15.539        0.096      331.686       -0.138      859.447
12/20/2013  20:41:00       -9.468       24.767       -1.837       24.757       23.537       13.952      612.919      554.013      194.670        0.103        0.068       26.515       16.422        0.384      331.884        0.187      859.485
12/20/2013  20:42:00       -9.502        3.434        6.130       16.710       14.506       12.019      279.222      210.416      144.453        0.039        0.032       10.104        4.733        0.219      331.873        0.168      859.546
12/20/2013  20:43:00       25.712       25.142       12.605       18.790       25.721       15.392      353.082      661.575      236.913        0.135        0.063       35.961       13.992        0.151      331.845        0.125      859.539
12/20/2013  20:44:00       41.467       36.203        5.937       19.460       18.113       13.787      378.689      328.090      190.068        0.198        0.045       55.047        9.601        0.030      331.750       -0.033      859.467
12/20/2013  20:45:00       38.869       40.506       -3.521       12.183       14.515       11.614      148.415      210.697      134.895        0.183        0.025       56.139        7.145        0.016      331.704       -0.108      859.442
12/20/2013  20:46:00       32.227       28.186       -1.284       15.581       17.381       15.430      242.773      302.093      238.073        0.131        0.039       42.814       10.842        0.064      331.696       -0.121      859.431
12/20/2013  20:47:00       26.651       19.252       -8.030       10.998       13.192        9.497      120.953      174.016       90.189        0.077        0.019       32.877        6.699        0.042      331.737       -0.055      859.417
12/20/2013  20:48:00       34.022       24.870        5.676       12.664        9.351        9.716      160.375       87.443       94.400        0.108        0.017       42.143        5.248        0.016      331.737       -0.053      859.392
12/20/2013  20:49:00       57.782       41.323        2.946       11.959        8.975        9.793      143.017       80.551       95.911        0.269        0.016       71.037        4.907        0.005      331.727       -0.069      859.365
12/20/2013  20:50:00       52.731       17.206        6.767       16.191       14.532       13.345      262.157      211.191      178.094        0.189        0.033       55.467        9.466        0.029      331.752       -0.027      859.338
12/20/2013  20:51:00       49.064       33.413       29.588       21.164       16.241       14.621      447.906      263.785      213.786        0.266        0.046       59.361        9.802        0.027      331.738       -0.053      859.292
12/20/2013  20:52:00       37.270       45.053       18.314       17.698       14.222       15.276      313.226      202.263      233.367        0.225        0.037       58.471        6.154        0.011      331.704       -0.107      859.277
12/20/2013  20:53:00       37.805       21.518       13.560       11.232        9.693       13.379      126.155       93.952      178.996        0.124        0.020       43.500        7.771        0.032      331.704       -0.108      859.303
12/20/2013  20:54:00       15.593       15.947       15.822        9.538        7.108        6.898       90.977       50.524       47.585        0.047        0.009       22.304        3.929        0.031      331.672       -0.160      859.350
12/20/2013  20:55:00        4.300       19.130       -0.603        8.149       10.610        5.698       66.398      112.570       32.470        0.030        0.011       19.607        3.442        0.031      331.675       -0.156      859.397
12/20/2013  20:56:00       31.491       28.785       15.110       15.430        9.779       15.982      238.090       95.628      255.418        0.132        0.029       42.665       12.834        0.090      331.684       -0.140      859.420
12/20/2013  20:57:00       38.843       31.587        8.909       14.714       14.132       15.299      216.493      199.720      234.073        0.162        0.033       50.065       12.625        0.064      331.661       -0.180      859.435
12/20/2013  20:58:00       32.336       29.640        1.515       11.528       14.515        7.128      132.895      210.696       50.813        0.116        0.020       43.865        6.252        0.020      331.659       -0.182      859.443
12/20/2013  20:59:00       21.360       32.342       -2.502       13.382       10.919        6.886      179.081      119.214       47.416        0.093        0.017       38.759        4.904        0.016      331.652       -0.195      859.443
12/20/2013  21:00:00       55.487       41.127        9.288       13.143       10.374        9.782      172.726      107.612       95.680        0.262        0.019       69.067        4.379        0.004      331.654       -0.191      859.418
12/20/2013  21:01:00       29.322       30.056       -4.654       18.072       12.153        7.146      326.608      147.702       51.063        0.115        0.026       41.989        7.373        0.031      331.618       -0.250      859.428
12/20/2013  21:02:00       37.084       23.334        3.956       23.931        8.543        8.270      572.694       72.984       68.393        0.132        0.036       43.814        6.467        0.022      331.618       -0.250      859.418
12/20/2013  21:03:00       79.177       40.230        7.743       10.308       11.843       11.149      106.249      140.256      124.296        0.416        0.019       88.811        5.863        0.004      331.648       -0.204      859.374
12/20/2013  21:04:00       31.703       18.017        8.293       14.161       13.907        9.501      200.533      193.400       90.277        0.094        0.024       36.465        8.654        0.056      331.649       -0.200      859.381
12/20/2013  21:05:00        5.708       32.587       -2.721        9.136       18.590        7.812       83.459      345.590       61.028        0.080        0.025       33.083       10.038        0.092      331.665       -0.172      859.417
12/20/2013  21:06:00       24.615       28.227       -2.448       13.804        9.830        6.295      190.552       96.636       39.627        0.087        0.016       37.452        5.305        0.020      331.675       -0.157      859.414
12/20/2013  21:07:00       74.627       39.267       14.818       17.400       14.624       15.723      302.767      213.860      247.199        0.405        0.038       84.327        9.905        0.014      331.645       -0.207      859.351
12/20/2013  21:08:00      110.369       65.021       13.278       18.727       14.821       17.254      350.697      219.671      297.686        0.873        0.043      128.098        6.376        0.002      331.615       -0.256      859.285
12/20/2013  21:09:00      118.217       73.630       -0.465       20.695       15.707       16.197      428.273      246.722      262.341        1.017        0.047      139.272        8.530        0.004      331.573       -0.325      859.288
12/20/2013  21:10:00       75.678       47.313       -2.781       41.626       30.947       21.148     1732.687      957.718      447.243        0.555        0.157       89.250       20.209        0.051      331.514       -0.422      859.334
12/20/2013  21:11:00       24.121       43.095        1.397       25.742       26.769       22.789      662.649      716.599      519.330        0.217        0.095       49.386       20.255        0.168      331.506       -0.436      859.405
12/20/2013  21:12:00       22.806       59.503       -7.059       28.089       31.609       23.269      789.003      999.111      541.424        0.322        0.116       63.724       21.776        0.117      331.507       -0.433      859.418
12/20/2013  21:13:00       13.998      107.765      -10.994       19.933       31.394       20.263      397.332      985.613      410.602        0.686        0.090      108.671       20.509        0.036      331.561       -0.346      859.439
12/20/2013  21:14:00      -15.489      133.844      -22.340       14.862       15.511       10.581      220.868      240.576      111.957        0.961        0.029      134.737        5.677        0.002      331.724       -0.076      859.464
12/20/2013  21:15:00      -31.944       64.633      -13.010       23.494       41.099       14.885      551.976     1689.087      221.578        0.391        0.123       72.096       17.725        0.060      331.799        0.047      859.487
12/20/2013  21:16:00      -15.795       42.892        0.590       16.667       22.543       14.903      277.779      508.174      222.110        0.155        0.050       45.708       13.932        0.093      331.740       -0.050      859.509
12/20/2013  21:17:00      -34.349       76.784      -11.571       28.678       27.521       15.743      822.419      757.431      247.830        0.452        0.091       84.117       16.632        0.039      331.907        0.226      859.565
12/20/2013  21:18:00      -47.023       75.852      -11.833       29.643       26.330       16.592      878.711      693.274      275.288        0.498        0.092       89.245       19.509        0.048      331.782        0.019      859.594
12/20/2013  21:19:00      -41.471       58.517       -9.417       28.266       38.063       18.371      798.983     1448.811      337.480        0.391        0.129       71.722       16.182        0.051      331.793        0.036      859.550
12/20/2013  21:20:00      -66.642       45.087      -13.754       26.106       26.467       19.013      681.519      700.511      361.491        0.420        0.087       80.461       17.703        0.048      331.784        0.023      859.534
12/20/2013  21:21:00      -32.560       53.218      -10.297       26.855       29.220       14.916      721.169      853.784      222.473        0.290        0.090       62.388       12.961        0.043      331.747       -0.037      859.556
12/20/2013  21:22:00      -25.060       81.132       -5.436       26.221       33.882       20.930      687.529     1148.012      438.046        0.476        0.114       84.914       17.945        0.045      331.851        0.131      859.558
12/20/2013  21:23:00      -26.674       24.188       -5.618       20.764       34.433       12.378      431.159     1185.641      153.226        0.155        0.089       36.008       16.017        0.198      331.906        0.226      859.534
12/20/2013  21:24:00      -39.534       -8.487      -12.504       18.618       11.965       12.395      346.636      143.165      153.632        0.122        0.032       40.435        8.357        0.043      331.608       -0.267      859.513
12/20/2013  21:25:00      -23.593       -6.560       -5.149       13.887       13.990        8.802      192.849      195.727       77.479        0.055        0.023       24.488        5.989        0.060      331.710       -0.100      859.479
12/20/2013  21:26:00      -16.388       -0.323        6.064       10.750        7.784        8.417      115.555       60.583       70.839        0.028        0.012       16.392        7.140        0.190      331.709       -0.101      859.467
12/20/2013  21:27:00      -40.102      -11.207       -4.895       15.161        9.814        4.933      229.848       96.314       24.337        0.105        0.018       41.639        3.003        0.005      331.606       -0.271      859.480
12/20/2013  21:28:00      -51.141      -11.690       -2.979       22.900       17.525        9.343      524.399      307.118       87.293        0.184        0.046       52.460        9.365        0.032      331.553       -0.358      859.498
12/20/2013  21:29:00      -17.503       12.380        3.654       17.220       10.102       10.469      296.536      102.046      109.593        0.049        0.025       21.439       11.863        0.306      331.556       -0.352      859.505
12/20/2013  21:30:00      -32.856       -2.934       -8.488        9.940       13.811        5.448       98.805      190.753       29.677        0.074        0.016       32.986        5.337        0.026      331.575       -0.321      859.515
12/20/2013  21:31:00      -20.922      -18.282       -4.785       30.013       11.668       13.218      900.790      136.147      174.718        0.100        0.061       27.784       17.730        0.407      331.594       -0.290      859.485
12/20/2013  21:32:00       -0.101      -11.120        7.472       11.310       15.465       15.947      127.915      239.159      254.318        0.040        0.031       11.120       14.415        1.680      331.714       -0.093      859.426
12/20/2013  21:33:00       -1.552       33.380       50.525        8.684       26.796       22.922       75.403      718.030      525.435        0.249        0.066       33.416       22.990        0.473      331.787        0.028      859.361
12/20/2013  21:34:00       -4.801       44.791       66.445       15.944       27.782       19.224      254.196      771.826      369.549        0.392        0.070       45.047       19.161        0.181      331.876        0.175      859.323
12/20/2013  21:35:00       -1.330       27.624       47.779        8.966       21.732       11.404       80.395      472.263      130.051        0.187        0.034       27.656       13.246        0.229      331.874        0.172      859.343
12/20/2013  21:36:00        9.188       -8.789       18.738       12.429       23.431       13.916      154.487      548.991      193.657        0.070        0.045       12.715       12.704        0.998      331.902        0.217      859.356
12/20/2013  21:37:00       -0.294        0.050       16.092        6.226       13.948        8.929       38.761      194.540       79.726        0.029        0.016        0.298        5.692      365.059      331.844        0.121      859.366
12/20/2013  21:38:00        7.886      -13.532        8.166       11.421       18.808        9.201      130.433      353.735       84.663        0.044        0.028       15.663        9.838        0.395      331.982        0.348      859.335
12/20/2013  21:39:00        5.293        4.147        1.678       15.890        8.030        7.529      252.497       64.479       56.693        0.021        0.019        6.724        6.162        0.840      332.003        0.384      859.294
12/20/2013  21:40:00      -29.298      -25.077       -1.453       20.788       15.576       11.609      432.146      242.605      134.773        0.115        0.040       38.565       12.285        0.101      331.808        0.062      859.312
12/20/2013  21:41:00        5.066      -24.556       16.098       32.056       21.748       21.326     1027.587      472.966      454.784        0.142        0.098       25.073       19.784        0.623      331.706       -0.104      859.319
12/20/2013  21:42:00      -10.780      -34.938       10.644       20.019       24.122       14.032      400.753      581.886      196.902        0.131        0.059       36.564       13.395        0.134      331.927        0.257      859.264
12/20/2013  21:43:00      -53.530      -13.354       -6.723       34.063       16.125       10.046     1160.321      260.016      100.920        0.230        0.076       55.170        8.056        0.021      331.946        0.290      859.242
12/20/2013  21:44:00     -101.369      -36.040       -6.526       35.947       26.748       20.154     1292.183      715.438      406.181        0.702        0.121      107.585       16.507        0.024      331.787        0.026      859.289
12/20/2013  21:45:00      -42.678       -7.789        2.137       34.883       16.558       13.428     1216.798      274.167      180.299        0.178        0.084       43.383        5.810        0.018      331.696       -0.122      859.254
12/20/2013  21:46:00       20.339        7.452       11.450       10.348        8.541        8.356      107.081       72.957       69.827        0.043        0.012       21.661        5.549        0.066      331.806        0.060      859.157
12/20/2013  21:47:00      -19.906       -9.488       -7.716       36.942        7.257        7.661     1364.685       52.668       58.695        0.101        0.074       22.052        8.673        0.155      331.953        0.300      859.120
12/20/2013  21:48:00     -138.436      -36.455       -8.759       24.482       20.005        8.262      599.376      400.194       68.253        1.082        0.053      143.155        6.362        0.002      331.821        0.084      859.129
12/20/2013  21:49:00      -61.802      -47.313       -1.592       64.898       23.029       15.400     4211.739      530.355      237.158        0.552        0.249       77.833        8.184        0.011      331.736       -0.055      859.140
12/20/2013  21:50:00        8.399       40.198       24.073       17.502       30.760       27.597      306.310      946.190      761.570        0.214        0.101       41.066       24.830        0.366      331.853        0.136      859.103
12/20/2013  21:51:00       62.915       46.676       20.704       37.021       19.210       22.778     1370.519      369.031      518.831        0.441        0.113       78.338       22.796        0.085      331.878        0.176      859.124
12/20/2013  21:52:00      109.751       55.712       11.281       35.576       26.694       22.823     1265.621      712.590      520.900        0.889        0.125      123.081       14.732        0.014      331.773        0.005      859.144
12/20/2013  21:53:00       84.748       54.589       16.303       43.144       22.590       18.921     1861.427      510.311      358.017        0.658        0.136      100.808       14.803        0.022      331.724       -0.074      859.121
12/20/2013  21:54:00        5.798       17.271       23.494       15.675       19.534       15.421      245.692      381.590      237.806        0.087        0.043       18.218       11.676        0.411      331.832        0.101      859.157
12/20/2013  21:55:00       12.389       22.023       -2.070        7.761        6.324        5.221       60.226       39.999       27.259        0.039        0.006       25.269        3.919        0.024      331.818        0.079      859.183
12/20/2013  21:56:00      -12.904       19.309       -2.707       10.856        9.510        6.766      117.847       90.431       45.777        0.040        0.013       23.223        3.437        0.022      331.732       -0.065      859.152
12/20/2013  21:57:00      -23.293      -22.271       -4.865       22.431       21.108       14.530      503.156      445.551      211.108        0.111        0.058       32.227       11.190        0.121      331.600       -0.281      859.119
12/20/2013  21:58:00      -50.440       10.478      -12.719       25.249       23.528       16.122      637.523      553.588      259.924        0.213        0.073       51.516       15.136        0.086      331.442       -0.541      859.096
12/20/2013  21:59:00     -133.177       45.779      -13.787       39.873       35.591       32.043     1589.886     1266.686     1026.758        1.195        0.194      140.826       19.287        0.019      331.292       -0.787      859.104
12/20/2013  22:00:00      -70.298       51.577      -21.128       24.495       21.957       17.877      599.988      482.110      319.589        0.472        0.070       87.189        5.863        0.005      331.386       -0.633      859.104
12/20/2013  22:01:00      -39.165       16.919      -18.881       26.475       33.973       16.192      700.936     1154.145      262.193        0.215        0.106       42.663       18.483        0.188      331.511       -0.426      859.134
12/20/2013  22:02:00      -41.551      -17.543       -2.540       29.423       16.604       14.070      865.689      275.683      197.967        0.169        0.067       45.103       11.845        0.069      331.448       -0.530      859.120
12/20/2013  22:03:00      -93.551      -20.247       -6.796       28.151       21.729       14.898      792.498      472.133      221.954        0.535        0.074       95.717        9.666        0.010      331.345       -0.700      859.116
12/20/2013  22:04:00      -86.391        5.261       -6.625       28.581       17.449       18.001      816.859      304.475      324.026        0.449        0.072       86.551       15.462        0.032      331.262       -0.835      859.125
12/20/2013  22:05:00      -46.217       10.134       -3.952       25.126       18.506       14.636      631.303      342.477      214.202        0.172        0.059       47.315       14.301        0.091      331.302       -0.770      859.170
12/20/2013  22:06:00      -34.341       -6.172       -8.039       27.828       23.961       14.352      774.395      574.108      205.971        0.142        0.078       34.891        9.474        0.074      331.319       -0.741      859.185
12/20/2013  22:07:00        5.280      -81.440       -9.772       37.353       30.347       24.388     1395.256      920.915      594.793        0.483        0.146       81.611       19.809        0.059      331.462       -0.506      859.113
12/20/2013  22:08:00      -26.769      -17.894       -0.327       17.717       38.834       17.106      313.898     1508.084      292.604        0.158        0.106       32.199       19.087        0.351      331.609       -0.265      859.047
12/20/2013  22:09:00      -66.704       29.010       -2.604       12.308        8.085       11.535      151.489       65.374      133.056        0.282        0.017       72.739        4.379        0.004      331.570       -0.329      859.081
12/20/2013  22:10:00      -72.631       13.362       -6.028        7.206        8.761        7.195       51.931       76.752       51.768        0.284        0.009       73.850        5.034        0.005      331.449       -0.529      859.092
12/20/2013  22:11:00     -103.288        1.166      -10.373       15.034       13.040       12.633      226.035      170.032      159.585        0.567        0.028      103.295        9.369        0.008      331.424       -0.570      859.129
12/20/2013  22:12:00     -106.044      -51.612       -9.970       21.373       24.637       13.596      456.824      606.975      184.864        0.763        0.062      117.937        3.958        0.001      331.363       -0.670      859.135
12/20/2013  22:13:00      -85.245      -53.981       -1.385       51.449       37.553       29.692     2647.000     1410.240      881.601        0.756        0.247      100.899       19.902        0.039      331.388       -0.629      859.124
12/20/2013  22:14:00     -165.753      -15.504      -10.890       28.577       33.813       16.357      816.637     1143.294      267.543        1.503        0.111      166.477       13.302        0.006      331.468       -0.498      859.170
12/20/2013  22:15:00      -75.596      -26.875        5.505       55.504       38.188       25.088     3080.647     1458.339      629.425        0.582        0.258       80.231       27.340        0.116      331.421       -0.574      859.223
12/20/2013  22:16:00      -16.990      -34.088       -1.510       22.309       37.078       21.999      497.690     1374.760      483.970        0.190        0.118       38.087       20.966        0.303      331.579       -0.315      859.192
12/20/2013  22:17:00      -30.365       42.580        3.269       17.367       22.098       20.251      301.627      488.341      410.087        0.197        0.060       52.298        9.333        0.032      331.587       -0.302      859.235
12/20/2013  22:18:00      -95.070        7.926       -5.674       29.124       19.336        9.912      848.214      373.867       98.255        0.523        0.066       95.399       11.390        0.014      331.629       -0.232      859.289
12/20/2013  22:19:00      -58.999      -39.207       -3.064       42.654       27.310       12.228     1819.334      745.817      149.527        0.387        0.136       70.839       17.297        0.060      331.573       -0.324      859.263
12/20/2013  22:20:00      -34.009      -15.141       -2.212       19.778       25.319       13.165      391.168      641.040      173.313        0.130        0.060       37.227       10.305        0.077      331.601       -0.280      859.272
12/20/2013  22:21:00      -99.312        3.637      -11.281       29.040       13.092       12.514      843.317      171.391      156.604        0.559        0.059       99.378       11.736        0.014      331.493       -0.456      859.269
12/20/2013  22:22:00      -71.566      -27.920       -9.076       27.297       16.630       14.723      745.105      276.559      216.780        0.361        0.062       76.819       16.027        0.044      331.559       -0.348      859.198
12/20/2013  22:23:00       -8.271      -30.567       -7.484       14.984       13.438        8.807      224.532      180.568       77.556        0.077        0.024       31.666        5.315        0.028      331.675       -0.158      859.129
12/20/2013  22:24:00      -57.677      -28.674       -7.167       23.317        9.686        7.063      543.698       93.811       49.885        0.244        0.034       64.412        8.789        0.019      331.620       -0.246      859.104
12/20/2013  22:25:00      -93.129      -34.177       -4.121       16.408       10.970        8.081      269.206      120.335       65.300        0.516        0.023       99.202        3.783        0.001      331.634       -0.225      859.084
12/20/2013  22:26:00      -45.513       -2.334       -3.210       21.784       21.686       10.037      474.546      470.301      100.737        0.157        0.052       45.572        7.173        0.025      331.579       -0.314      859.074
12/20/2013  22:27:00      -80.304      -15.215       -0.217       32.631       21.780       14.954     1064.778      474.358      223.635        0.422        0.088       81.733       13.990        0.029      331.480       -0.479      859.132
12/20/2013  22:28:00       -3.617      -19.170        8.968       22.701       14.314       12.346      515.355      204.902      152.425        0.067        0.044       19.508       14.198        0.530      331.452       -0.524      859.116
12/20/2013  22:29:00        2.760      -13.891       -1.899       17.483       11.242       11.724      305.649      126.382      137.459        0.039        0.028       14.163        4.405        0.097      331.577       -0.318      859.074
12/20/2013  22:30:00      -30.951       13.863      -11.670       13.530        6.979        8.223      183.059       48.706       67.612        0.079        0.015       33.914        4.780        0.020      331.626       -0.238      859.081
12/20/2013  22:31:00      -42.535        9.590       -5.595       17.686       15.716       12.513      312.805      246.978      156.573        0.132        0.036       43.603       11.948        0.075      331.657       -0.186      859.067
12/20/2013  22:32:00      -24.530      -15.511       -0.896       15.503       14.230       12.126      240.333      202.501      147.047        0.072        0.029       29.022       11.227        0.150      331.708       -0.102      859.029
12/20/2013  22:33:00      -27.180      -18.825        9.032       26.496       17.261       16.990      702.035      297.931      288.654        0.123        0.064       33.063       16.456        0.248      331.552       -0.360      859.013
12/20/2013  22:34:00      -93.241      -36.832       -8.362       34.388       15.777        8.282     1182.531      248.903       68.593        0.581        0.075      100.252        9.422        0.009      331.457       -0.518      859.018
12/20/2013  22:35:00      -85.530      -63.711       -2.292       20.808       17.273       13.564      432.962      298.346      183.979        0.615        0.046      106.651        8.665        0.007      331.431       -0.557      859.011
12/20/2013  22:36:00      -59.245      -36.775       -2.622       21.472       18.236        8.168      461.047      332.555       66.721        0.286        0.043       69.731        7.683        0.012      331.449       -0.529      858.988
12/20/2013  22:37:00      -11.757       -1.949       14.839       20.981       26.468       13.471      440.185      700.535      181.455        0.084        0.066       11.918       14.851        1.553      331.524       -0.405      858.986
12/20/2013  22:38:00       48.271       32.028        8.114       23.039       10.384       20.499      530.787      107.823      420.194        0.224        0.053       57.930       11.294        0.038      331.587       -0.300      858.974
12/20/2013  22:39:00      -16.156       17.554      -13.907       31.630       11.301        5.672     1000.448      127.711       32.166        0.096        0.058       23.857        8.438        0.125      331.636       -0.220      858.958
12/20/2013  22:40:00      -78.691       16.223       -5.613        9.436       10.813        7.703       89.037      116.912       59.340        0.338        0.013       80.345        5.117        0.004      331.607       -0.270      858.995
12/20/2013  22:41:00      -79.785        8.795       -3.019        7.528        8.267        6.611       56.666       68.347       43.711        0.331        0.008       80.268        4.519        0.003      331.494       -0.457      859.004
12/20/2013  22:42:00      -72.384        0.477       -2.696       15.935       13.502       10.900      253.936      182.304      118.805        0.290        0.028       72.386        6.881        0.009      331.524       -0.406      858.984
12/20/2013  22:43:00      -68.426      -20.313       -5.471       11.446       10.360        7.671      131.002      107.322       58.846        0.271        0.015       71.377        2.874        0.002      331.529       -0.397      858.920
12/20/2013  22:44:00      -46.537      -39.480       -6.132       18.719       15.855        9.711      350.409      251.386       94.305        0.223        0.035       61.028        7.124        0.014      331.497       -0.451      858.821
12/20/2013  22:45:00      -98.085      -11.911       -8.581       27.140       22.721       14.101      736.585      516.225      198.850        0.564        0.073       98.805       13.883        0.020      331.369       -0.661      858.764
12/20/2013  22:46:00      -79.323        7.630        0.069       45.255       21.973       22.271     2048.022      482.808      496.013        0.469        0.151       79.689       27.126        0.116      331.258       -0.842      858.723
12/20/2013  22:47:00      -36.851        3.493       -0.717       21.111       29.062       17.522      445.679      844.613      307.014        0.148        0.080       37.016       12.696        0.118      331.299       -0.774      858.702
12/20/2013  22:48:00      -37.127       11.213       -2.802       14.397       16.408       10.599      207.270      269.217      112.345        0.105        0.029       38.784        8.062        0.043      331.408       -0.597      858.699
12/20/2013  22:49:00       11.172       41.468       -2.294       25.265       46.343       16.091      638.298     2147.642      258.924        0.245        0.152       42.946       21.516        0.251      331.369       -0.659      858.740
12/20/2013  22:50:00       28.658      102.378      -20.216       18.229       18.053       10.515      332.293      325.915      110.573        0.624        0.038      106.314        9.797        0.008      331.194       -0.948      858.768
12/20/2013  22:51:00      -11.036       84.127      -16.204       32.737       21.834        9.724     1071.739      476.703       94.558        0.455        0.082       84.848        5.626        0.004      331.343       -0.704      858.774
12/20/2013  22:52:00      -82.677        4.811       -7.165       20.120       24.623       13.367      404.800      606.281      178.687        0.405        0.059       82.817       10.401        0.016      331.186       -0.962      858.747
12/20/2013  22:53:00      -97.623       -6.565       -6.952       36.555       25.235       18.216     1336.259      636.820      331.807        0.596        0.115       97.843       18.119        0.034      331.080       -1.136      858.705
12/20/2013  22:54:00      -69.150       25.695      -17.351       28.288       35.853       20.343      800.212     1285.450      413.830        0.412        0.125       73.769       10.367        0.020      331.142       -1.035      858.720
12/20/2013  22:55:00     -101.859       18.644      -14.241       27.041       21.889       17.096      731.228      479.121      292.258        0.621        0.075      103.551       12.195        0.014      331.201       -0.934      858.726
12/20/2013  22:56:00     -101.610        0.144      -12.442       43.282       28.301       16.658     1873.321      800.938      277.500        0.672        0.148      101.610       18.909        0.035      331.206       -0.928      858.775
12/20/2013  22:57:00     -114.665      -32.207       -4.433       36.110       50.332       27.175     1303.923     2533.293      738.493        0.939        0.229      119.102       20.103        0.028      331.204       -0.930      858.786
12/20/2013  22:58:00      -76.029      -51.616       -3.649       45.096       24.555       20.537     2033.620      602.938      421.778        0.576        0.153       91.895       21.873        0.057      331.154       -1.014      858.795
12/20/2013  22:59:00      -64.157       -2.637       -4.855       28.444       25.157       11.854      809.037      632.885      140.527        0.286        0.079       64.212       11.339        0.031      331.176       -0.978      858.793
12/20/2013  23:00:00      -54.582        9.837       -5.477       16.357       18.613        9.280      267.549      346.456       86.127        0.190        0.035       55.461        7.818        0.020      331.182       -0.968      858.815
12/20/2013  23:01:00      -24.679      -12.423      -10.310       14.800       12.619        4.755      219.028      159.240       22.607        0.064        0.020       27.629        3.601        0.017      331.341       -0.705      858.825
12/20/2013  23:02:00        3.396       -3.780       -0.904       15.383       15.621       10.036      236.645      244.022      100.718        0.030        0.029        5.081       10.004        3.876      331.463       -0.505      858.835
12/20/2013  23:03:00        3.143       -1.864        7.501        8.483        8.687       12.056       71.957       75.459      145.344        0.018        0.015        3.654        8.373        5.250      331.564       -0.342      858.828
12/20/2013  23:04:00      -44.967        8.793       -4.456       24.674       12.889        9.887      608.824      166.129       97.752        0.150        0.044       45.818       13.785        0.091      331.429       -0.563      858.885
12/20/2013  23:05:00      -70.965       18.491      -14.191       20.565       19.806       11.114      422.934      392.283      123.512        0.326        0.047       73.335       10.094        0.019      331.338       -0.711      858.988
12/20/2013  23:06:00     -100.108      -25.842      -16.566       19.373       27.851       13.189      375.314      775.691      173.948        0.614        0.066      103.389       10.536        0.010      331.271       -0.822      859.026
12/20/2013  23:07:00     -107.453      -47.365      -11.740       30.000       30.106       19.437      899.984      906.398      377.784        0.806        0.109      117.430       13.299        0.013      331.211       -0.918      858.985
12/20/2013  23:08:00      -66.432      -13.352      -13.680       32.625       14.687       13.085     1064.422      215.704      171.206        0.311        0.073       67.760        8.937        0.017      331.295       -0.781      858.906
12/20/2013  23:09:00      -52.437      -11.594      -11.199       19.635        9.909       10.628      385.546       98.192      112.956        0.180        0.030       53.704        6.037        0.013      331.370       -0.658      858.884
12/20/2013  23:10:00      -59.105      -18.622       -5.549       16.485       13.545        6.698      271.768      183.459       44.861        0.219        0.025       61.969        6.249        0.010      331.345       -0.699      858.865
12/20/2013  23:11:00      -97.864      -16.367      -11.468       15.814       12.069       11.058      250.079      145.668      122.283        0.525        0.026       99.223        8.339        0.007      331.379       -0.643      858.851
12/20/2013  23:12:00      -86.111      -12.283      -10.502       13.744       15.490        9.988      188.889      239.953       99.759        0.410        0.026       86.983        7.322        0.007      331.386       -0.631      858.838
12/20/2013  23:13:00     -127.480       -4.983      -13.771       29.753       19.147       20.271      885.245      366.595      410.924        0.906        0.083      127.577       18.154        0.020      331.384       -0.636      858.843
12/20/2013  23:14:00      -44.004      -12.448       -7.634       39.666       21.874       14.582     1573.405      478.450      212.630        0.221        0.113       45.731       10.639        0.054      331.426       -0.566      858.842
12/20/2013  23:15:00     -153.880      -54.436      -12.838       67.409       22.440       21.018     4544.011      503.562      441.762        1.615        0.274      163.225       27.536        0.028      331.433       -0.556      858.847
12/20/2013  23:16:00      -71.259      -32.782        5.885       80.044       33.527       23.864     6406.975     1124.072      569.478        0.714        0.405       78.438       33.207        0.179      331.413       -0.587      858.860
12/20/2013  23:17:00      -50.534      -59.271        2.231       62.554       37.459       24.429     3912.961     1403.140      596.763        0.599        0.296       77.889       26.461        0.115      331.617       -0.252      858.839
12/20/2013  23:18:00     -119.686      -10.780       -8.330       37.593       49.399       17.401     1413.221     2440.221      302.795        0.933        0.208      120.171       14.891        0.015      331.632       -0.227      858.875
12/20/2013  23:19:00      -58.523       63.823       -5.249       29.436       27.039       26.227      866.466      731.115      687.855        0.491        0.114       86.593       24.300        0.079      331.563       -0.341      858.928
12/20/2013  23:20:00      -38.778       32.553      -15.298       38.018       29.856       11.997     1445.372      891.406      143.918        0.264        0.124       50.631       17.595        0.121      331.694       -0.126      858.896
12/20/2013  23:21:00      -26.483      -16.549        7.310       48.326       26.671       21.316     2335.379      711.346      454.356        0.226        0.175       31.229       26.736        0.733      331.616       -0.253      858.850
12/20/2013  23:22:00      -89.193        2.937       -9.157       29.089       29.282       17.741      846.142      857.418      314.742        0.503        0.101       89.241       13.199        0.022      331.528       -0.397      858.895
12/20/2013  23:23:00      -60.187      -29.967       -3.859       26.628       30.495       17.498      709.028      929.966      306.195        0.324        0.097       67.234       14.134        0.044      331.511       -0.429      858.978
12/20/2013  23:24:00      -37.465      -17.729       -6.594       25.061       18.772       16.530      628.051      352.387      273.242        0.151        0.063       41.448       15.920        0.148      331.580       -0.313      859.007
12/20/2013  23:25:00      -69.965      -13.500       -6.108       23.091       17.787        9.425      533.185      316.366       88.838        0.303        0.047       71.255        7.513        0.011      331.553       -0.357      859.007
12/20/2013  23:26:00      -83.882       -6.818       -8.731       28.400       22.621       20.564      806.551      511.703      422.890        0.445        0.087       84.159       19.629        0.054      331.586       -0.305      859.033
12/20/2013  23:27:00      -47.818        6.594      -13.329       22.586       11.250       13.339      510.124      126.571      177.923        0.166        0.041       48.271       11.671        0.058      331.558       -0.348      859.038
12/20/2013  23:28:00      -62.854      -28.322       -6.353       24.231       17.789       13.007      587.154      316.444      169.181        0.293        0.054       68.940        7.447        0.012      331.587       -0.301      859.001
12/20/2013  23:29:00     -125.527      -15.944       -3.432       33.817       37.072       23.487     1143.557     1374.309      551.634        0.955        0.153      126.536       17.659        0.019      331.539       -0.380      858.995
12/20/2013  23:30:00     -137.394       46.490       -2.814       51.907       37.700       28.404     2694.319     1421.260      806.806        1.298        0.246      145.047       23.459        0.026      331.564       -0.340      859.017
12/20/2013  23:31:00     -119.665      -12.223      -12.310       30.351       31.121       19.427      921.212      968.520      377.418        0.844        0.113      120.288       12.649        0.011      331.590       -0.297      859.012
12/20/2013  23:32:00     -150.106       24.828      -16.620       44.811       27.900       26.231     2007.996      778.390      688.070        1.345        0.174      152.145       25.958        0.029      331.522       -0.409      858.998
12/20/2013  23:33:00     -150.762       51.944       -7.566       71.450       32.766       29.181     5105.165     1073.613      851.537        1.626        0.352      159.460       27.333        0.029      331.583       -0.309      859.016
12/20/2013  23:34:00     -187.234        2.478      -19.132       41.974       44.174       25.334     1761.854     1951.310      641.822        1.989        0.218      187.251       22.396        0.014      331.563       -0.342      859.008
12/20/2013  23:35:00     -139.303      -38.241      -16.143       41.612       41.187       22.249     1731.524     1696.363      495.010        1.252        0.196      144.456       13.028        0.008      331.597       -0.284      858.978
12/20/2013  23:36:00     -152.674        3.219      -14.147       25.254       27.115       18.713      637.740      735.239      350.165        1.262        0.086      152.708       13.577        0.008      331.549       -0.365      858.988
12/20/2013  23:37:00     -186.465       45.365      -18.728       28.802       23.013       15.825      829.582      529.619      250.416        1.939        0.080      191.904       11.581        0.004      331.593       -0.293      858.956
12/20/2013  23:38:00     -142.305       14.203      -11.270       28.231       22.132       15.623      796.995      489.845      244.087        1.105        0.077      143.012       13.338        0.009      331.594       -0.289      858.959
12/20/2013  23:39:00     -108.556       18.717       -8.964       39.102       28.627       15.400     1528.961      819.493      237.156        0.740        0.129      110.157       14.180        0.017      331.626       -0.238      859.007
12/20/2013  23:40:00      -71.838        5.844       -8.174       33.167       25.866       18.521     1100.077      669.049      343.018        0.369        0.106       72.076       14.536        0.041      331.669       -0.166      859.038
12/20/2013  23:41:00      -37.767      -22.802        6.454       19.588       10.109        7.764      383.689      102.200       60.287        0.127        0.027       44.116        4.999        0.013      331.756       -0.022      859.035
12/20/2013  23:42:00      -34.406       -3.798       -7.098       23.751       10.869        8.972      564.086      118.144       80.489        0.101        0.038       34.615        7.008        0.041      331.746       -0.039      859.089
12/20/2013  23:43:00       20.028       13.207       10.937       15.320       15.741       12.304      234.704      247.783      151.379        0.066        0.032       23.991        6.673        0.077      331.830        0.096      859.106
12/20/2013  23:44:00       -2.309       16.491       14.702       14.488       20.364       11.042      209.896      414.700      121.922        0.062        0.037       16.651       11.409        0.469      331.893        0.203      859.117
12/20/2013  23:45:00      -64.321      -17.574       -8.807       32.798       14.590        8.931     1075.719      212.876       79.762        0.295        0.068       66.679       13.621        0.042      331.903        0.219      859.190
12/20/2013  23:46:00      -71.597      -25.048      -10.802       19.546       13.441        8.682      382.056      180.659       75.384        0.325        0.032       75.852        7.028        0.009      331.761       -0.015      859.245
12/20/2013  23:47:00      -12.738      -29.389        1.403       21.437       17.087       11.747      459.548      291.961      137.995        0.096        0.044       32.031       12.700        0.157      331.826        0.093      859.247
12/20/2013  23:48:00      -12.969      -11.304        7.285       17.690       11.934       10.600      312.949      142.416      112.358        0.046        0.028       17.204        8.585        0.249      331.960        0.314      859.245
12/20/2013  23:49:00      -46.876        2.956       -0.196        8.518        7.738        6.671       72.553       59.881       44.508        0.119        0.009       46.970        5.182        0.012      331.928        0.258      859.293
12/20/2013  23:50:00      -27.298        3.456        0.993        8.770        7.417        7.601       76.904       55.012       57.775        0.047        0.009       27.516        4.373        0.025      331.936        0.273      859.330
12/20/2013  23:51:00       -9.342        0.185        4.360       13.456        3.141        5.734      181.069        9.866       32.881        0.017        0.011        9.344        6.947        0.553      332.032        0.432      859.316
12/20/2013  23:52:00       -9.397       -1.966        2.869        8.679        6.969        4.570       75.320       48.571       20.888        0.012        0.007        9.601        4.476        0.217      332.081        0.513      859.286
12/20/2013  23:53:00       -2.784       16.729        3.198       11.407        6.225        6.471      130.126       38.755       41.870        0.025        0.011       16.959        5.398        0.101      332.102        0.547      859.320
12/20/2013  23:54:00       16.527       19.450       -0.442        7.789        8.862       10.295       60.664       78.533      105.986        0.045        0.012       25.523        7.019        0.076      332.053        0.464      859.328
12/20/2013  23:55:00       21.673       10.969        0.937        7.835        8.521        9.366       61.384       72.615       87.719        0.041        0.011       24.291        7.053        0.084      332.026        0.419      859.256
12/20/2013  23:56:00       -1.095        4.848       -0.170       13.867        7.790        3.133      192.296       60.686        9.814        0.014        0.013        4.970        2.962        0.355      332.093        0.532      859.195
12/20/2013  23:57:00      -46.863      -11.457       -8.838       13.670       11.727        9.002      186.858      137.525       81.040        0.141        0.020       48.243        3.780        0.006      331.984        0.352      859.182
12/20/2013  23:58:00      -64.487      -13.892       -6.392       19.381       11.151        6.302      375.641      124.339       39.718        0.247        0.027       65.966        3.605        0.003      331.941        0.281      859.173
12/20/2013  23:59:00      -61.103      -11.077       -6.760       20.626       12.792       10.313      425.432      163.647      106.361        0.230        0.035       62.098        9.491        0.023      331.959        0.310      859.178
